GFSSW_sfc_dewp_000.txt.gz
Dewpoint
55 56 55 56 56 56 54 54 55 53 53 52 52 52 53 52 52 52 47 43 48 55 49 32 30 32 33 31 26 20 16 16 20 27 28 24 26 24 42 45 45 45 51 58 65
56 56 56 57 56 56 56 56 55 54 53 52 52 52 52 52 49 49 51 57 57 57 27 28 28 31 29 28 25 20 17 15 14 15 30 30 31 35 42 43 44 44 55 62 64
56 56 55 55 56 56 56 55 55 53 52 52 51 51 52 51 47 40 55 57 58 53 29 28 27 28 27 24 22 18 14 8 6 9 8 24 21 35 41 41 44 46 55 59 62
55 54 55 55 56 55 55 55 55 53 52 52 51 51 51 50 29 32 59 59 60 44 29 28 28 27 26 22 21 13 12 5 7 10 9 24 16 38 30 36 45 49 56 56 58
55 53 54 54 54 55 55 55 53 52 52 51 51 51 50 47 41 44 62 60 48 33 29 28 27 27 25 24 12 11 7 12 9 6 8 8 20 31 21 38 44 48 53 53 55
53 53 53 53 54 53 54 55 52 52 51 50 50 51 47 37 32 46 51 44 38 33 31 28 27 27 24 13 15 14 8 8 14 8 6 9 14 14 19 45 42 45 49 49 51
54 53 53 54 54 53 53 53 52 51 50 50 50 49 49 38 35 39 41 36 37 34 30 32 28 24 22 14 14 12 5 9 10 14 13 17 14 13 30 44 42 41 43 42 43
54 53 53 53 53 53 52 52 51 51 50 50 51 50 44 40 41 37 28 22 31 33 30 28 32 28 20 19 17 12 13 7 10 17 18 9 5 17 36 44 43 44 44 44 44
53 52 52 53 52 52 52 51 51 50 49 51 49 48 35 38 31 24 22 22 25 27 28 23 23 21 16 14 12 13 9 12 14 18 18 14 19 29 31 42 40 41 42 44 45
53 52 53 54 54 51 50 51 50 51 50 49 49 40 34 26 30 22 23 24 26 28 26 25 23 18 19 10 8 7 10 21 12 22 29 26 34 37 39 39 41 41 43 44 43
53 54 55 55 54 51 49 49 44 43 48 28 30 30 35 31 28 20 23 27 27 26 23 25 20 16 17 16 12 14 13 13 16 22 31 32 33 34 40 41 41 41 42 41 42
54 55 55 55 54 51 50 48 39 41 39 43 42 38 38 34 23 23 30 25 25 22 25 22 19 21 26 26 23 22 20 22 25 28 31 31 29 31 35 37 41 40 40 41 41
54 54 55 54 53 52 48 45 49 46 37 29 38 35 30 29 23 26 29 29 24 22 22 20 21 26 28 26 26 27 21 22 25 30 30 30 29 31 34 39 41 41 40 41 41
53 53 54 53 50 49 46 45 51 44 25 24 24 24 28 29 25 27 29 27 26 23 25 27 29 26 25 24 26 24 27 26 28 27 25 26 26 28 33 37 39 40 40 41 40
53 53 53 51 48 52 49 56 51 38 17 22 24 27 26 27 22 26 34 27 24 25 26 26 27 26 24 25 28 27 28 26 24 23 23 25 26 26 34 36 37 39 40 40 40
53 53 53 51 49 49 53 44 37 32 17 22 26 24 25 28 28 28 30 32 29 29 28 27 29 27 27 29 27 29 30 30 30 28 22 24 25 26 31 34 37 37 39 40 40
53 53 51 51 51 57 49 36 28 25 27 22 24 25 26 28 29 29 28 28 25 24 26 26 26 27 29 27 28 29 27 25 23 21 23 28 25 26 31 34 37 37 38 39 40
53 53 52 51 53 52 40 29 24 28 26 25 26 26 26 29 29 29 27 26 28 28 27 24 21 25 26 26 24 25 27 25 19 20 23 26 25 26 30 33 36 37 38 39 39
52 51 50 56 53 48 36 26 28 30 25 26 27 25 27 29 28 29 28 26 29 29 27 24 23 26 26 27 28 26 23 27 26 25 23 25 26 29 33 34 35 36 37 38 37
51 50 48 54 49 43 36 32 37 38 31 28 24 27 26 27 28 29 30 33 31 33 31 29 21 26 25 29 28 26 27 21 24 17 17 22 24 26 30 33 34 34 35 36 36
44 36 39 54 39 34 28 33 39 39 35 27 27 28 28 26 30 31 30 34 36 34 32 28 25 23 27 26 25 26 24 27 26 24 17 17 23 28 30 34 31 33 35 35 36
38 30 45 39 30 35 30 38 40 32 34 35 33 30 28 33 33 33 32 34 38 37 28 31 28 24 23 27 30 26 25 22 18 17 23 20 18 30 30 31 33 35 35 35 34
40 48 53 38 27 28 32 38 38 31 32 33 34 35 37 36 33 36 36 38 33 34 31 30 27 25 24 24 25 25 29 28 26 26 24 18 18 32 34 34 35 35 35 35 34
45 41 44 40 35 28 29 31 33 35 35 34 35 36 36 37 38 36 36 37 35 36 42 36 29 23 21 22 24 21 27 27 24 21 22 22 19 31 33 33 35 35 35 34 33
42 40 42 35 37 32 30 35 33 33 35 34 33 34 34 33 35 35 37 34 35 40 39 30 25 27 29 29 26 22 22 28 24 23 21 22 22 24 33 33 35 35 34 33 32
45 38 35 35 40 39 37 34 34 34 34 32 32 37 35 33 32 35 34 30 27 38 36 32 25 26 28 31 29 24 23 24 26 25 27 27 26 34 35 35 35 34 34 33 31
48 46 38 36 35 37 36 38 36 36 39 38 36 36 34 39 39 39 38 38 37 36 32 28 28 20 13 26 22 16 22 24 24 26 27 26 27 35 35 35 35 35 34 32 30

GFSSW_sfc_dewp_003.txt.gz
Dewpoint
55 55 56 55 56 56 56 56 54 54 54 53 53 52 52 52 52 51 46 42 47 57 50 31 29 31 32 31 26 21 18 26 24 26 28 32 32 31 44 46 44 44 56 59 65
55 55 55 56 56 56 57 56 55 55 54 52 52 52 52 51 49 47 50 56 57 58 29 27 26 32 30 29 26 21 19 19 21 28 32 30 28 37 43 43 42 51 61 63 63
56 55 56 56 56 56 56 56 56 55 55 52 53 51 51 50 47 40 55 57 58 53 28 28 27 30 28 25 24 21 18 14 9 0 21 29 23 38 42 40 42 50 59 61 62
54 54 55 55 54 55 55 55 55 55 53 53 52 51 51 49 28 33 61 59 59 38 29 29 26 25 26 24 21 15 16 5 1 5 25 25 31 40 36 33 43 55 61 61 61
55 53 54 53 53 55 53 54 55 54 53 52 51 50 49 47 43 47 61 60 52 32 28 28 28 28 27 26 15 13 9 12 6 11 22 16 33 37 18 41 48 57 60 61 62
55 53 54 53 53 54 53 53 54 54 53 51 50 50 47 37 35 50 52 47 40 31 29 28 25 28 26 18 17 15 11 12 10 8 9 16 14 18 25 42 50 56 58 59 59
54 53 53 53 53 53 52 54 54 53 50 49 50 50 48 40 36 46 41 40 36 33 31 31 29 27 26 12 14 13 11 12 15 16 17 17 15 18 31 42 45 52 52 52 52
54 53 53 52 53 52 53 53 52 51 49 49 52 49 44 44 44 40 36 29 35 35 31 30 31 25 19 19 18 13 17 11 12 18 19 10 9 30 35 41 40 42 44 45 44
53 53 52 53 53 52 53 52 50 48 49 52 49 47 41 42 35 31 24 22 25 32 32 27 28 24 18 18 16 18 10 13 14 26 19 20 23 35 37 41 40 42 43 44 45
53 52 53 53 53 52 51 50 50 51 50 50 49 43 37 29 35 22 26 27 28 28 29 28 23 21 18 14 12 13 12 13 15 22 30 31 34 38 41 41 42 43 44 44 45
53 52 53 54 54 51 50 49 45 44 48 38 37 33 32 34 28 21 26 31 30 29 25 26 20 18 18 17 13 14 14 14 17 29 33 33 35 37 41 41 43 43 43 44 46
53 53 54 53 53 50 50 47 41 43 42 46 43 41 38 36 25 23 32 28 29 25 24 24 21 21 27 25 23 23 23 25 27 30 32 34 35 38 39 40 42 43 43 44 45
52 53 54 53 52 49 48 49 50 48 41 33 41 35 31 32 26 27 31 31 25 24 23 25 22 27 27 26 27 26 25 25 26 30 30 31 32 37 40 41 42 42 43 44 45
52 53 53 52 48 49 48 49 51 49 29 27 26 28 29 29 29 29 32 29 27 24 27 28 28 25 25 26 26 26 27 30 29 27 24 26 22 34 38 40 41 41 42 43 41
52 53 53 51 49 50 51 57 49 43 24 26 25 29 29 26 26 29 33 29 26 26 26 26 27 25 26 26 30 28 31 28 25 24 24 25 25 28 37 39 40 41 41 41 40
52 53 53 50 50 50 52 49 43 35 22 24 27 26 28 30 31 30 31 33 31 30 29 28 28 27 26 29 29 32 31 31 30 28 25 24 22 25 34 37 39 40 41 40 38
52 53 51 51 49 54 53 40 33 29 29 23 25 27 28 31 30 29 29 30 27 28 28 26 26 26 30 28 28 30 29 27 25 27 24 27 25 26 30 35 39 39 39 40 41
52 52 51 51 52 51 42 33 25 27 26 25 27 27 27 31 30 28 28 27 29 29 27 22 23 23 28 27 26 27 28 29 22 25 23 26 25 25 29 33 38 38 39 40 41
52 51 50 51 53 51 39 31 26 27 25 26 27 26 30 30 29 30 28 27 28 29 28 27 23 25 28 28 27 25 25 28 27 25 25 25 26 28 31 32 36 37 39 39 40
50 49 49 55 54 44 37 29 31 34 33 29 25 29 28 30 29 29 30 33 30 34 32 30 24 26 26 28 29 27 27 24 26 23 20 21 25 25 31 31 34 36 37 39 39
49 46 45 53 45 39 34 30 36 39 35 28 29 29 29 29 31 30 30 34 36 33 32 27 30 27 27 26 25 26 25 27 26 25 19 19 20 30 31 33 34 36 37 38 38
44 35 48 43 34 36 32 35 39 38 35 36 32 32 31 34 33 33 32 34 39 39 32 31 32 29 22 27 30 26 25 25 24 18 24 25 20 30 32 31 35 34 36 37 38
39 48 53 43 31 33 34 36 39 35 33 35 37 37 39 37 34 36 36 39 36 35 34 33 31 28 24 22 26 26 28 26 27 29 25 32 19 31 33 32 32 34 35 36 35
46 43 46 40 36 32 31 33 33 37 36 36 36 38 39 38 39 37 37 38 38 38 41 37 29 28 24 22 25 25 28 26 25 26 24 27 22 24 31 32 34 35 35 34 33
43 41 45 39 34 32 30 31 32 34 37 36 36 36 37 36 37 37 37 35 37 40 39 33 29 28 29 28 26 21 26 26 22 24 26 24 23 23 29 32 34 35 34 33 32
41 40 38 39 39 32 33 36 34 35 37 35 35 38 38 35 35 36 36 33 32 39 35 33 30 29 30 29 28 26 24 25 27 26 24 25 26 28 33 34 34 34 34 33 32
48 45 40 35 39 34 36 34 35 38 40 39 37 38 37 40 40 39 38 38 38 37 33 31 31 26 21 25 23 23 25 25 27 27 28 28 28 34 34 34 34 35 34 34 34

GFSSW_sfc_dewp_006.txt.gz
Dewpoint
57 57 57 57 57 56 56 56 56 56 55 54 54 53 53 53 52 47 43 40 45 58 53 37 34 32 29 23 26 24 12 13 26 30 37 42 38 39 38 43 47 46 51 58 63
56 56 56 57 56 56 56 56 56 56 56 55 54 53 53 52 48 43 47 55 57 58 29 26 24 26 25 23 25 21 16 20 27 32 31 31 31 38 42 44 44 50 57 61 61
56 56 56 56 56 56 56 55 55 56 55 54 54 53 53 51 44 36 57 56 58 55 25 24 24 27 22 24 24 22 17 16 19 29 29 27 28 35 38 41 42 50 57 60 60
56 56 56 55 55 55 55 54 55 55 55 54 52 52 52 49 25 32 62 59 59 43 29 26 25 25 19 21 22 21 18 14 6 4 24 26 31 36 34 33 41 54 58 61 60
56 56 55 54 54 55 54 54 54 55 54 52 52 51 49 43 35 46 60 58 46 33 26 26 24 22 17 21 22 20 17 12 4 13 28 32 36 36 31 42 50 55 57 58 57
55 55 55 54 54 54 54 54 54 54 52 51 51 51 47 35 33 45 50 45 37 30 29 27 22 23 22 23 20 17 10 7 9 19 18 30 29 28 27 44 50 54 53 55 56
54 55 55 54 54 54 54 54 54 52 51 50 50 49 47 35 35 44 43 38 34 29 29 31 27 23 24 20 14 14 8 10 15 17 15 13 15 25 35 43 49 49 51 53 53
54 55 54 53 53 54 53 53 52 51 50 50 51 49 41 40 39 39 38 36 36 34 31 30 31 27 24 18 13 10 10 8 17 13 16 13 11 29 38 40 45 48 51 52 51
53 54 53 53 53 53 53 52 51 49 49 51 49 48 34 43 33 29 33 20 31 34 34 27 30 26 20 15 11 13 5 8 11 22 14 12 13 31 40 39 41 45 47 47 48
54 54 53 53 53 53 51 51 50 50 50 50 49 45 38 26 31 25 23 23 25 30 28 27 22 20 19 12 10 9 5 6 7 23 16 19 27 32 39 40 40 42 44 45 46
53 54 53 53 54 51 50 49 47 46 48 37 33 35 27 29 31 20 24 26 26 24 21 25 16 14 17 14 12 11 12 9 17 29 29 29 29 32 38 41 43 43 43 43 46
54 54 53 54 53 51 49 46 43 47 36 43 42 38 36 34 25 21 29 20 22 14 24 20 18 22 25 18 16 14 12 18 24 29 28 29 32 35 36 40 42 43 44 45 48
54 53 53 54 52 49 48 46 51 50 42 36 40 32 29 33 21 18 27 26 21 13 22 16 24 27 22 21 20 22 18 24 18 27 29 29 30 34 39 40 42 43 44 46 49
54 53 53 52 48 48 45 45 47 51 28 24 26 29 27 27 25 29 31 26 26 21 24 25 26 24 23 22 25 20 25 24 26 24 18 27 18 33 37 40 41 43 45 47 50
53 52 52 51 51 46 51 56 56 49 23 23 23 27 28 24 26 29 31 27 22 25 27 26 25 24 23 25 28 26 30 27 25 23 24 24 19 31 37 38 41 43 46 48 50
52 52 52 50 51 52 54 54 50 37 20 22 23 25 26 27 27 29 29 30 30 27 27 27 28 27 27 29 28 31 29 28 27 25 23 21 21 20 33 35 40 42 43 44 44
52 52 52 51 47 55 59 49 33 28 25 20 21 24 25 25 28 28 28 27 23 25 25 25 26 27 29 28 31 29 26 22 19 23 22 26 23 20 28 34 40 41 40 42 41
52 52 53 51 53 56 49 34 24 20 22 23 23 25 24 26 28 28 28 25 29 26 24 18 23 24 28 27 24 28 25 22 16 22 15 26 19 18 29 33 39 40 39 40 39
51 51 50 52 54 54 44 40 26 25 23 23 24 22 26 27 26 28 28 27 27 29 20 22 21 26 28 28 27 26 26 28 28 29 27 19 24 28 30 31 36 36 37 38 38
49 49 49 56 57 52 44 33 25 31 30 25 20 23 24 25 23 26 28 30 29 31 33 28 23 26 27 28 29 27 27 26 29 24 19 18 23 20 30 31 34 36 37 37 38
50 45 53 59 55 44 39 31 30 37 36 27 23 24 24 27 26 23 25 31 32 30 31 27 27 27 29 26 24 26 24 24 26 28 18 13 10 29 29 33 34 36 37 38 39
49 41 54 55 43 37 34 30 38 36 36 33 30 28 28 31 28 28 27 30 37 33 30 30 31 31 25 28 29 27 24 21 21 18 28 30 13 27 33 33 34 35 37 38 40
43 46 52 48 38 44 34 31 36 33 31 34 31 33 36 34 32 34 34 36 36 35 33 33 31 28 25 27 27 26 25 22 26 31 24 32 14 27 32 33 33 35 36 38 40
43 46 49 40 37 34 31 30 27 36 34 35 36 38 38 36 38 37 37 36 37 36 41 36 32 29 27 21 25 27 26 24 21 25 20 24 12 19 25 30 32 34 36 37 39
46 42 41 44 37 33 32 29 25 32 35 35 36 35 36 37 36 36 37 34 37 40 38 35 31 28 26 27 25 23 23 25 21 22 23 14 16 14 21 25 30 34 36 36 36
44 43 43 39 36 32 32 28 25 32 34 33 34 37 38 38 34 37 36 34 34 38 37 34 34 31 30 29 26 25 22 24 24 23 23 20 21 22 27 30 33 35 35 35 35
49 45 41 40 36 33 31 29 27 37 40 37 36 39 38 39 41 40 39 38 36 37 38 36 36 29 24 27 27 32 28 22 23 24 25 24 24 29 30 32 33 34 35 34 34

GFSSW_sfc_dewp_009.txt.gz
Dewpoint
55 55 55 57 57 57 57 56 56 56 56 56 56 55 53 54 52 47 43 41 43 57 54 33 29 30 24 20 15 18 16 10 14 26 37 37 36 33 34 33 38 52 48 54 59
56 56 56 57 57 57 56 56 55 56 56 56 55 54 54 52 48 42 47 58 55 58 35 28 26 23 20 19 17 14 13 12 24 33 38 36 34 39 34 38 42 50 53 58 59
55 56 56 56 56 56 56 55 55 55 56 55 54 54 54 51 44 35 58 58 57 56 27 22 21 20 20 18 17 14 17 24 33 30 30 29 28 32 40 39 41 49 53 54 56
55 56 56 56 56 56 55 54 55 55 56 54 53 52 52 49 31 37 61 58 57 43 31 20 19 21 21 16 17 18 18 18 15 23 22 24 23 38 43 47 46 47 52 52 56
56 55 56 55 55 55 55 54 55 55 55 53 52 51 49 44 37 51 60 58 43 39 29 22 22 21 16 15 15 18 17 16 10 12 23 26 27 27 32 39 44 51 53 51 54
56 55 55 55 55 55 54 54 54 55 53 51 51 51 48 37 31 42 41 39 33 33 25 24 22 19 18 17 18 18 18 8 16 21 27 30 26 22 37 41 46 49 48 47 48
56 54 55 55 55 54 54 54 54 53 51 50 50 48 45 36 33 41 38 31 30 28 22 23 23 22 24 23 20 14 10 8 22 22 26 20 19 26 39 41 43 43 43 44 44
56 54 55 54 54 53 54 53 52 50 49 49 50 49 40 36 35 33 38 36 35 31 29 30 31 29 26 20 16 12 14 20 24 19 13 9 16 26 36 39 40 41 43 45 46
56 54 54 54 53 53 53 51 50 49 48 49 50 48 36 42 31 29 32 29 30 31 32 29 30 29 26 19 13 11 8 15 17 12 4 8 16 27 31 37 39 42 44 45 45
56 54 54 53 53 53 52 50 50 49 49 49 48 48 38 23 29 24 28 24 28 32 28 27 27 25 22 14 11 12 9 10 8 8 6 11 20 26 29 32 39 41 44 45 46
55 54 54 53 53 52 50 48 46 47 46 38 34 32 26 27 29 23 22 23 28 30 22 26 21 19 18 17 15 12 6 5 8 12 10 17 17 23 30 31 34 37 41 44 45
55 54 54 53 54 51 50 43 44 49 41 36 35 33 32 30 26 20 24 21 24 19 21 22 22 22 18 16 12 10 10 12 14 18 24 19 22 25 30 32 35 35 38 40 44
54 54 54 54 52 50 48 44 49 50 45 34 33 31 27 30 21 18 21 20 19 20 19 20 20 22 18 14 12 12 10 18 17 23 23 20 24 29 31 35 38 39 39 40 45
54 53 53 52 48 48 46 44 44 48 37 26 27 28 28 27 22 25 24 23 21 17 23 23 24 20 15 13 18 15 20 20 17 22 16 19 17 25 32 33 36 39 41 43 46
53 53 53 51 53 45 51 54 51 54 28 23 23 27 26 24 23 24 28 22 21 19 22 22 23 18 17 22 24 31 26 23 22 22 19 20 15 35 33 32 34 38 41 44 47
53 53 53 51 51 51 54 58 56 41 24 21 22 23 25 22 22 25 20 25 25 22 20 23 26 23 24 26 25 28 26 24 21 21 22 16 20 27 29 29 34 39 43 47 49
53 53 52 51 47 54 58 55 40 31 22 17 19 21 22 20 22 23 21 21 15 21 21 21 21 26 26 24 27 24 24 19 17 21 20 18 19 19 20 29 33 39 43 46 47
52 52 53 51 51 57 57 48 31 23 21 18 17 20 20 20 21 23 18 16 17 20 19 17 22 23 26 24 20 24 20 21 16 18 12 21 16 13 23 24 30 39 41 44 43
52 51 51 52 55 55 50 41 31 17 19 19 18 19 21 20 20 25 24 18 17 21 20 19 19 25 26 26 23 21 24 23 24 26 23 15 14 19 28 27 32 39 40 41 40
50 49 49 54 56 53 45 35 28 24 22 20 18 19 21 21 19 23 22 23 25 27 29 21 20 23 26 28 28 26 24 23 22 18 18 13 15 12 28 28 31 38 38 39 38
50 45 47 55 55 46 40 35 26 29 29 24 20 19 21 21 20 21 22 28 29 28 26 22 23 27 27 25 19 25 21 22 24 28 23 16 13 22 18 27 31 35 37 38 38
49 41 57 58 42 44 40 33 31 31 35 28 29 22 23 24 23 21 20 22 31 30 23 24 27 32 25 27 27 27 24 24 26 21 26 29 17 23 27 29 31 33 35 38 37
46 46 58 55 42 47 37 30 28 31 31 30 26 25 25 25 24 23 23 38 38 34 27 32 27 28 25 27 26 22 23 23 20 30 22 29 18 23 27 29 30 32 35 37 38
43 42 50 50 44 39 35 30 30 34 30 30 25 29 31 29 30 30 31 36 38 35 40 37 27 27 26 23 24 26 20 21 22 26 24 22 15 15 20 23 25 31 33 35 37
44 40 43 45 43 39 35 30 26 29 33 34 33 29 28 29 31 32 35 36 37 40 35 35 30 28 26 25 22 20 19 20 18 19 23 19 7 9 13 17 21 26 31 32 36
42 39 41 43 42 37 35 28 26 28 32 33 30 28 29 30 32 29 35 36 35 38 37 37 33 33 33 27 25 23 20 16 18 19 15 13 14 15 21 22 24 26 30 32 35
48 50 43 43 42 36 35 28 27 32 39 33 30 34 32 37 42 41 40 38 36 39 39 37 39 33 25 29 28 32 30 23 19 18 19 21 21 25 25 24 26 27 31 32 34

GFSSW_sfc_dewp_012.txt.gz
Dewpoint
56 57 56 54 56 54 57 57 56 56 57 57 56 55 54 55 53 46 42 43 45 56 53 35 30 28 27 22 20 12 10 10 12 14 39 46 44 45 45 36 43 44 45 50 61
56 56 56 54 56 56 55 56 56 56 56 56 56 55 55 54 47 43 46 58 59 58 36 32 25 23 24 20 19 12 14 15 38 41 42 46 48 45 34 41 47 49 55 55 60
56 55 56 56 54 55 55 55 55 55 56 56 55 54 54 51 45 37 59 58 58 54 32 28 24 22 20 18 17 14 13 17 41 44 43 39 44 38 38 43 50 53 55 57 58
57 56 56 56 54 54 55 55 55 55 55 55 54 53 53 49 33 38 60 59 59 41 33 30 20 18 17 17 16 13 12 18 38 41 41 34 37 36 40 45 51 54 53 55 56
57 57 56 55 55 55 54 54 53 55 55 54 53 52 49 44 40 49 61 56 38 38 32 23 18 18 18 18 15 15 17 16 19 25 27 34 32 36 38 44 47 50 48 53 54
57 56 55 55 56 55 53 54 54 55 54 53 51 51 48 37 33 45 43 40 29 31 28 22 20 20 18 14 14 16 17 12 15 19 33 33 34 33 39 43 46 45 46 49 50
57 56 55 55 55 55 54 54 54 54 53 51 50 47 44 37 33 40 35 30 30 31 25 23 23 21 22 24 20 19 16 12 21 21 26 40 28 29 40 43 43 42 43 44 45
57 56 55 55 55 54 54 54 53 52 51 50 50 48 42 37 36 33 37 34 33 30 29 28 31 28 26 27 20 15 14 13 24 23 22 17 20 29 40 40 39 39 40 41 42
56 56 55 54 54 53 53 53 52 51 50 50 50 48 39 42 32 30 30 31 29 32 31 28 29 29 28 26 17 18 14 24 22 24 13 6 18 26 36 37 37 40 41 42 42
56 56 54 54 53 53 53 52 52 50 49 47 46 44 44 28 25 24 27 28 28 31 30 29 27 26 26 19 14 16 14 19 16 15 4 6 19 24 30 45 50 39 41 43 43
56 56 54 54 53 53 50 48 46 47 47 35 35 33 23 23 27 26 22 23 26 29 27 27 24 23 22 24 22 18 15 12 12 8 6 17 19 22 26 38 39 41 41 43 44
56 55 54 54 53 53 50 45 45 49 45 40 27 34 31 31 26 22 22 21 26 24 22 22 23 23 24 21 20 17 15 10 10 11 12 12 17 20 25 27 33 37 41 42 44
55 54 54 53 53 51 49 44 45 46 44 37 24 25 29 27 24 19 21 21 22 20 21 29 28 22 21 21 19 15 15 17 13 10 12 28 21 19 23 27 29 32 35 40 43
55 54 53 53 49 50 47 47 46 49 39 30 26 28 28 27 23 17 21 19 20 20 21 33 31 22 20 16 14 22 26 19 21 26 14 27 23 36 34 25 30 34 37 38 41
54 54 53 52 53 46 53 50 52 55 30 26 25 27 25 23 21 19 22 23 21 20 27 23 22 21 19 21 23 25 28 24 19 19 24 27 23 32 35 31 31 35 39 41 45
53 53 53 52 51 51 52 57 58 44 29 22 23 24 22 21 19 19 21 23 20 22 24 28 28 24 26 23 23 27 24 25 18 19 29 26 28 30 33 32 35 34 38 42 45
53 53 52 51 48 52 54 58 43 31 23 20 21 21 21 20 19 20 22 17 17 20 22 22 20 22 23 17 22 21 22 20 21 24 25 17 24 30 35 36 45 46 38 43 48
53 52 52 51 52 55 56 52 32 25 22 15 17 19 19 18 19 18 17 15 17 16 18 19 18 20 20 18 26 23 16 24 27 28 24 22 20 16 30 37 44 43 42 46 48
52 52 51 52 54 56 53 43 33 24 22 19 15 17 18 17 17 20 18 15 14 16 20 31 25 25 22 20 21 14 19 21 22 34 27 18 12 10 24 23 26 38 41 45 46
50 50 47 53 55 52 49 40 33 28 20 19 15 17 17 18 17 19 20 19 15 17 26 39 33 32 24 25 24 24 21 24 26 24 20 13 16 20 25 26 27 37 40 42 44
49 44 49 55 55 48 43 39 37 29 23 22 18 16 17 20 17 20 20 20 23 23 24 24 32 25 26 23 16 23 21 21 19 30 32 28 17 21 21 25 30 33 41 41 43
48 40 54 56 43 37 41 38 35 29 26 28 25 19 19 22 20 19 26 26 28 24 24 23 26 36 24 23 22 24 26 21 35 26 35 36 23 23 26 25 31 32 37 40 41
44 47 56 54 35 42 40 37 33 30 28 30 25 26 23 24 23 21 20 37 37 28 27 27 27 32 24 26 26 23 19 22 25 37 32 34 26 22 23 23 26 31 33 38 40
43 44 52 53 40 39 39 35 33 33 27 28 26 26 23 23 24 24 24 36 37 34 41 40 28 26 30 24 25 27 21 17 21 35 33 28 17 16 21 24 25 30 32 34 39
49 42 46 43 43 41 41 36 31 27 30 29 26 23 28 28 26 26 28 37 37 39 35 34 30 26 22 22 25 24 20 20 17 22 24 25 16 15 16 20 24 28 30 30 30
47 41 46 44 43 43 41 37 30 26 30 30 30 27 28 30 28 28 29 37 35 38 35 37 36 37 36 28 26 25 24 21 18 17 18 16 17 15 24 24 24 24 25 30 29
47 50 45 44 42 42 42 36 32 31 32 30 30 30 30 35 38 41 43 41 37 39 39 39 44 39 34 30 31 30 33 26 24 19 19 22 23 21 21 23 28 29 28 30 32

GFSSW_sfc_dewp_018.txt.gz
Dewpoint
58 58 57 57 57 56 54 54 53 54 55 55 56 56 56 55 54 48 45 45 48 55 54 38 35 34 32 31 29 19 15 12 18 38 40 47 45 45 48 48 50 53 57 59 61
59 58 57 57 56 56 55 54 53 54 55 56 56 56 56 55 49 47 50 55 57 59 41 33 33 28 24 24 24 21 16 15 23 42 43 43 42 43 46 49 51 55 58 60 60
59 58 58 57 57 56 55 54 54 53 54 55 55 56 55 53 47 44 58 57 58 58 36 34 32 28 24 23 23 20 18 21 39 40 43 43 43 46 45 47 47 53 56 58 58
58 58 57 57 57 56 55 54 54 53 54 55 55 54 54 50 31 36 61 61 61 45 37 34 31 27 23 21 21 18 18 19 38 41 40 40 44 45 45 45 51 57 56 58 57
57 57 57 57 57 56 55 54 54 54 54 54 54 53 49 45 45 53 60 60 47 40 34 31 34 32 23 19 19 18 18 17 34 38 40 42 42 39 41 49 53 56 57 57 55
57 56 56 57 56 56 55 54 54 54 54 52 53 52 48 38 45 52 49 42 37 37 34 33 33 27 23 23 23 25 18 17 36 38 38 39 40 38 41 50 52 54 55 57 56
58 56 56 56 56 55 55 54 54 54 54 54 52 48 46 30 45 47 41 35 31 33 30 31 31 31 31 26 30 28 16 25 31 33 34 37 36 40 42 48 51 52 54 55 56
58 57 56 55 55 54 54 54 53 54 54 53 51 47 38 44 44 39 39 33 32 31 32 31 33 31 32 30 29 24 17 16 27 32 34 33 34 40 44 45 46 47 52 54 56
58 57 56 55 54 54 53 53 53 54 54 53 47 47 42 47 42 42 37 34 32 31 33 30 31 30 29 27 25 21 16 24 21 25 32 29 38 42 43 44 45 48 51 49 52
58 57 55 55 54 53 52 53 53 52 50 49 46 39 40 35 38 34 34 36 35 35 34 33 27 27 27 25 19 19 22 24 21 21 30 30 34 41 42 41 43 44 45 45 48
57 57 55 55 53 52 51 49 45 46 46 36 32 35 31 35 34 31 30 30 33 31 27 31 24 24 24 26 26 23 21 21 22 23 20 22 33 39 40 42 44 47 46 46 47
56 56 55 54 53 53 50 46 45 44 41 45 44 41 39 38 31 30 28 25 31 28 31 26 24 25 27 27 26 25 21 21 23 21 15 22 34 37 40 40 43 46 47 44 46
56 56 55 53 53 52 49 47 48 47 42 43 46 44 42 33 31 31 26 25 26 27 25 25 23 29 28 25 25 23 24 25 21 14 22 23 25 32 38 41 42 44 44 43 45
56 55 53 52 48 49 48 50 50 47 39 38 41 40 28 28 29 31 26 24 25 23 27 27 29 25 28 27 26 22 23 27 26 20 16 20 21 29 31 32 41 41 45 42 47
55 54 52 51 50 49 50 50 49 49 23 31 38 32 25 29 29 27 27 26 22 27 27 26 29 28 27 26 27 25 28 26 29 25 23 25 24 25 34 25 37 41 44 44 46
55 54 53 51 50 49 49 50 54 38 27 34 28 28 28 29 28 25 24 25 25 23 26 25 28 28 26 27 27 28 26 29 28 27 24 28 23 24 31 28 26 35 43 44 44
54 54 52 51 46 52 53 54 41 33 32 29 26 29 28 27 27 25 25 23 19 20 24 26 23 30 32 26 29 28 27 23 19 23 22 30 26 25 28 33 33 34 36 41 43
54 53 53 50 51 52 54 48 34 34 34 31 27 28 26 26 25 24 22 20 24 22 23 23 23 29 31 27 24 26 24 23 18 23 22 31 27 28 31 31 34 33 37 44 48
53 53 52 51 51 52 50 39 32 36 30 28 27 25 26 25 23 23 24 23 21 21 20 27 26 34 31 34 31 24 22 27 30 32 28 28 27 21 34 35 36 37 38 43 48
50 50 50 51 51 50 45 35 38 39 36 30 25 25 23 23 22 21 21 23 22 21 31 31 27 35 33 32 32 27 25 23 29 23 23 20 22 23 30 33 35 39 38 40 48
49 45 50 52 51 46 40 36 37 39 39 36 31 28 23 23 23 23 22 22 23 25 34 36 29 31 34 30 26 28 24 23 27 27 21 22 22 21 26 31 32 38 40 41 48
46 40 50 51 41 40 39 38 38 38 40 41 38 35 25 26 26 26 25 27 35 36 31 36 34 30 30 32 26 30 25 24 24 18 27 26 23 27 23 26 34 38 40 44 47
42 43 51 47 36 35 38 38 37 36 38 39 35 34 32 29 26 29 31 37 38 34 32 35 30 25 26 27 30 25 23 27 30 28 24 22 23 24 23 21 24 31 40 44 46
43 38 45 46 39 33 35 37 36 37 38 40 39 38 32 30 33 32 36 39 41 37 43 37 29 24 23 24 29 27 27 25 28 26 24 25 23 23 21 22 22 26 32 41 43
44 38 40 37 39 35 35 36 35 33 39 39 36 37 34 27 32 31 37 38 40 39 37 34 27 28 27 31 30 28 27 27 23 24 23 23 24 22 22 23 24 26 27 34 40
40 42 43 41 38 38 35 33 32 31 34 34 36 36 33 26 29 32 37 36 34 38 32 35 28 32 29 31 30 27 27 27 27 26 25 23 22 25 25 27 28 28 28 28 29
44 46 44 39 39 38 37 33 31 32 36 34 37 36 32 31 36 37 39 40 39 36 35 34 32 29 26 28 26 25 25 25 26 26 27 23 24 28 29 32 30 29 32 32 34

GFSSW_sfc_dewp_021.txt.gz
Dewpoint
58 58 58 58 57 57 56 55 54 53 53 54 55 55 55 56 54 48 42 43 48 54 54 36 35 34 32 30 29 21 17 13 12 40 37 45 43 45 51 51 56 57 57 60 62
58 58 58 58 57 56 56 55 54 54 53 54 55 55 56 55 50 46 50 54 56 56 37 33 30 29 25 24 24 21 19 18 18 38 40 43 43 45 48 52 54 55 60 61 60
59 58 58 57 57 57 56 55 55 55 54 54 55 55 55 53 45 40 58 57 58 58 35 35 30 26 22 23 22 20 19 18 33 40 43 41 43 46 47 46 52 55 57 58 59
58 58 58 57 57 57 56 55 55 54 54 54 54 55 54 50 29 35 61 59 59 53 37 32 29 27 24 21 22 19 19 22 26 40 41 42 45 45 46 48 55 56 56 57 57
58 57 57 57 57 57 56 55 55 54 54 53 53 54 49 38 33 50 60 59 54 40 35 30 31 31 25 21 20 19 18 18 28 40 40 43 40 39 45 54 56 57 56 56 56
58 57 57 57 57 56 55 55 55 54 54 54 53 52 46 26 42 53 50 45 40 36 32 31 32 30 27 24 21 24 26 22 31 38 40 39 40 41 46 56 55 55 55 53 53
58 57 57 56 56 56 55 55 54 54 54 53 52 48 45 24 45 46 44 39 34 35 33 34 33 31 30 26 30 29 20 29 34 37 39 38 36 38 46 53 55 56 55 53 54
58 58 57 56 55 55 54 54 53 54 54 53 51 46 42 38 45 42 41 36 32 34 31 32 32 31 31 29 28 24 17 26 30 33 37 35 35 41 48 51 52 54 55 53 55
57 58 57 55 55 54 54 53 53 54 53 53 46 46 41 43 42 44 38 35 34 31 31 31 32 30 29 26 22 20 15 22 28 30 35 32 38 42 47 48 50 50 55 56 55
56 57 57 55 54 53 53 53 53 52 50 49 46 37 35 31 37 36 40 37 36 35 32 32 28 27 27 23 17 18 19 23 21 25 31 31 39 42 45 46 47 49 52 54 55
55 56 57 55 54 52 50 48 44 46 45 31 28 28 29 36 36 33 33 35 32 31 27 30 24 23 23 26 26 24 21 20 22 22 26 31 37 41 43 44 45 46 48 51 54
54 55 56 55 53 53 48 45 43 45 40 44 43 39 39 39 37 32 31 28 30 27 30 26 24 24 27 28 27 25 22 21 23 23 20 21 34 39 41 42 44 46 47 48 51
53 55 56 54 53 51 47 46 47 47 36 39 44 44 42 41 37 31 27 26 26 27 28 25 23 28 27 24 24 24 24 24 24 20 23 27 29 37 40 40 42 44 46 46 48
52 54 55 53 49 49 48 49 49 48 34 35 42 43 41 33 29 33 27 24 27 23 26 25 27 26 26 26 25 23 26 25 25 19 19 21 23 29 36 39 39 41 44 44 45
52 53 54 52 48 49 50 49 49 48 19 24 40 38 30 28 28 28 28 25 22 22 27 24 28 27 26 22 26 24 28 26 26 26 23 24 21 22 33 37 37 37 40 44 45
52 53 53 51 50 48 49 51 53 34 21 29 36 25 26 28 28 25 26 26 25 23 26 24 28 27 25 28 27 28 26 28 29 27 22 24 23 22 30 33 37 35 39 41 45
52 53 53 51 46 51 52 53 40 30 28 30 27 28 24 26 26 26 23 21 20 19 22 25 24 29 30 27 28 28 25 21 19 22 21 29 25 25 26 30 31 31 35 41 44
51 53 53 51 51 51 54 47 34 33 33 36 29 29 25 26 26 26 23 21 22 22 23 21 21 26 31 27 25 26 24 23 17 20 19 30 25 25 30 31 32 33 34 38 44
50 52 52 53 51 50 48 39 33 34 36 25 28 27 26 26 25 24 23 21 21 22 19 24 23 33 32 33 28 26 22 26 29 30 27 24 28 21 27 32 35 36 40 43 43
46 47 49 52 51 49 45 36 36 38 38 37 26 27 25 25 24 22 23 23 22 23 25 28 24 33 33 33 33 26 28 21 27 21 21 22 20 21 27 29 35 38 37 42 48
45 43 47 52 52 45 36 35 35 37 39 39 35 27 26 25 25 23 22 22 25 24 28 33 25 26 33 27 24 26 24 24 26 26 21 20 21 24 26 28 30 31 38 38 47
43 37 51 51 43 40 36 37 37 33 39 40 40 38 30 26 24 24 24 23 29 34 27 32 29 25 24 30 31 28 26 24 24 19 26 25 22 26 23 24 27 30 35 40 43
38 42 50 48 37 37 37 37 37 33 35 37 38 37 34 27 24 27 28 31 38 32 32 34 28 24 24 26 30 28 26 28 29 27 24 22 21 24 25 22 22 30 33 38 44
40 36 44 46 40 36 35 35 37 39 37 38 39 40 36 29 31 30 32 38 39 37 41 35 29 25 22 24 28 26 27 27 27 25 23 24 21 22 24 24 23 23 29 37 44
41 35 39 36 38 37 35 35 35 35 37 36 35 39 38 30 30 30 37 37 38 39 38 33 27 25 25 25 29 26 26 25 24 24 23 23 25 25 23 23 23 25 28 38 42
38 40 40 38 38 36 37 33 33 35 36 34 31 35 33 35 30 29 35 35 34 36 33 34 27 28 29 30 29 26 26 26 26 25 25 24 22 25 27 27 28 28 29 30 33
42 43 42 37 36 35 34 33 33 36 37 35 35 36 36 35 35 33 38 38 36 35 33 31 30 28 23 28 27 24 26 26 25 26 25 23 24 28 30 30 31 33 33 33 34

GFSSW_sfc_dewp_024.txt.gz
Dewpoint
59 59 59 58 57 57 56 56 55 55 54 53 54 55 55 55 54 48 42 43 48 55 54 38 35 35 31 30 28 22 18 15 14 33 35 45 43 47 54 55 55 57 57 60 61
59 59 59 58 57 57 57 56 55 55 55 55 54 55 56 55 49 46 48 53 55 56 34 32 28 30 25 24 26 23 20 18 18 24 38 43 43 46 50 53 54 57 60 61 61
60 59 59 58 57 57 57 56 55 55 54 54 54 54 55 53 41 38 58 56 57 55 33 33 29 25 22 22 22 20 18 19 19 31 43 41 43 46 49 48 52 56 58 60 59
59 59 58 58 57 57 56 55 55 55 54 54 54 54 54 49 28 33 61 58 59 50 34 30 29 26 23 21 22 20 20 20 21 39 42 41 44 44 45 49 55 57 58 58 57
59 58 58 58 58 57 56 55 55 55 54 54 54 53 48 31 27 53 60 59 53 41 34 30 31 29 26 22 21 20 19 19 20 42 42 43 41 43 52 55 56 57 57 56 57
57 58 58 57 57 56 56 55 55 54 54 54 53 52 45 16 40 52 52 46 43 37 33 30 31 31 28 27 20 23 22 25 34 40 41 39 41 46 53 56 54 55 54 56 53
56 58 58 57 57 56 56 55 54 54 53 54 53 48 44 25 43 46 43 39 39 34 31 32 34 31 30 28 29 29 23 29 36 38 40 39 37 45 53 55 53 54 55 55 53
55 56 57 57 56 55 55 54 54 54 53 53 52 47 38 37 43 44 42 39 33 36 34 30 32 31 30 30 27 21 22 26 31 36 37 37 36 46 54 54 52 53 54 53 54
54 55 56 56 55 55 54 54 53 54 53 53 47 47 36 41 37 42 39 35 33 31 32 30 31 29 28 26 19 20 15 25 29 33 36 33 38 43 51 53 52 54 54 52 53
54 54 55 56 55 54 53 53 52 51 50 49 46 35 28 28 37 39 41 36 34 34 33 31 28 26 26 21 18 20 19 27 25 27 33 33 40 43 48 50 51 52 55 54 54
54 55 55 55 55 53 50 46 40 43 45 36 27 24 24 34 40 33 38 37 35 30 28 29 24 23 21 25 25 25 21 20 22 23 30 32 39 41 46 46 47 49 52 54 55
53 53 53 55 55 52 48 43 43 44 41 43 42 37 36 41 40 35 35 29 30 27 29 27 24 24 26 27 26 24 22 21 23 21 23 30 37 42 43 45 45 47 50 53 54
52 52 52 55 53 50 46 45 47 48 41 37 42 42 41 42 38 35 29 28 27 27 27 25 23 27 26 25 24 24 24 23 23 21 26 30 32 39 40 42 43 46 48 50 52
51 51 52 54 49 48 46 50 50 48 31 31 40 42 42 41 32 35 29 25 26 23 27 26 27 25 24 23 24 22 26 25 24 19 19 23 17 28 37 39 40 42 45 47 48
50 51 51 53 48 47 49 48 49 47 17 26 41 41 39 29 28 29 28 25 22 22 24 21 27 26 24 23 25 23 28 27 26 24 23 24 20 21 33 36 39 39 42 45 47
50 51 51 53 50 48 49 51 52 35 18 21 35 34 30 28 28 26 26 26 25 22 28 24 27 28 25 26 26 27 26 26 28 26 21 23 21 22 29 34 38 40 39 42 45
50 51 52 52 48 50 52 51 41 29 25 23 32 28 26 25 25 25 24 23 21 20 22 24 24 28 30 24 28 27 24 21 19 21 20 28 25 24 24 29 35 38 39 39 42
49 49 51 51 50 50 52 45 33 31 27 34 30 26 22 24 23 26 23 21 21 21 22 21 20 25 30 26 23 26 24 23 16 19 18 28 22 21 27 30 30 32 33 36 41
48 48 47 49 52 50 47 35 32 33 35 31 27 25 25 25 25 24 24 23 21 22 19 23 20 30 32 32 27 24 22 25 27 29 25 23 25 21 23 30 35 35 35 34 42
45 45 43 50 52 49 43 35 35 37 39 38 27 28 25 26 23 23 23 24 22 23 24 25 21 31 32 33 32 25 28 23 25 19 19 21 20 18 21 28 34 36 36 39 44
44 40 41 53 52 46 35 35 35 37 39 38 37 34 27 26 25 24 24 23 24 24 26 29 23 23 33 28 24 26 24 25 26 25 20 19 19 25 23 27 26 29 36 37 42
43 33 49 51 42 40 34 36 37 36 38 39 40 39 36 28 26 24 23 24 27 30 25 31 27 23 24 29 30 26 25 25 24 20 25 24 21 24 24 24 24 26 30 37 39
39 39 49 46 34 36 35 35 37 34 34 37 38 39 36 30 24 26 26 29 33 28 29 32 25 22 20 23 29 26 27 27 28 26 24 21 22 22 25 25 24 23 27 35 40
40 33 42 44 35 33 33 33 34 39 35 37 38 40 37 33 31 26 27 36 37 31 40 33 28 21 17 18 26 26 26 28 27 24 24 24 22 21 22 24 24 24 24 31 41
40 33 37 33 35 34 33 33 33 33 36 37 35 38 36 33 29 31 35 37 36 41 35 30 24 25 23 25 28 26 25 27 25 25 23 24 23 24 25 24 24 24 31 40 42
37 36 40 36 34 34 36 33 33 34 37 35 34 35 37 36 32 29 35 34 32 35 33 33 26 26 28 29 28 26 26 26 26 25 24 24 23 26 26 28 29 28 32 35 37
41 41 41 34 34 33 32 33 33 35 36 36 35 33 35 34 34 34 34 37 36 34 33 30 29 26 23 27 26 24 26 26 27 27 26 24 25 27 29 31 31 33 33 33 33

GFSSW_sfc_dewp_027.txt.gz
Dewpoint
59 59 59 59 58 57 57 57 56 56 55 55 55 55 55 56 54 48 39 42 47 55 54 40 35 33 31 31 27 23 21 16 16 21 32 44 43 51 55 53 54 57 57 60 59
60 60 60 59 58 57 57 57 56 56 56 55 55 55 55 55 50 44 48 53 55 57 34 30 31 29 26 26 28 25 23 18 18 19 33 42 44 48 51 52 53 57 60 60 58
61 60 60 59 58 57 57 56 56 55 55 55 55 55 55 53 41 37 58 56 57 55 33 32 31 24 22 24 24 22 21 21 20 20 39 43 43 47 50 49 52 56 57 58 58
58 60 60 59 58 57 57 56 56 55 55 54 54 55 54 49 29 33 61 58 58 50 33 30 28 26 23 21 22 21 22 21 21 31 42 41 45 44 47 48 54 57 57 58 58
56 57 58 59 58 57 56 56 55 55 54 54 54 54 49 32 19 55 61 59 53 41 30 28 28 28 26 23 21 22 21 20 21 38 44 44 43 47 52 55 57 57 57 57 57
55 56 57 59 58 57 57 56 55 55 54 54 54 53 44 25 45 54 53 48 43 37 32 30 31 31 28 28 22 24 21 25 35 41 41 43 46 47 53 55 55 55 54 56 57
54 55 56 57 58 57 56 55 55 54 54 54 53 48 42 26 43 50 45 40 41 35 28 30 33 30 30 29 29 28 24 30 37 40 40 39 40 47 53 53 53 53 54 56 55
54 54 54 55 56 57 56 55 54 54 54 54 52 47 37 36 42 41 44 40 36 37 33 31 33 31 30 31 27 21 23 27 32 37 39 36 37 50 53 53 52 53 54 55 53
54 53 53 54 55 56 55 54 54 54 54 53 48 47 30 40 34 38 41 35 33 33 33 30 32 30 30 26 22 23 17 26 30 36 37 34 39 47 52 52 50 52 53 52 52
53 53 54 54 54 55 54 53 53 51 51 50 46 38 30 24 35 42 41 37 33 33 32 31 30 28 27 23 19 21 20 23 28 30 35 34 40 48 52 53 52 51 51 52 51
52 53 54 53 55 54 51 47 40 42 46 40 35 29 21 33 41 36 40 37 34 32 30 29 27 26 26 27 24 25 21 20 22 24 33 34 38 45 50 51 52 52 54 52 50
51 52 52 52 55 53 50 44 42 45 42 43 42 37 34 40 38 38 38 34 33 29 29 28 27 27 26 26 26 25 22 22 23 22 28 28 33 41 47 49 50 51 52 53 52
51 51 51 51 54 52 48 45 48 48 44 40 42 41 40 40 38 36 35 32 30 28 29 28 25 27 26 25 25 25 24 24 23 22 27 30 27 40 42 47 47 48 50 52 54
50 51 51 52 51 49 46 49 50 50 32 29 36 40 42 42 36 37 32 30 27 28 29 27 26 26 26 25 25 22 25 25 24 21 19 23 15 27 40 41 42 45 46 49 51
49 51 50 53 49 47 48 49 50 48 20 26 40 41 42 33 29 32 31 28 26 26 27 25 27 27 25 25 27 24 29 26 25 23 25 24 19 20 34 39 40 42 44 46 49
49 48 49 51 51 49 50 52 52 37 21 20 36 38 37 31 28 28 29 29 28 26 28 25 27 28 27 26 27 29 27 27 28 27 23 23 21 21 26 34 38 41 43 44 47
48 48 48 51 47 52 53 50 38 32 28 21 32 31 30 26 27 26 28 26 24 24 24 23 24 27 31 26 28 27 28 23 20 23 22 27 25 25 26 28 33 38 42 44 45
48 48 49 47 53 51 51 43 34 31 29 31 29 28 28 25 26 26 26 26 23 23 23 22 21 25 30 27 26 27 27 26 18 21 18 28 25 19 27 30 31 31 34 39 43
47 47 47 49 50 50 47 35 29 32 33 31 25 26 24 24 23 26 26 26 25 25 24 25 21 26 32 32 27 26 26 27 28 30 27 23 24 24 22 26 34 36 36 37 36
45 44 42 48 51 49 42 33 35 36 37 38 29 28 25 26 25 23 26 26 24 25 28 28 22 31 31 32 31 27 28 26 28 22 19 21 23 21 23 23 28 33 36 37 41
44 39 41 48 51 44 33 33 34 37 38 38 37 35 29 28 26 26 25 24 26 24 26 28 27 26 31 29 27 27 27 27 27 27 22 20 19 27 26 26 29 29 32 38 40
41 33 44 46 37 38 33 34 37 34 39 37 39 39 38 31 28 27 27 28 28 29 27 32 31 27 26 28 29 28 28 28 30 23 26 26 22 25 29 28 29 28 29 35 40
37 37 45 43 31 33 35 33 34 35 34 36 37 39 39 34 27 29 28 31 33 30 31 33 28 25 22 23 29 28 27 28 28 29 26 30 24 24 26 27 28 28 27 29 37
39 32 40 41 35 32 32 33 33 36 34 36 37 39 37 35 34 29 29 34 35 32 40 35 29 27 21 23 26 28 28 28 29 28 28 27 25 25 26 25 26 29 29 29 40
40 35 37 32 33 34 32 31 31 32 36 36 35 34 37 33 32 31 35 38 37 41 35 35 28 27 24 22 26 26 26 27 25 28 28 27 25 25 27 28 27 28 36 40 42
36 36 38 34 33 32 33 31 31 32 32 35 33 34 34 36 35 31 35 36 35 37 35 34 30 28 26 28 27 28 27 27 27 26 26 25 25 28 28 27 29 32 37 37 37
41 40 39 33 33 31 29 31 32 34 35 34 34 34 36 35 39 38 37 37 38 36 35 34 33 30 25 28 28 28 30 28 28 28 29 27 30 28 28 31 31 35 34 34 34

GFSSW_sfc_dewp_033.txt.gz
Dewpoint
59 60 61 60 60 59 58 58 57 57 57 57 57 56 56 56 54 44 39 43 43 55 53 33 31 28 26 22 22 20 16 19 15 15 20 26 34 43 47 45 48 57 58 60 60
56 57 58 59 60 59 59 58 57 57 57 57 56 56 56 56 48 35 48 55 54 56 34 24 23 25 22 21 22 17 15 16 18 19 20 29 34 40 42 46 50 56 58 60 60
54 55 56 56 58 59 59 58 57 57 57 57 56 56 55 53 41 34 55 57 56 54 31 20 23 20 20 19 20 20 19 20 20 22 24 31 35 41 41 47 46 54 56 58 59
53 52 52 54 56 58 58 58 58 57 57 56 56 56 55 48 21 41 57 58 57 42 28 22 20 21 21 18 18 18 20 20 21 22 30 35 36 33 45 48 51 57 57 57 57
54 53 52 52 54 57 57 58 58 57 57 56 55 55 50 36 27 50 60 56 40 36 26 21 23 25 21 19 21 20 21 20 22 24 36 38 39 40 49 53 56 57 56 56 56
52 53 54 53 53 55 56 57 57 57 56 56 55 55 44 34 29 44 42 38 31 31 29 27 27 27 27 24 23 24 23 22 22 28 35 38 40 43 50 52 53 54 55 56 54
49 52 53 54 53 54 54 56 56 57 56 56 55 49 41 35 30 39 40 34 30 31 29 28 28 29 29 25 25 24 22 23 25 30 31 38 40 42 51 51 51 53 52 51 56
50 52 52 53 53 53 54 54 55 56 56 55 54 47 38 33 29 37 40 33 32 31 30 30 30 31 30 28 24 21 22 24 31 30 32 40 39 46 49 46 46 47 47 49 51
51 51 51 51 52 53 54 55 55 56 54 53 50 46 34 41 28 31 39 29 30 30 32 28 30 29 28 24 19 20 16 29 30 26 31 38 40 43 47 44 43 43 45 45 49
51 51 50 51 52 52 53 54 55 52 51 49 45 42 38 25 24 22 40 34 29 30 28 29 28 26 22 18 14 17 15 19 25 27 28 30 29 42 45 43 43 42 41 42 44
51 51 50 50 52 51 52 48 46 47 46 33 35 27 21 24 32 25 36 36 34 32 29 31 27 23 21 19 17 21 18 18 23 31 25 27 32 34 42 43 44 42 44 41 41
52 50 50 50 51 51 52 44 39 46 34 31 34 34 34 30 29 25 30 34 33 29 30 29 26 24 21 16 18 20 18 17 20 21 22 21 24 34 39 42 42 42 43 43 41
51 51 50 50 51 49 48 43 46 47 38 30 30 31 28 31 27 24 32 31 29 27 26 26 23 22 20 19 20 19 19 20 18 21 20 20 20 23 30 38 42 42 41 41 42
50 51 50 51 47 40 44 45 46 50 33 19 30 33 31 30 28 24 29 29 27 25 25 24 24 22 20 19 19 18 18 22 19 19 17 20 20 22 24 32 39 42 41 40 41
50 50 50 50 45 45 45 48 51 51 15 13 23 33 29 29 17 26 26 28 25 25 25 24 24 23 21 19 20 20 25 22 22 21 21 18 13 22 18 25 31 37 41 42 42
49 50 50 49 47 45 47 54 52 33 16 17 32 32 33 29 18 22 25 28 26 24 23 24 22 21 20 21 22 22 24 23 24 23 22 19 16 21 17 19 23 29 36 40 41
48 50 49 47 42 44 50 52 34 22 8 12 24 31 30 28 23 22 24 26 24 23 23 23 21 21 22 22 24 24 23 21 21 22 22 19 17 18 25 18 21 22 27 35 41
48 49 48 46 45 46 47 43 21 13 12 23 19 28 29 25 26 25 25 22 23 21 21 20 20 20 23 22 21 23 21 22 24 27 22 22 17 15 19 21 22 21 23 26 35
48 44 44 45 49 46 43 33 25 14 8 13 22 27 27 24 23 23 23 20 20 20 20 20 18 19 21 23 22 23 24 21 21 25 24 22 18 18 20 17 20 23 27 29 30
46 41 39 46 49 46 38 32 28 20 10 13 17 23 24 24 21 21 22 20 19 19 23 22 19 18 21 24 25 24 25 24 25 26 23 17 17 16 17 16 18 17 24 26 32
45 40 39 47 50 42 31 31 28 24 16 12 20 22 23 25 23 20 22 20 20 18 21 23 23 21 26 24 21 24 25 26 24 24 25 21 18 21 19 19 20 21 22 24 30
42 34 42 47 38 37 32 32 27 24 20 23 27 28 22 24 27 21 21 22 23 22 22 25 24 25 23 23 21 22 24 25 28 25 28 30 23 20 21 22 23 22 23 26 31
38 38 47 45 32 33 32 27 24 19 25 22 24 32 32 26 25 28 24 24 28 26 25 27 25 26 22 20 24 23 27 27 27 28 29 34 22 21 22 22 23 24 24 27 29
39 33 40 42 38 31 29 27 24 23 19 23 22 28 28 32 31 28 28 29 29 27 37 34 25 23 24 20 20 23 21 22 25 31 28 27 22 21 21 22 22 24 26 27 29
38 35 38 33 35 33 29 25 22 19 17 23 23 29 29 24 26 28 31 30 33 35 32 31 28 26 22 18 17 16 18 20 21 24 26 25 21 19 20 22 21 29 29 28 31
34 35 38 34 36 32 30 25 21 19 19 23 25 28 35 34 30 34 33 34 29 31 32 33 28 26 22 19 16 16 15 16 18 20 21 21 21 20 20 21 23 25 29 31 36
41 36 34 32 34 31 30 27 22 23 23 23 23 26 27 28 36 42 41 40 39 36 34 31 33 30 27 21 20 25 21 19 18 16 19 21 21 20 19 23 26 25 31 34 38

GFSSW_sfc_dewp_036.txt.gz
Dewpoint
57 57 58 59 59 59 60 59 58 58 58 57 57 57 57 56 54 43 43 44 47 56 51 35 30 27 26 24 21 19 16 16 20 16 19 20 28 45 47 46 45 54 57 59 60
53 54 55 56 57 58 58 59 59 58 58 57 57 57 56 55 48 40 50 57 56 56 32 25 23 23 23 21 19 18 16 20 17 20 20 22 29 37 44 44 47 47 57 60 60
53 53 53 52 55 57 57 57 58 58 58 57 57 57 56 54 43 38 57 56 56 53 36 30 22 22 20 20 18 17 16 21 18 22 22 26 31 37 45 43 46 49 55 58 58
52 52 53 52 53 54 56 56 58 58 58 58 57 57 56 50 29 43 58 57 57 40 34 22 19 19 20 18 17 15 18 18 19 22 24 32 36 35 48 43 50 55 56 56 57
49 52 53 52 52 54 54 55 56 58 58 57 57 57 51 38 35 50 59 56 39 33 32 21 19 21 22 21 17 16 17 20 19 22 28 32 35 43 49 55 55 55 55 55 56
49 49 50 53 53 54 53 54 55 56 57 57 57 56 48 37 33 49 44 38 29 28 27 21 22 26 25 24 20 23 23 21 19 21 29 33 40 42 50 53 54 54 54 55 54
51 49 51 51 53 53 53 53 54 55 56 57 56 51 46 41 32 31 39 34 29 27 26 27 27 26 27 27 23 21 21 19 21 22 29 35 32 38 48 49 50 51 51 51 53
51 51 50 48 51 52 53 53 54 55 56 57 55 49 42 38 37 35 35 35 30 27 29 28 28 28 28 28 25 21 19 18 25 27 36 37 38 38 43 48 48 45 47 46 49
53 51 51 50 48 51 53 52 52 54 56 55 51 48 36 40 34 30 32 34 30 29 30 28 28 26 25 24 20 19 15 19 25 28 37 39 40 40 44 44 45 44 45 49 51
52 52 51 50 50 50 51 50 50 54 53 50 47 39 38 28 29 29 29 35 28 28 28 29 25 23 22 21 17 17 20 20 26 26 27 39 42 46 48 40 41 40 44 45 48
52 52 52 50 50 50 48 45 42 49 49 39 35 28 21 32 26 24 24 34 29 27 26 26 23 21 21 22 18 16 21 22 23 27 26 28 41 48 49 40 40 39 40 41 43
51 51 52 51 50 51 47 43 35 43 38 33 37 35 34 33 26 26 25 33 30 26 26 25 25 25 23 22 18 16 16 19 21 26 23 17 33 45 48 41 38 40 42 40 41
50 51 50 51 51 48 44 41 42 44 37 24 21 23 23 28 29 26 22 32 29 28 27 26 26 27 22 20 18 17 17 16 19 24 22 19 16 37 41 38 39 39 43 42 40
50 51 49 50 46 42 39 39 41 46 32 12 14 26 24 25 25 27 24 27 29 26 26 24 25 23 21 19 16 16 16 20 22 21 15 23 19 25 30 32 37 38 40 41 42
50 51 49 50 45 42 48 51 48 49 15 2 8 27 28 26 23 25 26 27 26 24 25 24 24 22 23 17 17 18 23 23 22 19 22 21 20 17 23 23 31 38 40 41 41
50 50 49 46 47 44 46 50 49 33 15 6 28 27 26 28 25 22 24 26 27 24 24 23 22 22 23 20 19 19 23 24 24 21 23 24 18 17 20 22 25 33 39 40 41
50 49 48 40 43 45 51 50 35 21 6 3 23 29 26 26 25 25 23 23 23 23 25 21 20 22 22 19 21 21 22 21 20 21 25 23 19 22 24 29 33 34 36 44 41
49 49 47 40 44 49 48 41 19 11 15 8 9 21 28 27 27 25 22 21 24 22 22 21 19 21 21 20 19 22 22 24 23 27 26 33 23 17 24 26 23 24 38 40 40
49 48 46 45 46 49 42 31 23 10 5 13 13 20 22 27 24 25 22 23 23 24 22 22 19 20 21 21 21 23 22 23 23 31 31 35 29 19 21 21 19 20 25 33 31
48 46 43 46 47 48 37 32 28 16 9 10 10 12 16 25 24 23 22 22 23 24 25 24 22 21 21 21 23 22 21 27 26 24 25 22 23 19 24 19 18 21 25 29 34
46 40 42 46 49 42 31 31 27 24 19 16 17 16 13 15 23 24 23 22 24 22 23 23 26 24 24 21 19 21 22 27 29 26 29 26 23 29 28 22 23 24 27 30 34
43 35 42 46 37 37 33 28 30 24 23 21 19 18 16 18 23 28 24 24 24 24 22 24 27 25 22 21 22 22 24 24 27 26 30 36 26 26 30 27 28 27 27 29 33
39 39 45 43 30 32 32 33 26 25 24 22 21 21 20 27 34 35 33 30 28 27 24 26 24 25 24 23 24 22 21 25 29 31 30 34 27 27 25 24 24 27 26 29 32
39 33 40 41 35 31 31 31 27 26 24 21 18 20 21 27 33 36 37 31 35 27 39 38 27 24 25 23 26 24 21 21 28 31 31 31 28 29 28 29 27 27 28 28 31
39 34 38 33 34 32 31 26 26 24 24 24 21 22 21 23 30 34 37 38 36 37 30 36 28 26 24 21 22 21 20 19 20 31 30 31 30 29 28 29 32 30 32 28 30
32 37 38 31 35 32 31 29 24 24 23 21 23 19 21 22 30 33 39 39 36 36 31 36 29 29 28 25 20 21 20 19 19 19 19 22 22 24 26 29 32 31 28 29 30
39 42 36 33 34 32 31 30 28 27 26 22 22 22 24 22 31 39 44 43 41 39 37 33 33 30 28 27 24 23 23 19 19 19 21 22 25 24 23 22 23 28 26 29 35

GFSSW_sfc_dewp_039.txt.gz
Dewpoint
55 55 55 56 56 57 58 58 58 58 59 58 58 58 58 57 56 48 45 48 50 58 52 38 30 28 27 25 25 22 15 16 16 19 20 30 33 44 50 48 50 54 55 58 60
53 53 53 53 54 55 56 57 57 58 59 58 58 58 57 57 51 44 49 58 57 58 31 30 29 29 24 24 23 18 17 17 19 22 21 23 36 46 44 46 47 55 58 60 59
52 52 52 53 54 54 54 55 56 57 56 58 58 58 57 56 47 39 56 57 58 55 34 34 35 23 22 21 20 19 17 17 19 24 24 32 38 46 43 42 46 50 55 58 58
49 49 52 52 53 54 54 53 54 55 56 57 58 58 57 53 30 43 58 57 57 43 36 34 24 18 20 18 20 15 17 17 19 23 25 32 41 48 45 47 48 55 57 57 57
49 49 49 49 51 53 53 53 53 54 55 57 57 58 53 45 40 50 58 56 45 37 35 33 24 20 19 23 25 16 17 18 22 20 28 41 46 51 54 54 55 56 56 57 56
52 49 48 49 49 50 52 53 53 53 54 55 57 57 51 43 39 50 48 43 36 31 29 32 24 22 27 25 26 24 23 22 22 20 32 38 43 49 54 55 54 54 55 56 55
52 52 51 48 48 49 51 52 52 53 53 55 56 54 49 43 39 45 42 38 34 29 27 29 27 28 27 27 30 27 24 22 21 20 35 33 34 44 51 54 53 53 53 54 54
52 52 52 51 50 50 50 51 51 52 52 54 57 51 45 42 41 40 38 38 35 31 28 29 30 30 31 29 27 24 22 20 20 34 37 32 36 40 46 50 49 50 49 52 53
52 52 52 52 51 50 50 50 50 51 52 54 53 49 44 44 40 39 36 34 37 33 30 28 31 29 28 25 24 24 19 18 18 28 38 36 38 40 48 51 46 47 45 47 52
52 52 52 52 51 51 50 50 49 50 52 52 50 44 44 32 34 35 33 30 36 32 31 30 28 25 24 23 21 22 19 27 24 30 37 40 40 40 43 51 47 45 47 49 50
51 51 52 51 51 51 49 44 42 48 49 45 42 35 32 34 33 31 31 29 35 30 27 29 26 23 22 23 23 21 18 19 25 30 33 38 40 36 39 47 47 44 45 50 47
51 51 51 51 51 51 48 42 41 40 39 43 45 43 43 42 35 31 26 27 33 28 27 27 25 25 25 24 23 23 20 17 19 29 29 37 38 37 41 46 42 41 44 48 47
51 51 51 50 51 48 44 42 42 40 39 35 36 30 27 27 30 31 24 25 32 29 26 25 26 26 25 25 24 22 19 18 22 25 24 24 40 43 44 44 45 40 40 45 48
51 50 50 49 47 44 41 45 49 44 37 27 18 22 22 22 26 26 30 26 33 29 27 27 27 26 26 26 22 18 19 19 21 24 21 21 20 41 41 41 43 40 40 42 48
50 51 50 49 45 43 44 44 44 47 10 16 14 19 19 22 26 26 28 28 29 30 28 27 27 26 26 24 23 20 25 29 28 25 23 22 22 23 38 39 39 41 42 43 45
50 50 50 47 46 44 45 45 48 35 24 16 26 27 26 21 23 26 25 28 26 29 28 26 27 25 24 25 23 21 27 28 27 25 22 22 24 25 34 36 38 40 42 42 42
50 50 48 43 39 45 49 46 34 24 6 -0 24 26 27 27 23 25 26 24 23 22 24 24 24 24 24 24 24 22 23 22 21 22 22 31 28 27 26 30 30 38 39 42 42
50 49 49 44 42 43 47 39 27 17 16 14 13 25 27 26 27 27 25 24 23 24 24 22 22 23 24 23 22 22 23 26 19 23 25 31 26 27 31 34 31 38 38 39 41
49 48 47 45 44 47 42 30 24 22 14 11 9 12 15 28 27 26 25 25 25 22 22 24 22 23 21 22 21 21 23 24 25 34 29 32 32 33 30 28 29 29 35 36 38
47 45 43 45 45 45 37 29 28 27 20 18 13 15 11 18 26 27 27 25 25 22 24 27 24 24 23 22 24 22 25 25 28 26 24 29 30 29 27 25 24 22 31 34 38
46 40 43 45 46 39 31 29 27 28 28 26 19 14 13 18 18 18 25 25 24 24 24 23 24 25 26 22 20 24 22 28 30 31 26 23 24 30 31 29 24 18 25 29 33
44 35 42 44 36 36 31 31 32 25 28 28 26 23 21 21 19 20 32 33 36 31 24 25 28 23 22 26 23 22 22 24 30 27 31 31 25 29 29 30 27 24 24 28 36
40 39 45 41 30 30 31 31 31 30 27 26 25 24 24 22 20 35 37 39 41 38 34 26 24 22 22 21 23 21 23 25 28 32 28 26 28 30 30 30 24 24 24 29 31
40 32 39 40 33 29 28 29 29 31 32 28 25 25 24 24 24 32 36 37 41 40 43 40 24 22 21 22 26 26 26 24 24 28 28 29 29 31 32 31 29 31 32 29 29
39 33 36 32 33 31 29 28 27 29 29 29 25 25 24 22 22 27 34 38 38 41 42 41 29 23 21 24 25 25 25 26 23 26 28 30 31 31 32 30 29 33 30 31 31
32 34 38 31 34 32 31 27 26 27 26 26 23 24 24 22 22 22 35 39 39 41 40 41 32 30 27 22 23 23 26 26 23 24 29 29 28 31 30 31 36 31 31 29 29
42 40 35 34 33 33 31 30 28 29 29 27 26 24 24 25 29 39 40 42 43 38 36 40 36 29 24 29 26 24 26 24 25 24 23 27 29 29 28 30 31 31 31 30 30

GFSSW_sfc_dewp_042.txt.gz
Dewpoint
54 53 53 54 54 54 54 55 55 56 56 56 57 58 58 58 56 50 43 44 51 57 54 37 32 30 29 27 26 21 18 15 15 17 20 34 37 47 49 47 51 54 56 58 60
52 51 51 52 54 54 54 54 54 54 56 55 55 57 58 57 53 47 49 58 59 59 31 26 32 30 27 24 24 20 17 16 18 21 21 35 42 47 45 47 52 54 58 59 60
51 51 50 50 52 53 54 54 54 53 54 55 56 57 57 56 47 39 59 59 60 56 32 33 36 33 24 22 21 19 18 18 18 22 26 45 46 45 40 41 47 51 56 58 58
53 51 51 50 49 49 51 53 53 52 53 53 54 55 56 54 18 42 58 57 58 42 34 36 32 20 20 18 20 18 20 18 17 24 28 38 47 49 47 47 50 54 57 57 56
53 53 52 51 49 49 49 51 52 53 52 52 53 54 53 47 43 45 59 56 46 38 33 31 33 24 19 18 24 24 19 20 22 27 43 46 49 52 53 54 55 56 57 56 56
53 52 52 52 51 50 51 51 51 52 53 52 52 56 51 42 36 41 49 44 36 32 29 34 33 26 21 26 26 28 28 25 22 23 46 50 52 50 53 54 54 55 56 56 55
52 53 53 52 52 52 51 51 51 51 51 51 52 53 46 43 41 39 41 38 35 32 25 29 32 27 29 26 31 27 23 23 22 23 36 39 38 46 54 54 53 54 55 54 54
52 52 52 52 52 52 52 51 51 51 51 52 52 51 43 45 45 44 43 41 39 35 31 30 30 29 29 31 27 24 24 20 20 34 35 32 32 43 54 53 51 52 53 53 53
52 52 52 52 52 51 51 51 51 51 51 52 51 49 43 48 43 43 38 35 36 37 33 29 30 27 28 25 23 26 20 21 21 27 36 34 35 39 50 52 50 50 51 52 52
52 52 52 52 51 51 51 51 49 51 49 51 51 44 43 29 36 35 38 33 34 38 35 29 28 25 25 23 19 21 21 19 20 33 36 37 35 41 46 49 47 48 45 52 52
52 51 51 52 51 51 49 44 38 44 48 46 44 40 33 34 41 34 34 32 31 32 28 29 26 24 23 24 23 23 22 20 20 29 35 36 35 38 46 50 47 46 45 46 51
51 51 51 51 51 51 48 42 40 38 34 37 42 44 43 42 40 37 33 27 30 31 28 27 25 26 27 26 25 24 22 22 20 27 30 36 36 38 44 47 50 45 46 48 51
51 51 51 50 50 48 45 42 41 42 37 34 36 38 40 40 40 36 33 27 31 32 28 25 26 27 27 25 24 24 23 22 17 24 26 36 34 37 39 45 45 48 45 48 51
51 51 50 49 45 45 42 44 44 46 33 25 27 28 30 27 27 26 30 25 29 30 31 26 26 25 26 25 24 23 26 22 19 23 20 24 20 39 38 40 42 44 43 49 49
51 51 50 49 43 41 43 41 45 42 -6 5 20 28 29 20 21 25 27 27 24 31 30 29 28 26 25 25 26 26 28 23 25 24 23 22 20 22 38 38 39 43 41 45 48
51 51 50 47 45 44 43 44 47 32 16 20 20 21 22 20 25 26 26 31 29 31 31 29 29 27 27 27 27 26 25 26 27 25 22 23 22 24 36 35 37 41 40 45 48
50 50 49 45 38 42 42 46 34 25 14 4 22 27 23 20 21 25 25 25 24 24 25 28 29 29 27 25 26 24 23 22 21 22 22 27 28 27 29 35 38 40 41 41 47
50 50 49 46 44 43 44 39 28 20 13 15 16 13 25 25 22 23 25 24 24 25 23 21 23 25 26 24 24 24 23 23 19 22 21 31 24 25 30 33 35 39 41 42 42
50 49 47 46 44 47 39 31 26 24 22 15 8 8 13 18 27 24 26 24 25 24 24 24 22 24 24 24 24 24 22 25 24 31 27 28 29 30 31 29 31 33 39 40 42
47 46 44 45 45 44 35 29 28 28 24 26 19 15 14 16 23 26 27 28 27 27 25 26 24 26 23 25 24 22 24 23 27 21 23 27 27 25 28 26 29 29 38 39 41
46 40 44 45 45 39 29 29 27 28 28 27 24 24 19 18 20 22 24 29 31 29 26 24 24 24 26 26 22 23 22 28 27 29 24 24 24 32 30 30 30 28 26 35 37
44 35 44 45 35 34 29 29 33 29 30 28 29 27 22 23 22 21 26 27 40 38 35 34 26 22 21 22 25 23 22 26 25 26 29 27 24 30 30 32 30 26 23 29 32
40 38 45 40 29 30 29 29 30 30 28 28 27 28 27 24 23 25 29 42 42 40 39 39 34 23 22 23 25 23 23 23 30 32 28 26 26 31 31 29 29 24 24 27 36
39 32 39 40 34 29 27 26 27 30 30 30 30 30 26 26 25 25 30 38 42 42 44 43 38 32 24 22 24 25 22 23 25 27 25 27 26 30 30 31 30 28 29 27 32
38 32 36 32 33 32 29 27 26 26 30 31 30 28 27 25 23 23 27 38 40 43 42 42 37 36 35 32 24 22 24 25 24 26 25 26 29 29 30 31 32 31 29 29 29
33 34 37 33 34 33 31 28 26 27 27 27 29 27 26 25 24 24 26 27 35 40 38 40 36 35 32 32 27 22 21 25 24 26 26 25 26 32 32 33 32 31 30 29 28
42 40 37 34 35 33 30 28 28 28 29 28 28 28 25 25 27 33 35 38 38 37 36 37 35 33 28 31 28 24 23 22 28 27 27 27 30 31 30 31 32 31 31 30 30

GFSSW_sfc_dewp_045.txt.gz
Dewpoint
52 53 52 52 53 53 53 53 53 53 53 53 54 55 55 56 55 50 41 42 52 58 54 34 32 30 29 26 26 23 20 17 16 16 19 35 39 48 49 48 52 55 56 58 60
53 50 50 51 52 51 52 53 53 53 53 53 53 55 55 55 52 48 49 57 59 58 30 27 31 29 27 25 24 22 18 17 18 18 21 34 41 46 47 46 51 53 57 59 59
51 52 51 52 51 50 51 51 52 52 52 53 53 54 54 54 44 30 57 58 60 58 30 27 34 30 27 23 22 20 19 20 19 19 28 43 45 45 41 41 46 50 54 58 58
51 51 51 51 52 52 51 51 51 51 51 51 52 53 54 53 7 40 58 59 60 46 32 32 33 25 19 18 20 18 19 19 20 21 41 43 46 48 46 44 47 51 56 56 56
52 52 51 51 51 53 52 51 52 52 51 51 51 52 51 45 42 44 58 56 48 35 29 30 29 21 17 17 24 22 24 26 24 26 40 47 48 49 50 52 54 55 57 55 55
52 52 52 51 51 52 52 52 52 52 52 51 51 52 48 40 35 40 50 46 35 33 31 32 28 26 23 23 25 27 27 27 25 40 48 47 50 50 52 54 53 55 55 56 56
51 52 52 52 52 52 52 51 52 52 52 51 50 49 46 40 42 41 41 38 35 31 25 30 33 30 29 27 29 29 23 23 22 29 42 45 42 48 53 54 53 54 55 54 53
49 51 52 52 52 52 51 51 51 52 52 51 51 50 42 45 45 45 44 41 40 37 33 30 32 30 29 29 26 24 25 20 22 33 36 32 31 41 53 53 52 52 53 53 52
53 52 52 52 51 51 51 51 51 52 51 51 49 48 41 47 44 45 42 35 35 38 35 31 30 28 28 24 22 24 17 21 22 25 34 33 32 39 53 53 51 51 51 52 51
52 52 52 52 51 51 50 50 50 50 49 48 51 42 40 32 36 37 42 35 32 37 36 33 28 25 24 22 17 17 21 25 20 23 35 34 33 40 52 52 50 49 50 51 51
52 52 52 52 51 51 48 44 35 40 40 42 42 41 38 39 42 38 37 33 32 34 31 28 25 24 24 24 23 23 23 21 21 22 30 33 34 36 46 50 48 48 47 50 51
51 52 52 51 51 51 48 42 39 40 37 39 36 37 43 44 40 36 36 28 30 29 30 27 24 26 26 26 25 24 23 22 23 23 27 30 34 37 44 49 49 46 47 45 51
51 51 51 51 51 46 45 42 43 43 39 38 37 33 29 40 39 37 38 29 28 30 29 28 26 28 26 26 25 24 24 23 22 22 31 34 30 37 38 45 49 49 46 45 48
51 51 51 50 43 43 42 42 40 44 32 21 31 30 33 37 36 34 34 27 28 26 31 28 28 26 27 24 25 23 25 25 26 22 21 27 22 24 37 39 44 46 47 46 48
51 51 50 50 41 40 39 41 41 44 -7 5 23 28 32 25 21 30 30 27 24 31 31 31 27 26 25 24 26 25 28 27 27 22 23 22 19 20 38 37 40 42 45 46 48
51 51 50 48 44 44 44 42 45 33 10 15 20 27 28 25 22 26 26 30 28 27 31 30 29 27 26 27 27 28 28 26 27 25 22 22 21 21 32 34 36 39 42 44 47
50 50 49 45 39 42 42 43 34 25 18 6 16 24 23 22 20 25 24 25 24 24 24 27 29 30 30 27 29 27 23 21 19 21 21 24 27 26 26 33 36 37 40 43 47
50 50 49 47 44 43 41 38 26 24 22 17 13 10 24 20 19 24 24 20 25 24 23 21 21 27 30 28 26 26 24 23 18 21 19 30 26 25 30 30 32 37 38 41 45
49 48 47 46 44 44 36 29 25 27 24 24 19 8 12 18 26 23 23 24 22 24 22 23 21 24 26 26 27 26 23 25 23 28 25 25 27 28 31 30 31 34 40 41 43
46 46 44 46 45 42 33 27 28 30 28 25 22 22 17 18 22 26 28 29 27 26 26 26 23 26 25 25 26 24 25 22 26 20 22 24 27 24 24 24 28 30 33 39 42
45 40 44 46 46 38 27 25 27 28 29 28 25 21 21 20 22 21 23 33 35 34 30 25 25 24 25 25 22 23 23 26 25 26 19 18 21 31 27 28 28 28 31 39 41
42 34 45 45 35 35 28 26 30 28 30 28 29 29 26 24 21 21 21 23 40 38 36 38 29 24 22 24 24 25 24 25 23 22 28 25 21 28 30 31 32 32 30 28 39
37 37 46 42 30 30 29 27 29 30 29 29 28 30 26 23 20 24 25 39 41 40 36 36 35 27 23 23 25 22 22 23 29 29 23 24 21 30 29 30 30 28 26 25 31
37 31 38 40 35 29 29 28 27 30 29 30 30 30 27 26 26 23 27 30 42 41 44 42 37 35 32 33 35 31 28 23 25 25 24 24 24 26 30 30 30 29 28 25 27
37 32 37 31 33 32 29 27 26 26 29 30 27 28 27 26 24 23 25 32 38 43 41 39 32 36 35 32 31 30 32 30 24 23 23 24 26 26 29 30 30 32 30 29 27
32 34 38 35 35 34 32 28 26 25 26 27 29 30 28 25 24 23 26 26 30 37 37 40 30 35 31 30 29 28 29 29 28 24 26 25 25 30 30 32 31 32 32 29 29
40 40 38 36 35 33 30 29 29 29 29 28 29 28 27 28 29 28 29 28 32 35 36 37 35 32 26 31 28 23 30 28 27 24 27 25 27 28 31 32 32 31 32 31 30

GFSSW_sfc_dewp_048.txt.gz
Dewpoint
53 52 52 52 52 51 51 51 51 51 51 52 52 52 54 53 53 51 40 39 50 57 52 35 31 31 28 27 25 23 20 18 18 16 16 36 38 46 48 48 52 54 56 56 58
52 51 52 52 53 52 52 52 52 51 52 52 51 53 54 54 50 49 48 57 58 59 32 29 30 27 26 25 24 22 20 18 19 17 19 29 37 43 47 45 50 51 56 58 59
50 51 51 51 51 53 53 53 52 52 52 52 52 53 53 53 45 23 57 58 59 54 29 25 32 30 27 23 22 21 20 20 20 19 19 27 43 47 44 40 44 49 54 57 58
50 50 50 50 50 51 52 52 53 53 52 52 51 52 53 52 4 38 58 60 61 45 30 31 32 28 21 21 21 18 20 19 20 21 28 42 45 44 41 43 46 50 55 56 56
51 51 50 50 50 50 52 52 52 52 52 51 51 51 49 44 38 41 57 58 49 34 27 30 28 21 17 18 20 19 21 25 25 26 29 45 45 46 48 50 53 55 56 54 55
51 51 51 50 50 50 52 52 51 51 52 51 51 51 47 36 33 42 41 46 37 32 30 30 28 26 21 21 23 26 26 26 25 25 46 45 48 48 49 53 52 55 54 54 55
52 51 51 50 51 52 52 51 51 50 50 50 51 48 43 37 40 41 42 38 36 31 25 29 30 29 28 27 28 28 23 23 22 23 41 46 39 46 51 53 52 53 53 54 55
52 52 52 52 52 52 52 51 50 50 50 50 51 48 40 44 46 45 43 40 39 36 35 33 32 29 28 28 25 24 24 20 21 33 36 37 29 35 52 52 51 53 52 52 53
52 52 52 52 52 51 51 51 50 50 51 51 47 45 38 46 44 44 42 35 32 37 36 32 30 27 27 24 22 22 17 18 20 24 33 32 32 40 52 52 51 51 51 51 51
52 52 52 52 52 51 51 50 48 49 48 48 47 38 33 19 36 39 44 39 32 36 35 33 30 25 24 22 19 20 20 23 20 22 33 33 33 37 51 52 51 49 50 51 50
51 52 52 52 52 51 48 43 36 37 39 40 40 38 35 42 42 39 38 35 33 35 31 32 27 24 24 24 21 20 22 20 20 22 23 22 25 26 48 51 50 49 48 49 50
51 51 52 52 52 51 45 41 39 40 37 39 38 38 38 40 38 29 36 28 30 28 30 26 25 26 26 25 24 23 22 21 21 24 23 24 27 33 43 48 50 49 48 48 50
51 51 51 51 51 44 43 43 41 40 39 36 37 36 32 33 32 30 36 29 28 29 30 26 27 27 26 25 24 24 22 22 21 24 25 31 27 33 38 44 49 49 47 47 47
50 51 51 51 43 42 39 42 41 41 31 25 33 32 31 37 34 30 33 29 29 26 30 30 30 27 26 24 24 22 26 25 24 24 21 28 22 23 29 37 44 46 49 46 45
50 51 51 50 42 41 39 43 40 44 -5 7 26 30 35 23 18 29 32 30 27 29 31 29 29 28 26 25 25 24 27 26 26 24 22 22 21 21 37 32 36 40 45 48 47
50 50 51 47 47 44 44 41 44 30 11 11 21 29 31 29 24 28 29 30 28 29 32 28 30 28 27 27 26 28 27 27 27 26 22 23 21 21 25 30 31 36 40 44 47
49 50 49 46 40 42 42 42 31 23 23 12 14 21 23 25 24 24 24 26 23 23 23 26 29 30 28 26 29 27 24 21 19 22 22 23 22 22 24 27 32 31 36 41 46
48 49 48 48 44 43 40 36 24 25 25 24 21 20 20 22 20 24 21 20 24 25 24 21 20 28 30 28 27 26 25 23 19 21 18 27 24 25 29 29 30 33 36 38 43
48 44 45 47 44 44 36 26 23 25 26 24 22 16 18 19 25 23 21 20 21 25 21 22 21 24 27 29 29 27 24 25 22 26 24 23 25 27 29 30 31 31 32 37 42
43 43 42 47 45 43 33 25 27 29 29 28 21 23 19 19 20 23 27 33 27 25 27 26 22 26 26 26 27 25 26 23 25 19 20 22 26 22 25 27 27 26 29 36 41
42 38 44 46 47 39 28 28 25 24 27 28 27 23 22 19 20 18 20 33 37 35 28 25 25 24 25 25 22 24 24 25 25 25 20 19 20 30 26 26 26 28 29 31 41
41 33 45 46 36 34 29 27 29 26 31 29 29 28 26 25 21 19 20 31 40 39 34 37 28 23 22 24 25 24 24 25 24 21 27 24 21 26 30 29 32 32 32 32 38
36 37 46 45 30 30 32 29 27 29 29 29 29 30 29 22 18 24 28 36 35 39 37 37 34 28 25 25 33 30 27 30 27 27 23 23 22 28 29 29 29 30 29 29 28
36 30 38 40 37 31 31 30 26 29 28 29 30 30 27 26 26 24 26 29 38 40 44 40 36 30 29 32 34 32 30 30 32 24 23 23 23 24 27 29 28 29 30 29 27
36 31 37 31 32 33 31 28 28 25 28 29 28 29 28 25 25 23 26 27 29 40 39 36 29 34 35 35 33 30 27 28 27 30 26 26 24 24 27 27 29 30 31 28 27
32 33 36 35 34 34 33 30 27 26 26 27 28 30 28 27 25 23 24 25 24 28 36 37 28 34 31 34 32 28 28 27 29 30 29 27 25 27 28 29 30 31 31 31 29
39 40 38 31 34 32 31 30 30 28 28 26 29 28 27 27 29 30 29 29 28 28 30 34 33 31 25 30 28 24 26 27 27 26 28 27 29 28 27 29 30 30 31 32 32

GFSSW_sfc_dewp_051.txt.gz
Dewpoint
52 52 51 51 53 54 53 53 53 52 51 51 51 51 52 54 53 50 42 37 49 57 52 35 32 32 29 28 26 25 22 19 19 19 18 29 35 44 48 47 51 53 55 55 57
50 50 51 51 52 53 53 53 53 53 52 53 53 52 53 53 50 45 48 55 57 59 32 29 25 27 24 26 25 23 22 20 21 19 19 20 35 36 45 45 47 53 54 57 57
50 50 50 50 50 52 52 53 53 51 51 53 53 53 52 52 42 22 59 59 58 57 32 29 28 29 27 25 24 23 22 22 21 20 20 20 32 44 44 41 45 49 52 56 57
50 50 50 50 50 51 52 52 52 50 50 51 51 52 52 51 -3 34 58 60 60 52 29 34 32 30 26 24 23 21 22 21 20 22 24 25 42 43 43 43 46 49 54 56 55
50 50 50 50 49 51 52 52 52 50 49 49 50 51 48 40 29 38 51 55 53 38 29 30 31 26 22 21 21 21 20 21 23 25 26 42 42 43 45 48 52 55 56 54 55
52 52 51 51 50 51 52 52 52 51 50 49 49 51 45 34 28 41 41 39 42 33 30 29 27 25 21 19 21 24 22 26 26 24 40 39 44 50 47 52 52 55 53 54 54
52 52 52 52 52 52 52 52 51 51 51 49 49 48 41 31 37 39 42 37 37 33 28 30 30 27 28 26 27 27 25 24 23 23 35 46 40 45 49 52 52 54 52 53 54
51 52 52 52 52 52 52 52 51 51 51 50 49 47 37 41 45 44 43 39 37 35 35 32 31 28 28 29 25 24 24 21 21 31 39 38 26 31 50 51 50 52 52 51 52
51 52 52 52 52 52 52 52 51 50 51 50 47 43 31 43 44 43 40 35 34 34 35 33 31 29 28 26 24 24 18 19 19 25 36 35 31 35 52 51 50 51 51 51 51
50 51 52 52 52 51 51 50 48 49 48 48 45 36 35 18 35 39 43 40 30 33 32 33 31 27 26 24 17 20 20 21 19 25 33 32 32 34 50 51 50 50 52 51 50
50 50 52 51 51 51 48 43 38 37 39 38 37 36 34 41 41 40 41 38 33 32 32 33 28 24 24 26 22 21 20 20 21 21 22 23 24 25 36 50 50 50 50 51 51
49 50 51 51 52 50 45 41 39 39 36 38 38 36 38 39 36 34 36 31 31 26 32 29 29 28 26 26 23 22 21 20 21 22 23 23 24 29 38 46 49 50 50 50 51
49 50 51 51 51 44 42 42 41 40 38 34 36 36 35 34 32 30 34 30 28 28 30 28 28 28 26 25 24 24 23 23 20 23 24 28 26 25 32 41 46 50 50 50 49
49 50 50 50 42 43 38 42 43 41 33 27 33 34 32 33 30 29 31 30 29 26 30 29 29 26 25 24 25 23 25 24 22 21 15 27 21 25 25 29 38 41 49 50 49
49 50 50 50 45 41 41 45 43 44 6 10 27 30 33 29 20 29 29 28 29 27 30 27 30 27 25 23 26 23 27 25 24 23 24 24 23 24 27 27 29 34 42 48 49
47 48 49 47 47 45 45 43 44 31 14 17 23 29 29 29 27 30 30 30 29 30 31 26 31 29 26 27 26 28 25 27 28 27 24 25 23 21 21 25 28 30 35 43 48
46 48 47 48 42 43 44 41 29 22 23 18 21 21 20 24 26 26 27 26 22 23 27 29 28 29 29 27 28 26 26 20 21 23 22 24 22 23 25 25 29 29 29 37 47
46 48 46 48 47 46 42 35 22 21 26 26 24 24 17 21 22 23 24 21 25 25 21 21 22 28 31 29 27 27 25 23 18 21 19 25 22 21 28 28 29 30 33 36 42
47 44 44 46 47 46 37 26 23 23 27 27 25 19 19 19 22 23 22 20 20 26 24 24 20 26 30 31 28 27 25 27 25 26 24 24 24 25 27 29 30 31 32 33 36
43 41 41 46 48 44 34 26 25 28 28 28 23 22 19 19 17 18 26 34 32 28 27 27 22 24 25 28 29 27 28 24 26 19 18 21 23 21 25 26 29 30 31 31 34
41 36 42 47 47 39 29 27 26 25 24 26 26 25 24 23 21 17 20 29 34 38 28 27 26 25 25 24 23 25 25 26 26 26 20 20 21 31 29 29 29 29 32 34 35
40 30 45 47 34 35 31 32 29 24 29 27 29 27 26 23 21 20 20 32 32 40 34 37 28 24 21 25 26 24 25 27 26 22 27 27 22 28 31 32 31 32 34 34 35
36 34 44 44 28 29 35 33 28 27 27 28 29 30 29 24 20 21 25 32 30 38 38 38 32 28 25 26 33 32 33 32 32 28 25 25 21 26 29 30 31 32 33 33 34
36 30 36 39 36 32 32 30 28 28 27 29 29 30 27 26 27 24 24 27 31 34 43 40 34 30 25 27 33 30 28 28 29 29 27 26 26 25 28 29 29 30 33 32 34
36 31 34 30 30 33 33 33 27 25 27 28 28 28 28 25 25 24 25 25 26 33 38 36 28 31 28 30 32 30 27 26 26 27 25 24 27 29 30 31 31 31 31 31 32
32 33 36 32 34 33 33 33 28 27 27 26 26 29 29 26 25 23 25 23 24 27 35 33 29 33 31 33 31 29 28 27 26 26 26 29 28 31 32 30 30 31 31 31 32
39 39 36 32 30 31 29 30 31 29 29 27 29 29 29 29 31 31 31 30 29 27 27 29 33 30 24 30 27 24 27 26 24 23 25 21 21 31 31 31 34 33 32 32 33

GFSSW_sfc_dewp_054.txt.gz
Dewpoint
50 50 50 51 51 52 52 52 52 51 51 52 53 54 54 54 52 38 35 36 44 56 54 43 37 29 30 27 28 25 16 11 10 19 18 22 25 31 41 37 47 48 47 52 55
50 51 51 51 51 52 52 52 52 51 51 51 53 53 54 53 45 28 45 53 56 58 38 36 30 26 24 24 24 21 16 14 14 19 19 21 22 23 33 34 41 46 52 54 54
50 50 50 50 50 51 52 52 52 51 50 51 52 52 53 51 32 16 57 59 59 57 34 31 24 21 18 21 23 20 17 16 18 19 22 23 23 26 30 31 37 42 48 53 53
50 50 51 51 50 50 52 52 51 51 50 50 50 51 53 46 1 30 56 60 59 48 32 29 23 18 16 18 19 17 18 15 17 21 24 24 26 30 34 35 43 45 48 51 52
51 51 52 51 51 52 52 52 52 51 51 50 50 50 46 30 14 23 52 52 47 42 30 30 24 17 15 16 22 21 17 19 20 21 25 25 29 30 34 41 46 49 51 52 53
52 52 52 51 51 52 52 53 52 52 52 51 50 50 43 28 20 31 37 35 36 39 37 30 24 21 21 20 21 20 19 19 21 23 24 29 25 42 32 45 48 50 51 53 53
52 52 52 51 51 51 52 52 52 52 52 51 50 45 41 30 24 32 34 30 35 34 29 34 31 26 22 22 22 19 21 21 22 22 21 30 25 36 34 47 47 49 50 51 52
51 51 52 52 52 52 52 52 52 52 52 51 51 45 32 34 34 37 35 29 28 33 34 29 30 28 28 24 24 20 22 18 17 19 23 34 22 22 39 46 45 48 48 50 50
50 51 52 52 52 52 52 51 51 50 51 50 47 43 26 40 35 34 33 28 24 26 34 32 30 27 25 24 20 22 16 19 17 20 23 34 24 27 41 44 41 46 47 48 48
49 50 51 52 52 51 51 51 49 48 47 45 43 38 30 13 30 39 41 39 29 23 34 33 29 23 21 19 17 17 18 15 15 17 24 25 27 25 33 40 43 43 46 46 48
48 49 50 52 51 51 46 40 34 36 35 31 30 31 30 37 38 37 42 41 32 26 27 32 26 22 18 20 19 16 17 14 12 17 20 21 20 21 26 35 41 43 46 47 47
48 49 49 50 51 50 44 39 38 38 35 35 34 34 33 32 33 32 37 34 33 23 23 32 28 24 23 21 19 18 17 15 14 19 19 14 18 21 26 33 39 41 44 47 47
47 49 49 50 51 46 42 42 42 41 34 33 34 34 34 33 27 25 35 31 30 28 17 26 22 26 26 23 21 20 18 18 17 19 20 20 18 19 23 32 37 41 43 45 47
46 48 50 50 45 43 40 42 43 43 34 21 24 30 33 30 26 26 24 30 26 23 24 22 20 25 26 22 21 19 20 21 19 19 11 20 15 17 21 21 30 35 44 45 47
46 47 49 49 45 40 41 43 43 44 11 11 23 31 30 25 23 27 26 20 19 25 26 25 22 23 23 23 21 20 21 23 22 21 18 17 16 15 18 21 20 22 33 43 46
45 46 48 44 46 43 43 45 43 31 9 14 21 21 27 25 24 27 28 22 19 25 27 23 25 23 22 22 23 23 23 23 24 21 20 16 16 12 14 20 20 20 25 36 43
44 46 46 42 41 45 46 39 30 14 17 19 22 23 21 19 24 26 27 23 16 16 21 24 22 28 28 20 25 23 23 19 18 19 18 17 19 18 22 22 23 23 22 34 42
44 46 44 40 43 47 43 34 20 15 19 25 25 21 17 20 21 22 25 21 19 16 11 14 18 24 28 25 23 24 22 19 15 19 16 23 21 20 23 25 26 24 27 31 40
44 41 42 41 45 48 38 28 14 17 23 26 21 17 16 18 18 21 23 22 19 23 15 15 14 24 27 28 24 25 25 24 21 26 24 22 22 23 22 22 24 25 27 29 34
42 39 37 43 48 46 34 23 21 25 28 26 21 23 18 20 16 17 24 30 32 22 26 23 19 22 26 28 28 27 26 25 25 19 18 17 21 20 21 21 22 23 26 26 28
41 36 37 44 48 39 29 24 24 23 25 25 25 24 22 21 20 15 22 26 29 36 31 24 26 25 26 26 25 26 26 25 24 23 20 18 19 25 25 29 30 28 26 29 32
39 31 43 48 36 34 30 26 30 24 26 24 26 26 24 24 22 20 16 25 29 32 30 25 27 24 21 26 26 25 25 25 23 23 25 28 21 26 28 27 28 29 29 30 32
34 32 43 45 29 29 30 31 29 25 24 24 25 28 26 25 21 20 20 26 27 30 35 35 25 19 19 22 26 26 28 28 29 29 25 28 23 24 26 26 27 29 29 30 30
37 31 35 39 36 31 27 29 26 29 26 26 25 28 27 26 25 22 21 22 26 27 39 38 30 24 16 19 25 29 28 27 28 28 25 24 23 25 26 25 26 28 30 30 31
36 32 29 30 30 30 30 31 26 24 27 26 25 25 26 27 25 24 23 23 23 30 34 35 28 26 25 25 24 25 25 25 24 26 25 24 22 23 23 21 27 30 31 30 29
33 31 34 28 29 29 29 29 26 26 27 25 24 26 27 28 28 23 24 25 24 25 29 32 24 26 22 21 26 25 23 22 22 22 22 23 23 24 22 22 23 24 26 30 31
39 38 36 27 26 27 26 27 24 29 29 26 27 27 31 29 30 30 30 31 30 28 28 28 32 25 17 26 23 19 23 22 22 21 20 17 18 18 20 23 26 27 31 35 36

GFSSW_sfc_dewp_057.txt.gz
Dewpoint
50 51 51 51 51 51 52 51 52 51 51 51 51 51 51 53 52 37 24 34 40 54 56 40 42 36 28 23 23 23 18 14 11 10 14 19 20 20 27 27 34 40 42 47 54
50 50 50 50 51 52 52 52 52 51 51 51 51 52 52 52 44 30 46 59 58 56 39 36 37 31 24 22 22 20 16 14 13 11 16 16 20 19 21 26 30 34 42 51 53
50 51 51 51 52 52 53 53 52 51 51 51 51 52 52 49 33 21 55 61 60 56 39 32 33 29 23 21 20 20 16 16 14 14 17 18 19 20 20 23 29 33 37 48 52
51 51 51 52 51 52 53 53 53 52 52 51 51 51 52 44 11 26 53 59 58 44 40 31 30 26 22 18 18 18 17 16 13 14 17 19 21 21 23 26 36 38 42 47 48
51 52 52 51 51 52 52 53 53 52 52 52 52 51 43 32 30 23 50 46 45 43 36 30 27 25 21 16 15 16 16 15 14 13 18 22 22 22 22 26 38 41 46 46 46
52 52 52 51 51 51 52 52 52 52 53 51 51 50 41 30 26 21 29 16 22 39 35 30 28 25 19 15 14 16 19 17 16 16 17 21 22 22 26 29 38 43 46 47 47
51 52 51 51 51 52 52 52 52 52 52 51 51 46 37 29 23 27 32 27 18 15 25 36 32 23 22 19 21 19 18 18 16 17 17 20 19 20 22 28 36 42 45 47 48
50 50 51 52 52 52 52 52 52 52 52 51 51 45 33 25 27 29 31 30 31 19 24 30 30 32 26 24 21 20 19 16 17 18 18 18 20 19 25 33 34 40 43 46 47
49 50 51 51 52 52 52 51 51 52 51 50 47 42 29 34 26 23 31 32 31 20 22 27 28 28 28 24 23 23 17 18 19 18 17 20 22 19 30 34 32 36 41 44 46
48 49 50 51 51 51 51 51 49 49 48 43 39 40 34 14 25 34 37 29 37 26 20 20 26 25 23 22 19 20 19 20 18 18 18 15 21 22 26 30 34 35 39 43 45
46 48 50 50 51 51 48 40 34 39 34 28 27 32 26 30 29 31 40 39 37 30 17 20 19 19 23 25 21 20 19 17 18 15 17 18 16 19 21 22 27 35 37 42 44
45 47 49 50 50 50 48 37 38 39 36 33 32 32 31 30 28 27 37 33 37 33 23 21 20 17 17 19 19 18 19 18 18 15 17 15 12 15 18 21 25 31 36 39 44
45 46 48 50 50 48 40 39 40 41 34 29 29 29 30 31 27 24 31 29 37 34 33 23 19 23 21 21 19 20 20 19 18 16 19 16 13 15 17 20 23 29 31 35 42
46 46 48 49 45 41 38 39 41 43 32 15 20 28 31 29 26 26 22 31 29 31 32 30 20 23 23 21 23 22 21 20 18 18 16 16 11 15 16 18 24 27 29 33 38
45 46 47 48 41 39 39 42 43 43 18 7 23 30 29 26 23 23 21 20 27 25 27 26 21 19 21 22 24 22 22 21 20 20 20 17 14 17 17 16 19 22 26 32 37
44 45 46 40 44 42 41 45 43 35 14 10 17 19 19 22 25 22 28 25 20 23 21 24 26 25 25 22 21 21 21 21 23 22 21 20 16 14 15 16 20 19 20 26 36
43 44 43 39 37 43 45 42 29 19 13 15 17 19 18 19 21 24 26 24 19 20 20 16 23 24 24 22 22 21 22 20 19 21 20 19 17 17 18 20 21 20 20 26 32
43 44 41 36 38 45 44 33 21 10 12 19 19 16 14 18 22 22 26 24 22 21 21 15 20 22 25 23 19 21 22 20 18 22 19 19 17 15 21 22 22 23 22 25 32
43 36 36 39 42 41 39 30 14 11 14 17 14 9 11 18 19 19 22 26 21 20 18 15 10 16 23 24 23 23 22 20 22 24 25 19 21 22 23 21 21 21 22 25 30
33 37 35 39 43 43 36 25 17 18 22 17 11 15 15 19 19 18 23 29 29 26 20 19 15 12 19 26 25 23 23 21 23 21 21 19 23 23 21 21 23 23 24 24 26
35 35 35 40 44 40 31 25 19 17 23 20 17 20 18 20 20 19 23 28 30 30 27 21 24 20 22 24 22 23 24 26 23 23 22 22 20 23 27 28 28 28 27 30 31
36 32 40 44 35 35 30 25 26 20 21 21 23 24 23 22 21 20 19 21 30 32 34 27 27 22 26 22 25 24 25 28 25 26 25 29 23 27 28 27 28 27 28 29 29
32 31 37 44 31 30 27 24 23 21 21 21 20 22 22 22 21 21 20 24 25 28 32 35 25 22 22 25 25 24 24 25 27 28 29 30 24 25 26 25 26 27 28 29 30
37 33 30 41 36 30 25 26 24 26 23 21 19 21 24 23 23 22 22 21 25 25 38 37 33 22 18 22 21 25 26 26 26 27 26 27 26 24 25 25 25 25 29 30 30
36 32 30 30 28 30 29 30 23 24 24 22 21 21 22 21 21 22 25 23 22 29 28 37 32 32 22 25 24 23 25 25 25 26 25 25 25 23 24 24 22 23 23 24 26
35 31 29 27 29 25 27 28 26 24 24 22 22 21 23 22 22 24 25 27 26 24 26 35 32 30 29 24 23 24 24 23 22 21 21 21 21 22 23 23 22 23 21 23 28
36 37 36 28 25 27 27 22 21 23 27 28 25 24 25 25 28 31 32 34 31 28 28 28 28 31 27 25 23 22 23 24 24 23 23 23 22 19 19 18 22 26 30 31 34

GFSSW_sfc_dewp_060.txt.gz
Dewpoint
50 50 51 51 52 52 52 52 53 52 52 52 53 53 53 53 52 39 27 33 39 52 50 32 38 36 34 27 23 21 19 18 17 15 13 19 20 21 19 25 25 33 37 48 54
50 50 50 51 53 53 53 53 53 53 52 53 53 53 53 53 44 35 47 60 60 57 30 23 34 35 32 27 24 20 21 18 17 15 12 14 19 19 17 23 27 27 37 51 53
50 51 50 51 52 52 53 53 53 53 53 53 53 53 53 51 38 26 53 57 59 59 43 21 30 33 32 26 22 20 19 19 16 16 14 14 16 18 18 20 25 37 34 51 52
50 51 52 52 51 52 53 53 53 53 53 53 52 52 53 45 24 30 52 53 57 50 39 27 30 28 28 25 22 18 18 19 17 16 14 14 17 17 19 23 25 34 37 40 48
50 51 51 51 51 51 52 53 53 53 53 51 51 51 46 27 29 30 48 47 47 43 34 32 32 27 26 25 22 18 17 17 17 16 14 14 17 19 20 22 26 36 41 43 45
51 51 51 50 50 51 52 52 52 52 52 52 51 51 43 31 28 27 24 24 14 35 36 33 28 26 25 22 20 18 16 15 15 16 16 13 15 19 21 21 24 36 41 44 46
49 50 50 50 50 51 52 52 52 52 52 52 51 47 40 31 26 26 24 30 28 14 13 16 27 32 27 23 21 18 15 15 17 18 16 17 15 17 20 20 22 33 39 44 47
48 49 50 50 51 51 51 51 51 52 52 52 52 46 37 30 27 22 23 23 26 31 23 17 21 30 30 28 23 18 20 17 17 17 17 17 18 17 19 21 24 31 38 43 45
48 48 49 50 51 51 51 51 51 52 52 52 48 44 33 35 26 23 20 28 30 35 29 20 18 26 28 28 25 22 18 19 17 18 17 17 19 18 19 27 29 29 35 42 45
47 46 48 49 50 50 50 50 49 50 47 44 43 37 38 24 26 28 32 28 31 36 30 28 18 20 26 25 20 19 19 20 19 18 20 17 17 19 23 27 32 30 30 39 44
46 45 47 49 50 50 47 43 33 38 37 33 27 34 29 26 27 26 37 32 37 39 31 28 16 14 24 25 24 22 19 19 20 20 19 20 17 16 18 21 28 30 33 35 43
45 45 46 48 49 49 46 38 35 38 35 34 32 30 29 29 25 25 35 35 36 39 38 34 20 11 16 23 23 23 22 21 20 19 17 16 16 16 15 19 22 25 33 36 40
44 45 46 48 48 46 41 38 37 41 35 31 25 24 26 29 26 23 23 34 31 32 39 35 25 20 17 15 18 20 22 21 19 19 18 17 18 18 14 16 19 25 27 34 38
43 45 47 48 43 39 37 37 41 45 31 28 25 27 31 27 26 24 22 26 26 32 37 38 37 29 29 20 19 20 20 18 19 19 17 18 16 17 16 16 17 22 29 32 34
44 44 46 45 39 34 40 39 43 44 23 10 21 28 27 25 25 20 21 23 25 30 37 37 33 33 28 25 24 22 25 23 22 21 22 18 17 17 17 16 17 23 28 31 34
44 43 45 38 40 40 42 43 44 34 24 11 16 20 18 21 25 21 26 21 17 19 33 31 32 34 26 21 23 23 23 24 24 24 21 20 19 18 17 17 18 20 24 29 33
43 43 41 37 34 40 44 41 35 25 11 10 15 15 14 13 19 23 26 24 17 17 19 23 25 23 29 27 24 23 23 20 21 22 23 21 19 22 22 19 21 22 23 30 36
44 44 40 35 36 43 42 36 24 14 12 14 14 14 11 15 20 22 24 23 22 18 19 25 23 21 25 26 23 24 24 22 21 25 20 20 18 19 22 20 23 23 27 31 34
44 38 37 39 42 42 36 30 17 16 10 11 14 5 3 12 17 19 22 24 23 21 21 24 21 21 25 28 24 25 27 23 25 25 26 26 21 20 21 22 20 21 23 30 31
38 35 32 41 46 40 34 25 22 17 13 18 11 4 10 12 16 16 27 32 29 23 24 21 21 21 19 24 26 26 26 25 24 21 23 24 22 20 24 23 22 24 26 29 32
39 31 33 43 43 39 28 25 22 21 16 19 17 10 14 15 17 18 20 32 31 30 32 22 23 23 22 20 23 24 25 28 28 23 25 26 27 32 30 30 30 31 32 34 35
38 31 37 42 35 33 30 28 27 20 18 16 21 20 20 20 19 19 19 21 27 30 32 35 26 23 25 26 23 23 24 25 28 28 27 30 26 33 34 29 31 31 31 32 34
35 28 35 44 31 29 26 24 23 21 19 18 19 19 19 18 17 19 20 24 25 25 30 31 27 24 22 26 28 24 25 25 28 34 35 32 30 31 28 28 29 30 32 32 33
36 31 28 39 32 29 27 24 23 21 19 20 18 19 17 18 20 20 20 22 24 23 38 32 34 29 23 28 34 31 26 30 30 34 35 35 33 34 34 30 27 29 28 26 28
36 31 29 30 28 28 27 31 24 20 23 20 20 18 17 19 17 18 19 19 22 32 30 35 35 32 30 30 28 28 29 27 28 34 33 30 29 34 36 36 27 25 25 24 27
32 30 25 23 29 30 27 26 23 26 23 22 19 17 19 17 19 18 22 29 24 28 26 36 32 33 31 30 25 23 28 35 34 24 25 30 33 32 31 23 24 25 25 28 33
39 34 35 29 28 24 28 24 19 21 25 30 26 25 20 25 32 32 31 35 34 32 29 30 31 33 28 28 26 24 23 28 30 22 22 22 23 26 22 21 23 29 30 36 37

GFSSW_sfc_dewp_063.txt.gz
Dewpoint
50 50 51 50 51 52 52 53 54 52 52 52 53 53 53 54 53 45 35 39 47 53 51 32 32 38 39 38 34 31 23 18 18 19 19 19 23 24 22 24 32 36 30 54 57
50 50 50 51 52 53 53 53 53 52 52 52 52 53 53 53 49 41 44 55 57 56 38 27 22 36 34 32 30 24 19 18 19 19 19 17 21 19 20 28 28 31 53 55 54
49 50 50 51 51 52 52 53 53 52 52 52 52 53 53 51 41 30 53 55 56 58 50 40 25 25 34 32 30 26 22 21 19 21 22 19 15 19 18 26 29 38 52 53 52
50 50 50 50 50 50 52 52 52 51 51 52 52 51 52 48 25 24 50 53 57 53 49 41 31 20 28 32 31 24 23 21 20 20 19 17 15 18 20 26 36 35 51 52 52
50 50 50 50 50 50 51 52 52 51 51 51 51 51 46 38 35 30 53 50 50 43 38 34 26 27 28 28 28 25 23 21 20 19 19 18 15 18 19 22 33 41 41 43 50
49 49 49 49 49 49 50 51 51 52 51 51 52 50 43 37 34 27 28 27 25 24 33 34 30 29 28 26 25 26 24 21 19 17 16 17 16 17 20 21 21 40 43 44 45
49 48 48 48 48 49 50 51 50 51 51 51 52 46 42 37 34 31 31 28 30 32 16 20 17 19 30 31 27 25 21 19 17 15 14 19 17 14 18 21 21 37 42 45 46
48 48 49 49 49 50 50 50 50 50 50 51 52 47 39 40 39 34 29 24 25 28 30 28 22 19 29 31 30 26 24 18 18 18 19 18 18 18 17 19 20 23 41 45 46
48 47 48 48 49 49 49 50 49 50 51 52 49 46 39 42 36 32 28 22 28 31 31 31 24 19 24 27 27 27 21 20 18 20 18 18 18 18 19 20 23 28 39 44 46
46 46 47 47 48 48 48 48 48 50 49 45 45 43 41 31 28 27 31 32 27 35 36 31 24 16 21 25 24 25 21 19 19 20 19 17 17 19 19 25 31 30 30 43 45
45 45 46 47 47 48 46 43 34 36 36 34 37 39 34 30 26 25 34 33 38 40 36 32 23 18 15 24 25 25 23 23 22 22 24 21 17 18 21 23 31 31 30 40 44
44 44 44 45 47 47 45 41 38 39 35 36 35 33 33 31 27 26 28 35 38 38 40 36 27 26 20 17 26 25 23 23 23 23 24 21 18 18 18 18 23 31 31 32 43
45 44 44 46 46 45 41 38 41 40 35 33 32 31 31 30 28 27 25 36 34 35 39 36 33 30 28 19 13 22 23 24 23 23 21 19 16 18 20 21 19 24 30 33 43
46 45 46 47 41 37 36 41 42 43 32 28 27 26 30 29 28 28 25 22 32 30 38 38 37 33 32 33 23 13 18 20 19 19 18 20 17 19 20 20 19 19 27 34 44
46 45 46 44 39 36 38 39 41 43 21 28 25 30 29 27 27 23 24 24 24 34 38 34 37 36 32 29 29 28 25 24 24 23 21 21 19 19 21 20 17 18 26 29 43
45 45 45 38 38 37 38 40 42 32 21 14 24 25 26 27 27 26 23 25 25 23 33 32 36 39 37 36 35 32 32 28 26 25 23 23 20 20 20 20 22 20 26 29 36
45 45 41 38 34 36 36 40 30 23 21 13 17 19 17 16 24 24 25 19 16 15 17 24 30 31 37 35 33 30 31 25 23 23 23 23 22 21 23 23 24 24 25 29 34
45 45 42 38 37 37 39 34 23 21 23 16 16 16 14 13 20 24 25 24 19 18 19 18 26 25 27 25 32 29 28 27 22 23 22 23 21 21 24 23 24 23 27 32 37
45 40 38 38 39 39 37 25 22 17 15 17 17 15 11 8 17 21 25 25 25 23 19 24 23 26 24 28 29 30 27 26 27 30 28 28 28 22 23 22 21 21 28 34 37
38 37 36 37 41 38 34 23 23 22 22 22 16 15 9 14 17 19 27 34 35 31 25 25 22 24 26 27 31 30 28 28 33 27 26 25 27 29 29 23 27 24 27 31 33
36 33 33 38 39 36 26 25 22 24 23 19 18 19 18 18 19 19 25 33 32 31 32 31 26 23 24 24 26 28 30 36 35 30 25 25 28 34 30 31 30 31 32 31 31
37 26 37 41 32 33 27 25 28 23 26 24 23 23 21 21 22 21 21 29 29 30 31 33 34 24 19 21 24 28 28 35 34 31 32 29 32 37 33 28 29 30 28 31 35
34 29 34 41 29 26 28 25 25 24 25 24 21 21 22 20 20 21 22 31 28 28 30 28 31 27 25 25 28 28 25 31 32 33 34 32 30 40 39 38 28 24 24 30 37
34 27 30 34 32 32 29 27 24 25 23 23 20 21 22 21 21 21 23 27 32 31 37 32 32 32 28 30 36 34 32 26 29 32 32 35 36 40 40 40 37 25 26 34 38
34 28 29 28 26 28 28 27 25 30 25 23 19 19 21 20 21 23 24 23 26 35 34 36 31 33 33 31 33 34 33 30 30 31 35 35 37 37 43 42 37 26 33 37 39
30 28 29 27 27 30 32 27 24 23 30 27 27 22 20 20 23 24 31 30 32 32 33 35 30 33 30 31 30 30 31 30 35 35 34 37 38 44 43 44 41 32 37 38 39
37 34 33 28 27 25 25 27 28 28 25 31 31 32 29 32 34 33 33 34 34 32 32 34 33 31 28 29 32 27 28 34 36 37 35 36 35 42 42 38 35 36 36 37 38

GFSSW_sfc_dewp_066.txt.gz
Dewpoint
50 50 50 50 51 52 51 51 52 52 52 52 52 52 52 53 52 45 35 40 47 54 55 37 37 40 40 39 37 32 27 23 22 21 21 21 21 20 22 35 36 35 47 52 58
49 49 49 50 51 51 51 51 52 51 51 51 52 52 53 53 46 41 46 51 55 56 37 30 25 30 35 37 37 32 27 28 24 22 20 20 20 19 19 30 31 51 56 57 57
50 50 50 49 49 50 51 51 51 50 51 51 51 51 52 51 35 33 48 55 57 58 45 39 30 22 34 34 31 28 29 25 22 22 21 20 21 21 18 21 29 48 54 55 55
50 49 49 49 49 49 50 51 50 50 50 51 51 51 51 47 -10 26 52 55 55 55 51 45 40 22 21 33 33 29 29 26 25 24 22 20 20 18 17 22 30 50 53 52 51
50 49 49 48 48 48 49 50 50 49 50 51 51 51 44 39 36 37 49 42 49 47 42 37 32 24 23 25 30 31 31 30 27 24 22 21 19 19 17 20 36 51 51 51 51
49 49 48 48 47 47 48 49 50 50 49 50 50 50 42 33 36 35 29 32 31 39 30 36 28 22 28 30 29 29 30 29 26 24 21 19 17 17 19 20 39 49 49 51 51
48 48 48 47 46 46 47 49 49 50 49 49 50 48 41 36 38 37 37 34 28 31 29 25 23 19 22 29 32 29 25 24 24 21 19 18 15 16 18 18 20 40 41 46 49
47 47 47 47 47 47 48 48 48 49 49 50 51 46 39 40 41 40 38 33 28 24 28 29 28 21 21 30 29 28 26 22 22 20 19 17 17 18 19 17 17 31 42 44 46
47 47 47 47 47 48 48 48 48 49 51 51 48 44 39 46 41 40 38 31 23 31 33 30 29 21 19 26 26 28 24 22 21 21 20 19 19 20 20 20 17 19 40 44 45
46 45 46 47 47 47 47 47 48 49 48 48 46 43 43 35 32 27 28 27 26 36 36 33 28 17 18 24 24 25 24 21 20 21 22 22 22 22 20 19 21 20 33 44 45
45 44 45 46 46 46 44 43 38 36 37 34 39 40 39 37 33 26 26 32 40 39 34 33 26 24 16 20 26 24 24 24 24 25 25 23 23 26 25 19 22 29 34 43 45
45 45 45 46 47 46 45 40 39 39 35 35 36 35 37 35 31 31 28 31 38 35 39 36 30 28 23 19 19 24 24 25 25 24 24 23 24 22 21 20 23 30 31 42 45
46 45 45 46 46 42 36 37 39 42 34 33 33 32 33 33 30 30 26 35 35 37 38 34 34 35 28 26 21 19 18 24 24 24 23 25 22 20 20 20 21 28 31 37 44
46 46 46 47 38 37 36 38 37 42 32 28 31 31 31 31 30 30 26 33 34 33 38 38 38 37 35 30 28 29 18 17 21 22 24 25 22 21 21 21 22 21 28 33 44
47 46 46 44 39 37 37 36 36 42 13 24 27 31 31 28 25 24 26 23 23 35 36 32 36 37 34 32 31 28 34 32 30 27 25 24 21 20 21 21 21 22 22 31 44
45 45 45 39 37 38 36 36 41 30 15 22 26 26 29 27 28 23 23 25 24 26 36 32 39 37 35 35 34 37 33 32 28 27 24 25 23 23 21 21 22 23 22 31 43
44 45 43 40 34 35 37 39 26 22 18 18 22 25 26 26 27 26 22 20 19 15 17 21 29 36 38 35 35 35 33 26 25 24 24 26 24 24 25 24 25 26 24 29 44
44 45 43 40 39 37 36 33 21 19 21 21 20 18 16 16 21 26 24 19 20 16 19 17 20 25 36 35 33 32 35 29 25 26 25 24 22 22 25 25 25 25 26 32 44
44 39 39 39 39 38 34 20 19 19 20 22 21 16 14 13 16 24 25 25 23 18 17 21 24 26 31 32 33 33 35 34 31 30 30 29 28 29 30 25 24 23 31 38 44
37 35 36 36 39 38 31 21 22 22 22 21 19 21 18 19 19 18 24 34 35 34 25 24 22 24 27 30 31 31 36 33 35 27 25 26 26 29 29 30 28 30 32 39 45
34 30 34 37 40 36 24 22 22 20 20 22 23 21 21 21 19 21 30 35 33 35 33 33 27 23 27 26 29 31 36 36 35 33 29 26 30 39 35 30 31 35 38 39 40
33 24 34 42 30 32 26 25 27 22 23 23 26 25 23 21 21 20 22 29 28 30 31 32 33 30 26 24 26 33 35 35 33 30 32 32 33 44 39 35 30 36 38 40 41
34 29 33 38 26 24 27 26 26 24 23 21 24 24 24 22 18 23 25 33 30 30 29 27 29 27 24 25 25 28 30 35 36 36 34 31 33 44 42 42 41 34 38 40 41
35 24 26 32 31 29 29 28 25 27 26 25 25 26 22 22 24 21 21 31 33 31 37 32 30 30 28 32 34 34 33 33 36 34 32 32 34 41 43 43 40 37 39 40 40
33 25 27 25 29 30 29 28 25 25 29 29 25 24 21 20 22 22 27 29 31 37 35 32 26 33 33 32 30 30 35 35 33 34 32 33 34 39 44 42 42 41 39 39 39
30 23 29 28 29 25 27 26 26 29 25 25 28 31 31 26 23 24 30 29 33 33 33 36 28 32 30 29 26 28 35 35 37 38 32 33 35 42 46 46 42 40 38 38 39
37 33 30 24 24 22 24 24 25 23 31 29 31 31 30 31 35 35 34 34 32 31 31 32 31 28 25 29 27 28 30 31 33 38 38 37 37 44 42 43 41 38 38 38 38

GFSSW_sfc_dewp_069.txt.gz
Dewpoint
49 49 49 49 50 50 50 50 50 50 50 50 51 51 51 53 52 46 36 35 44 53 55 40 40 42 40 38 37 30 26 23 23 22 21 23 21 21 23 28 34 37 52 52 58
49 49 50 49 49 49 49 50 50 50 49 50 51 51 52 53 48 43 40 50 53 56 42 33 28 36 36 37 37 34 29 24 25 23 22 21 21 21 21 23 24 46 55 58 59
49 49 49 49 49 49 48 49 49 49 49 49 50 50 51 51 39 13 50 55 55 55 41 39 31 25 33 34 35 32 29 28 26 26 26 22 22 23 20 21 27 40 53 57 57
49 50 49 49 48 48 48 49 48 48 48 49 50 50 51 47 -12 29 55 54 53 54 49 48 40 27 19 30 33 30 29 29 30 28 25 24 24 21 20 21 23 26 54 56 55
47 49 49 49 48 47 48 48 47 47 47 48 49 49 46 37 30 33 48 41 39 51 48 42 35 28 19 22 30 32 32 32 31 30 26 26 23 22 21 22 21 45 54 54 54
47 48 48 48 47 46 47 48 49 48 47 48 49 49 44 35 29 35 36 34 30 45 40 39 35 26 24 27 27 29 30 30 31 32 29 26 24 21 21 20 30 52 52 52 52
48 48 47 47 46 45 46 48 48 49 48 48 49 47 42 38 38 38 39 36 31 30 30 23 25 21 21 24 31 29 27 27 26 25 23 23 19 17 19 19 32 50 50 50 51
47 47 47 47 47 47 47 47 48 49 50 50 50 48 41 41 41 40 40 35 34 33 29 30 29 22 18 23 28 28 28 25 25 24 23 19 20 20 19 19 19 42 47 50 50
47 47 47 47 47 47 47 47 48 49 52 51 48 45 38 45 42 39 38 33 28 29 31 30 30 24 18 21 25 28 25 24 24 23 21 18 19 20 22 22 19 19 40 45 49
46 46 46 47 47 46 46 48 49 49 49 49 46 42 41 34 36 33 30 34 26 36 35 33 27 21 17 23 21 25 25 24 22 23 25 24 23 25 25 24 23 20 29 42 46
46 46 46 47 46 46 45 43 39 38 39 34 37 39 37 38 34 30 29 32 40 37 31 35 28 25 21 21 25 27 25 24 25 26 25 24 23 24 25 26 22 20 22 41 44
46 46 46 46 46 46 39 38 35 36 36 39 37 36 36 37 34 31 31 30 36 32 39 35 30 30 29 24 19 19 20 24 25 26 25 24 23 23 24 24 22 22 24 31 43
45 46 46 46 46 38 35 37 36 36 36 31 30 31 32 34 31 29 28 31 35 35 37 32 33 36 31 27 25 23 18 23 24 25 26 24 22 25 26 22 21 22 26 35 44
45 46 47 46 35 37 36 36 34 37 31 26 31 33 33 33 30 31 28 36 35 33 37 37 38 37 36 33 30 25 24 26 18 18 21 25 22 25 26 24 23 22 28 34 44
45 45 46 44 38 34 36 35 36 41 13 17 30 33 31 28 26 27 27 25 33 33 36 31 36 38 35 34 33 28 36 34 32 28 26 24 23 24 24 23 23 23 23 29 42
44 44 45 39 37 36 36 37 40 28 10 19 27 28 28 28 27 23 24 25 23 27 35 33 38 36 35 35 33 34 35 33 32 28 24 23 24 24 25 24 24 24 24 25 39
44 44 42 41 34 37 37 36 24 21 16 20 21 24 28 28 26 22 21 20 19 17 17 20 25 35 38 35 35 35 35 28 24 23 21 26 25 24 27 27 27 27 26 26 37
44 44 42 40 39 37 35 31 17 11 20 23 22 21 24 25 26 25 21 19 20 17 16 16 13 30 37 32 31 31 37 30 23 24 25 28 24 24 31 31 31 27 26 26 32
43 38 37 38 39 37 33 22 12 17 21 21 21 20 18 20 21 26 23 21 21 17 15 19 21 26 36 35 36 36 33 38 32 33 28 28 28 30 33 32 35 29 25 28 39
36 35 34 37 39 37 29 18 22 22 20 18 20 23 19 20 19 19 24 30 34 24 23 24 21 24 28 34 37 37 39 33 35 27 24 27 30 34 34 32 37 39 39 41 45
33 29 31 37 38 34 22 20 22 21 22 21 24 23 21 22 20 21 26 35 37 34 27 30 26 22 27 30 32 37 37 36 36 34 28 26 33 40 40 39 37 39 41 42 45
31 20 31 39 30 28 22 23 25 23 25 24 25 25 24 23 22 19 22 29 30 31 31 31 33 30 29 27 33 34 35 37 32 31 33 34 33 43 43 39 38 39 41 42 46
30 28 33 34 14 26 26 25 26 24 23 23 23 25 26 23 23 23 23 31 30 30 26 27 28 27 24 26 32 33 37 37 37 37 31 30 31 44 43 41 39 39 40 42 44
33 21 23 30 30 26 24 26 23 30 29 30 26 25 25 24 24 24 24 28 33 31 37 33 30 28 24 30 34 34 34 36 37 33 32 33 37 41 41 42 40 42 39 42 44
33 25 26 14 26 26 25 26 27 26 28 28 26 28 30 27 23 24 27 28 33 37 34 29 24 31 31 31 30 31 32 35 36 36 34 31 31 37 42 44 44 43 39 40 40
29 25 27 27 28 26 26 26 22 24 21 28 26 30 30 30 28 28 28 28 29 34 33 35 27 30 27 31 27 23 26 32 35 36 37 36 33 42 44 44 44 45 41 40 40
37 35 28 24 23 22 20 20 24 23 24 24 26 31 30 30 33 36 35 34 33 30 31 32 30 28 23 27 26 24 30 28 35 36 35 36 37 44 44 42 44 43 42 40 38

GFSSW_sfc_dewp_075.txt.gz
Dewpoint
48 48 49 49 49 48 49 49 49 48 48 48 48 49 50 51 52 47 40 35 43 51 51 44 40 40 38 36 34 28 21 18 18 19 17 22 20 22 23 22 24 26 36 50 57
47 48 50 50 48 48 48 48 48 48 47 48 48 48 49 51 47 42 44 48 50 52 42 34 33 39 36 35 36 30 24 20 22 21 19 20 23 22 23 24 24 25 41 57 60
47 48 48 48 48 48 48 47 47 46 47 47 48 48 50 50 37 16 54 52 52 52 41 34 33 36 31 36 35 33 25 27 26 24 23 23 24 25 22 23 26 27 28 45 57
47 48 48 48 48 47 47 48 46 46 47 47 48 48 48 45 -5 32 49 50 52 50 45 40 29 24 24 24 31 27 32 30 27 26 27 27 27 27 27 28 28 29 28 28 39
47 47 47 47 47 47 47 47 46 46 47 48 48 48 47 38 32 27 42 41 52 48 43 41 30 26 22 20 23 27 26 28 29 30 29 29 28 28 27 28 29 28 29 28 30
47 47 47 47 47 46 46 48 48 47 48 49 49 48 43 34 32 33 38 37 34 47 43 42 37 34 28 24 23 24 26 25 27 27 28 28 28 30 29 30 29 27 26 27 37
48 48 48 47 47 46 46 48 48 48 49 51 50 46 42 37 39 40 41 38 31 40 38 38 36 23 24 18 23 26 25 27 28 28 27 31 29 30 31 31 29 26 25 25 36
47 47 47 47 47 47 48 48 48 48 52 52 50 44 39 43 43 41 40 39 39 36 32 30 28 25 23 23 20 23 26 22 27 28 28 28 18 24 27 26 25 25 25 25 33
46 46 46 47 48 48 47 48 48 50 51 50 46 43 37 44 42 41 41 33 33 33 32 27 29 26 21 19 19 24 20 24 25 26 26 25 24 25 24 25 24 25 26 27 33
45 45 45 45 47 47 47 46 47 50 49 48 44 40 37 33 38 35 36 36 27 31 33 32 28 24 20 20 15 18 22 25 25 26 26 25 24 25 26 26 29 27 28 29 29
45 45 45 45 46 47 42 37 32 31 34 29 32 38 29 31 36 32 32 30 38 33 24 31 25 22 23 24 23 20 20 19 19 23 23 22 25 27 28 27 27 27 27 28 29
45 45 45 45 45 42 39 33 31 32 31 32 34 34 34 32 30 31 32 27 35 30 36 34 28 28 27 25 22 22 21 21 22 21 20 19 20 26 27 27 28 28 28 28 29
44 45 45 45 41 37 36 32 34 34 32 32 33 31 31 35 33 31 30 27 32 30 34 27 28 34 30 31 30 29 28 28 26 26 26 23 20 20 22 27 27 27 28 28 28
44 44 45 43 34 36 34 34 36 36 28 15 27 32 33 33 30 33 32 29 34 26 33 34 34 33 33 32 34 29 30 29 28 26 21 22 18 22 23 24 26 27 29 30 30
43 44 45 42 36 31 30 37 37 39 -15 5 30 34 33 29 28 27 31 30 30 33 34 27 35 36 33 30 34 30 33 32 31 30 29 27 24 23 25 24 25 28 30 31 32
43 44 44 40 38 36 37 37 38 8 -18 7 25 22 20 28 26 24 26 26 31 34 36 33 35 36 34 34 34 34 33 32 31 30 26 26 24 22 22 23 27 30 34 36 34
43 43 41 41 32 38 38 33 3 -12 7 17 21 17 20 21 26 23 24 23 21 21 21 20 22 33 35 31 34 31 30 25 23 25 21 24 25 25 27 29 37 39 39 41 40
42 42 39 39 38 38 34 14 -17 2 13 21 18 17 20 22 21 23 22 22 22 17 16 14 15 24 34 28 26 31 29 26 20 22 23 27 22 25 38 39 40 41 43 44 44
40 36 35 36 39 36 23 12 -5 20 18 17 13 21 21 22 22 20 23 21 21 20 18 16 16 23 34 34 29 32 31 33 34 30 28 25 27 37 38 39 40 43 45 47 47
35 32 32 38 39 32 22 11 15 20 21 21 13 23 20 12 19 16 19 30 31 22 21 21 18 23 35 36 37 34 38 34 34 23 22 22 27 33 37 38 40 43 45 48 49
32 27 34 38 36 29 17 17 19 21 24 20 21 18 16 6 13 11 20 30 31 35 25 23 26 24 34 32 31 34 32 36 35 31 25 26 32 39 39 40 41 43 43 44 46
31 21 30 36 26 26 22 23 23 22 20 19 23 21 20 20 24 22 22 26 32 34 32 36 34 25 24 29 33 33 32 36 31 29 33 32 30 43 41 39 41 41 41 42 43
28 27 33 33 18 22 24 26 26 24 23 23 23 23 24 20 19 22 28 31 34 33 35 34 34 28 27 31 33 32 34 38 37 35 31 30 31 44 43 39 38 38 38 39 41
28 19 23 31 24 23 22 21 20 29 29 32 27 26 26 23 24 20 27 31 34 35 38 35 29 30 21 21 28 28 27 29 35 29 30 33 34 39 39 42 37 36 36 36 37
29 23 25 21 26 25 25 23 22 24 28 27 30 28 26 25 23 22 23 26 32 34 37 35 26 30 27 28 29 25 24 22 22 30 30 28 30 35 40 42 43 37 33 34 33
29 26 28 27 25 23 22 17 19 21 19 19 25 23 22 26 25 26 28 27 30 34 35 38 28 30 23 29 23 20 18 21 25 24 28 32 33 36 38 44 42 39 35 33 32
36 34 30 24 23 20 19 18 19 22 23 23 24 22 21 29 32 34 33 34 34 34 33 32 31 26 18 24 21 13 19 18 24 29 32 31 33 40 43 43 41 39 36 33 32

GFSSW_sfc_dewp_078.txt.gz
Dewpoint
47 48 49 50 50 48 48 48 48 48 48 48 48 49 49 50 51 43 34 35 39 51 49 42 40 36 29 24 28 26 21 18 17 16 16 16 15 14 17 16 18 22 26 34 46
47 47 48 48 48 48 48 48 48 47 47 47 48 48 49 50 45 36 42 46 48 51 33 32 27 33 30 28 27 23 19 18 19 19 18 17 17 16 19 21 22 21 24 42 46
47 47 47 47 47 48 48 47 47 47 47 47 48 48 50 48 36 13 52 50 50 50 36 27 23 26 25 28 29 27 20 20 21 22 20 19 18 18 18 20 21 22 22 27 29
47 47 47 47 47 47 47 48 47 46 47 48 48 49 49 44 1 29 47 48 52 43 36 30 27 25 21 19 23 26 26 25 21 22 22 21 21 20 19 22 23 22 23 24 27
47 48 47 48 48 47 47 47 47 46 47 48 49 49 45 34 25 24 40 41 41 39 35 30 25 22 18 16 17 22 19 17 20 22 20 20 19 19 20 22 22 21 23 26 28
48 48 48 48 47 47 46 46 47 47 48 49 49 49 42 26 28 29 31 30 31 37 34 38 31 29 27 25 22 21 23 22 23 23 24 23 22 21 23 24 25 25 25 25 27
46 47 47 47 46 46 46 46 48 48 49 50 51 46 40 31 33 33 34 28 30 30 29 34 35 29 27 24 24 23 21 22 23 23 24 23 21 22 25 26 25 24 24 23 25
45 45 45 46 46 46 46 47 48 48 50 51 51 45 36 36 38 39 35 33 36 32 30 28 32 29 25 23 22 21 21 18 18 26 26 27 21 17 21 24 25 25 25 22 23
45 45 45 45 47 47 47 47 47 50 51 51 46 43 31 41 38 38 39 31 32 35 32 27 29 26 25 21 18 19 13 16 19 22 23 24 23 23 25 24 25 25 24 23 24
45 45 45 45 46 47 47 45 47 51 48 46 43 40 36 30 36 35 36 34 28 28 28 27 25 23 23 21 12 12 15 16 19 22 23 22 22 25 25 25 27 26 26 26 26
44 44 45 45 45 45 42 36 27 31 30 20 22 31 25 24 29 29 31 30 28 25 21 23 19 17 16 20 18 18 18 17 16 18 19 19 19 19 21 25 27 28 27 26 26
44 44 45 45 44 42 35 31 31 32 27 27 29 30 30 31 25 24 32 28 30 27 27 29 23 18 18 20 21 20 18 18 21 23 24 22 22 22 21 21 23 27 28 28 27
44 44 45 45 39 39 30 30 32 35 30 24 29 30 30 34 29 28 27 28 27 25 28 23 19 30 26 25 23 24 25 25 25 27 28 27 23 21 23 24 23 26 27 28 28
43 44 45 44 34 34 30 32 34 39 21 5 28 31 32 32 30 31 28 24 25 23 23 25 25 26 27 25 28 24 27 28 27 27 18 24 16 20 22 23 22 23 28 28 28
43 44 44 42 35 26 29 35 38 40 -9 12 29 33 28 29 28 27 29 23 20 23 26 21 27 31 26 25 29 24 30 28 28 28 28 25 23 21 23 23 23 25 27 29 30
42 43 43 38 38 32 37 38 42 15 -16 6 22 16 12 20 25 26 27 28 29 27 29 25 28 32 30 32 29 29 27 24 26 28 24 23 23 19 21 25 26 30 29 33 34
42 43 39 38 30 38 39 37 6 -9 -4 11 17 12 7 17 21 24 25 25 21 22 22 20 23 29 32 28 29 29 23 14 19 23 19 22 22 23 25 34 35 35 38 40 42
41 40 38 37 39 41 37 13 -10 -4 6 15 14 10 5 16 13 20 21 21 24 22 18 14 15 19 28 27 19 24 22 19 15 16 16 23 21 23 36 37 39 40 43 45 45
38 37 38 40 42 40 21 13 -1 14 14 14 10 7 4 17 14 16 17 18 21 23 19 18 17 22 29 29 26 30 29 29 28 27 25 20 22 32 35 36 38 41 43 45 48
33 34 35 41 43 32 18 9 12 17 17 13 5 13 11 14 9 13 16 30 31 30 24 21 18 21 30 32 31 32 33 31 32 25 19 17 22 27 36 38 40 42 43 44 47
34 26 36 40 39 26 21 10 13 14 18 12 11 11 6 7 7 11 12 28 31 32 32 22 23 24 32 30 25 31 31 33 36 31 23 21 33 41 39 40 41 41 42 43 45
34 30 34 38 27 28 19 18 22 18 20 18 17 16 12 11 7 9 9 17 33 33 33 28 29 23 21 24 28 27 28 31 29 27 34 34 31 42 39 38 39 39 39 41 42
29 24 34 36 27 22 21 20 23 21 22 20 19 19 19 16 14 12 12 14 32 36 36 37 31 24 22 29 30 28 30 37 34 36 30 30 33 41 42 38 37 37 37 38 39
32 29 27 29 25 25 23 16 18 26 28 25 25 27 24 21 22 16 16 21 30 28 36 37 31 27 17 28 28 29 28 29 30 30 27 25 29 35 40 40 40 35 37 36 36
34 28 27 26 24 21 23 20 18 16 24 22 30 23 26 21 21 20 18 16 20 31 35 35 32 28 28 29 29 21 20 20 24 25 25 18 19 24 33 38 40 35 36 35 34
33 29 26 23 23 21 20 15 14 18 18 16 24 20 18 20 24 27 27 25 24 31 32 35 32 28 26 27 25 21 19 15 18 23 22 23 25 31 38 42 39 36 37 35 33
36 34 30 24 20 19 17 15 17 18 19 21 20 21 21 24 30 28 29 28 30 29 33 33 32 27 21 24 19 16 16 17 19 21 28 28 30 36 38 41 39 38 35 35 32

GFSSW_sfc_dewp_081.txt.gz
Dewpoint
46 47 47 48 48 48 48 48 48 48 48 48 48 49 49 50 51 40 31 34 39 52 50 38 36 29 26 25 31 28 24 21 18 16 16 15 14 13 14 11 12 18 22 25 40
46 47 47 47 47 48 48 48 48 48 48 48 48 49 49 50 44 33 42 48 44 49 28 27 31 31 27 24 24 25 23 20 19 17 16 16 16 16 15 17 19 15 19 23 39
46 47 48 47 48 48 48 48 48 48 47 47 48 50 50 49 33 17 52 48 49 48 38 20 25 22 25 23 22 22 21 20 16 16 18 19 18 18 16 18 20 22 22 23 28
47 48 48 48 48 48 48 48 48 47 47 48 49 50 50 44 10 32 47 48 53 41 36 26 19 18 19 18 20 21 22 21 19 19 19 20 20 17 17 20 20 21 21 21 23
48 48 48 48 48 48 48 47 47 47 47 48 49 50 46 32 25 35 44 43 41 40 32 28 23 20 17 14 14 15 16 17 19 16 17 19 19 18 18 19 20 21 23 23 22
47 47 47 48 47 46 46 47 47 47 48 49 50 49 43 27 24 24 21 27 30 34 30 28 25 23 20 19 17 16 16 17 17 15 17 17 17 18 18 18 19 20 22 23 23
45 46 46 46 46 46 46 46 47 48 49 50 51 47 39 29 27 25 26 22 19 24 28 27 30 27 25 23 23 22 19 17 16 17 17 19 18 19 21 21 21 21 23 24 25
44 45 45 45 46 46 46 47 47 48 50 52 52 45 32 30 30 29 29 27 24 23 22 24 26 29 27 23 20 17 18 14 14 16 19 22 19 18 19 19 21 23 25 25 25
44 45 45 45 46 46 46 47 47 51 51 51 47 42 29 39 33 34 32 25 24 28 25 22 24 26 24 21 19 17 12 12 12 16 19 20 21 20 22 23 21 22 24 25 25
44 44 45 45 46 47 47 46 47 50 49 43 41 39 35 26 30 33 33 32 27 27 25 24 21 21 20 19 16 8 10 13 13 15 21 22 19 19 21 22 25 25 25 25 24
44 44 44 45 45 46 42 38 39 39 35 22 19 26 19 18 20 23 28 28 28 25 21 23 19 17 18 20 19 16 14 12 13 13 15 16 15 15 16 17 21 25 26 27 27
44 44 44 45 45 44 41 27 28 32 21 22 24 26 28 30 25 21 21 26 26 23 22 21 19 18 15 15 15 16 16 15 15 16 22 22 21 20 20 18 19 20 25 27 28
43 43 44 45 44 40 30 28 30 33 30 20 28 30 30 31 27 24 21 24 21 23 23 23 21 25 22 19 17 17 17 17 18 21 21 21 19 20 21 24 23 22 21 23 28
42 43 44 44 38 31 29 29 33 40 29 16 28 30 30 31 30 28 26 21 21 21 21 21 21 20 18 20 19 18 19 22 24 22 16 19 16 18 17 18 21 23 25 25 28
42 43 43 43 36 26 29 32 39 41 10 9 26 29 16 25 25 28 26 21 19 21 22 18 20 24 22 20 22 22 24 27 25 21 19 17 16 15 18 19 21 24 24 25 28
42 43 43 38 37 33 35 38 41 30 -0 11 19 16 6 16 19 24 26 26 24 24 21 21 21 22 24 25 27 24 26 26 23 19 18 19 16 13 17 25 27 28 29 27 28
41 42 39 35 33 37 39 38 25 2 -7 9 14 10 5 -1 8 17 20 24 21 22 21 22 22 24 28 24 26 26 25 15 10 18 19 18 19 18 22 32 33 34 34 39 39
41 40 38 34 38 41 37 27 4 -5 -0 11 8 7 -1 -4 9 6 12 9 13 17 15 11 11 18 23 26 22 22 23 17 13 14 20 25 19 25 33 34 35 37 40 42 45
39 37 37 39 42 39 29 18 8 12 11 11 5 -2 -2 1 14 9 10 6 8 17 18 13 10 19 24 26 25 24 23 22 22 22 19 16 16 28 35 35 36 39 41 43 45
33 33 33 41 41 37 21 12 8 12 12 8 3 -1 7 5 10 7 9 17 22 27 25 19 15 19 24 27 27 26 30 29 28 22 17 15 17 35 36 37 39 41 41 43 44
33 28 34 38 40 25 26 11 9 10 13 10 5 7 6 4 4 3 3 11 27 28 31 29 21 16 19 24 21 27 28 30 31 29 23 22 32 39 37 38 38 38 40 41 41
32 32 34 37 28 24 19 14 20 14 18 15 15 13 11 11 11 11 8 5 16 28 30 34 35 20 14 18 21 21 26 28 29 23 28 29 31 39 39 38 38 38 38 38 39
25 24 32 37 32 22 18 16 18 17 18 17 16 17 18 17 14 12 11 13 13 16 33 34 30 23 19 20 21 21 22 26 32 34 28 28 32 40 39 39 39 37 37 37 37
30 33 26 26 23 25 22 17 17 23 22 21 21 23 22 19 18 17 17 15 18 22 34 33 27 27 20 23 31 31 22 28 31 30 27 27 23 37 37 39 40 37 37 35 34
33 31 27 29 24 22 23 18 16 18 22 19 26 24 14 18 17 17 20 23 23 20 22 32 26 24 25 21 25 29 33 26 28 27 24 20 16 20 31 38 41 37 36 35 34
34 28 24 23 23 21 19 16 11 15 15 16 19 18 17 18 17 21 24 24 22 23 29 34 26 26 26 29 26 25 29 20 17 15 16 18 19 31 40 42 39 37 36 34 34
34 32 28 23 20 18 18 15 16 16 17 17 17 18 18 20 23 23 24 25 24 25 26 30 30 26 20 28 25 24 23 19 15 17 19 25 31 37 39 40 38 37 35 34 34

GFSSW_sfc_dewp_084.txt.gz
Dewpoint
47 47 48 48 49 49 49 49 49 49 48 49 49 49 50 50 51 41 33 39 42 53 47 25 36 33 26 26 30 32 28 24 22 20 19 19 15 15 14 12 12 12 16 25 41
47 48 48 48 48 48 49 49 49 49 48 48 48 49 50 51 45 37 45 51 50 47 24 18 28 30 24 23 21 25 28 25 24 22 19 17 16 17 16 16 15 15 21 26 35
47 48 48 48 48 49 49 49 49 48 48 48 48 50 51 50 37 28 52 49 48 45 24 15 20 27 26 25 21 19 22 24 22 20 18 17 17 18 18 18 20 22 24 26 31
48 48 48 49 49 49 49 50 48 48 48 48 49 50 51 45 19 34 54 51 50 33 32 30 18 20 19 18 22 18 18 18 17 19 19 17 19 18 20 22 20 20 22 24 24
48 48 49 49 49 48 48 48 47 47 48 48 49 50 46 35 31 41 52 47 44 39 35 30 23 17 13 12 13 14 14 15 18 17 18 18 17 16 18 19 19 19 21 23 25
48 48 47 48 47 46 46 47 47 47 48 49 49 50 44 28 22 25 23 24 27 33 31 27 24 22 19 17 16 15 14 13 12 14 14 14 14 13 15 15 16 17 19 21 25
47 46 46 46 46 46 46 46 47 48 48 50 50 47 39 30 23 25 23 19 16 22 27 27 25 26 25 23 23 21 19 19 18 17 15 16 14 14 17 17 18 19 21 20 23
45 45 45 46 46 46 46 47 47 48 50 52 52 46 34 28 29 24 25 24 24 19 21 23 25 25 27 26 24 19 17 13 13 11 11 12 15 14 16 18 19 21 22 23 24
45 45 45 46 46 47 47 47 47 48 52 52 49 44 31 38 29 29 31 26 23 21 21 18 20 21 23 24 19 18 15 14 12 12 12 13 17 18 19 20 21 23 22 23 26
44 44 45 45 47 47 48 47 47 51 49 46 41 39 37 25 28 30 31 30 26 25 25 22 19 18 19 17 14 14 13 13 11 10 14 13 15 19 20 18 21 22 24 26 26
44 44 44 44 45 47 44 38 41 44 44 37 29 33 20 17 22 18 19 28 26 25 23 23 19 16 17 17 17 17 17 15 14 12 12 14 13 14 15 15 17 17 20 26 28
44 44 43 44 45 46 42 32 27 30 21 26 17 22 26 29 25 21 17 24 24 23 21 19 19 19 17 17 15 15 14 13 13 14 16 15 14 19 22 23 21 17 19 23 29
42 42 44 45 45 41 30 27 28 33 28 20 24 28 28 30 26 23 17 17 22 20 22 20 19 20 22 20 19 17 15 14 14 14 17 21 17 17 19 19 22 22 22 21 24
41 42 43 44 40 30 33 28 32 40 29 17 22 27 30 30 29 25 25 20 20 19 18 19 19 18 19 19 18 18 16 16 19 19 19 20 17 17 14 17 21 24 26 26 23
41 42 43 42 40 31 30 33 37 42 15 17 25 28 20 22 19 27 25 21 18 19 20 18 16 18 19 19 16 15 19 21 22 24 24 21 15 14 14 15 17 23 27 29 28
41 42 42 39 41 35 35 37 40 34 13 10 22 19 7 12 14 22 23 25 24 19 19 17 17 16 15 19 21 23 23 21 23 23 22 21 14 13 16 27 31 31 34 39 33
41 41 38 35 35 38 40 38 32 20 3 7 11 11 4 0 -4 1 12 22 21 19 20 18 20 19 21 22 23 24 24 17 15 14 17 28 29 20 32 34 32 33 40 43 46
41 40 40 34 39 42 39 32 17 -4 5 9 5 4 2 -3 -4 -2 6 6 8 7 11 10 10 13 22 24 21 21 23 21 12 17 17 22 30 29 33 39 42 41 42 43 44
40 38 39 41 41 41 34 24 15 13 10 8 1 -3 -4 -4 5 12 11 6 5 5 6 17 12 20 20 21 22 21 20 21 22 21 19 18 26 39 41 37 39 40 41 42 43
36 34 32 39 41 40 30 18 11 10 8 5 1 -4 1 5 6 6 7 6 17 25 29 25 23 15 19 23 24 22 24 28 32 21 16 13 21 35 37 38 38 38 39 41 42
37 30 35 37 41 35 29 15 8 11 12 9 5 4 5 5 5 4 1 2 5 22 21 25 27 28 26 28 24 22 25 26 28 27 23 25 32 38 38 39 37 37 38 39 39
35 34 35 39 32 26 20 14 17 12 15 13 14 11 9 10 11 10 8 9 10 11 8 24 34 28 23 21 23 22 21 26 28 23 27 28 28 40 38 38 38 37 38 38 37
28 26 30 38 34 23 17 13 15 14 15 15 14 15 17 15 12 11 12 15 15 13 18 24 26 21 18 18 18 22 23 30 33 33 28 27 28 39 39 38 39 37 37 36 36
31 33 26 28 23 26 20 16 16 19 19 19 17 19 18 16 16 13 13 16 21 23 31 30 22 22 22 23 27 29 32 30 27 31 27 27 28 30 38 38 39 37 36 35 34
34 33 29 30 23 22 22 16 15 16 20 19 23 22 22 16 14 13 15 17 18 24 22 24 20 20 23 21 20 26 32 29 28 33 27 24 20 34 39 41 39 37 36 34 33
35 30 26 24 23 21 19 15 11 14 12 18 20 17 15 15 14 18 17 18 19 20 22 31 23 20 18 19 19 24 24 29 31 35 33 31 23 40 42 40 38 37 35 34 33
31 32 31 24 21 19 20 15 14 15 15 15 15 16 16 16 18 21 21 22 21 21 24 25 28 24 18 17 20 25 22 21 24 29 24 25 35 36 37 37 37 35 34 33 33

GFSSW_sfc_dewp_087.txt.gz
Dewpoint
49 48 48 49 49 49 49 49 50 50 49 49 50 49 50 51 52 46 39 43 47 52 52 33 25 37 32 23 27 34 32 30 30 27 25 24 22 21 19 13 17 19 15 41 48
48 48 48 49 49 49 49 50 50 50 49 49 49 49 50 52 48 43 45 54 55 53 29 22 18 25 26 25 25 23 28 29 29 28 26 25 21 19 18 21 21 20 25 39 42
48 48 48 49 49 49 50 50 50 50 49 48 48 49 51 51 43 32 54 53 52 49 29 23 15 16 26 24 23 21 19 21 27 28 26 23 19 19 18 20 26 26 24 26 37
48 48 48 49 49 49 50 51 49 48 48 48 48 49 51 47 19 39 55 54 53 36 29 33 32 16 20 24 25 21 21 19 19 20 21 17 20 20 18 21 23 22 23 23 25
49 48 49 49 49 49 49 49 47 48 48 48 49 50 47 39 39 45 54 52 47 37 30 29 30 23 16 16 17 15 15 16 17 17 17 19 16 16 17 17 17 16 17 20 25
50 49 48 48 48 47 46 47 47 47 48 48 49 49 46 34 26 41 39 36 37 38 35 35 31 26 19 16 14 14 17 17 19 19 19 17 17 16 17 15 14 14 15 17 20
50 49 47 46 46 46 46 46 47 47 48 48 50 47 42 34 31 30 27 20 19 21 27 29 28 26 26 26 26 24 20 19 18 17 17 17 16 15 16 16 16 16 17 18 18
49 47 46 46 46 46 46 47 47 48 48 50 52 47 41 35 35 33 27 26 23 22 20 21 22 23 25 26 25 23 22 17 17 15 14 13 12 14 14 14 14 14 15 17 19
48 46 46 47 47 47 47 48 47 48 49 53 50 48 38 41 33 30 25 22 24 24 23 18 20 21 21 20 22 23 19 17 17 18 15 13 13 16 15 19 19 20 21 22 20
47 46 46 46 47 47 48 48 46 48 50 46 46 43 41 29 28 30 29 31 30 29 22 22 19 18 18 18 18 19 16 15 15 16 16 13 13 15 15 14 15 14 14 16 20
47 46 45 45 45 47 45 39 41 43 44 40 40 33 30 23 25 22 21 24 29 27 24 24 19 17 17 18 18 17 15 15 16 17 15 13 13 14 14 14 14 15 16 16 16
46 45 44 44 45 46 43 37 27 30 26 35 41 34 22 26 26 26 23 17 27 24 24 22 20 21 20 19 19 18 16 15 14 15 15 14 13 16 20 19 19 19 19 18 17
43 42 43 44 44 42 36 28 32 37 29 26 23 30 23 30 28 23 17 18 22 22 23 22 21 22 20 19 19 19 18 17 15 16 16 16 15 20 21 21 20 17 20 22 17
41 41 43 44 42 38 34 31 36 41 30 25 17 25 29 30 30 28 25 22 19 19 21 21 22 21 20 22 21 18 20 19 16 17 20 24 21 22 22 20 17 30 25 20 21
40 42 43 42 39 36 34 34 37 42 20 18 20 28 28 28 23 27 25 24 21 20 20 21 20 19 19 19 21 19 21 20 21 20 22 21 21 21 22 19 16 42 42 30 26
41 42 42 40 41 38 38 38 40 34 19 19 26 22 19 18 16 26 25 28 26 22 19 18 19 17 17 18 20 23 25 26 25 22 19 20 24 25 24 23 38 44 44 44 44
40 41 40 36 37 39 41 39 33 25 12 11 17 12 9 7 10 7 21 24 22 20 21 21 19 19 17 17 22 23 24 22 17 18 17 23 23 30 40 43 41 42 43 44 44
40 41 40 37 40 42 41 33 24 14 9 9 6 7 6 5 2 3 8 8 11 12 8 6 9 12 20 19 21 23 24 23 18 18 19 21 21 32 40 41 40 41 42 43 42
41 38 40 43 40 41 36 26 19 13 9 6 2 1 1 0 6 11 14 13 13 27 25 25 20 25 22 24 24 25 22 24 23 23 21 19 19 38 40 41 41 39 39 39 39
37 38 38 39 39 40 32 24 15 9 8 6 0 2 4 8 7 6 7 8 7 20 16 23 23 26 25 26 25 23 26 24 30 24 21 19 30 34 36 36 39 39 38 38 38
37 34 37 36 39 37 29 22 10 12 14 11 9 7 8 7 9 9 7 10 13 13 12 16 28 26 26 26 24 24 25 27 29 29 24 23 29 38 38 39 39 39 37 37 36
36 32 36 38 33 35 26 17 19 12 15 14 16 12 12 15 14 12 10 13 24 21 18 28 29 21 20 22 22 26 28 28 25 24 28 29 31 40 40 41 38 37 36 36 35
33 29 33 38 29 27 19 15 16 14 17 15 15 20 20 17 15 16 17 20 24 23 27 26 24 21 14 18 27 29 32 33 35 34 30 27 29 41 41 40 37 36 35 34 34
35 29 26 32 27 28 22 19 17 20 21 19 17 23 21 19 18 18 16 20 25 23 33 29 24 22 18 19 22 28 28 27 32 31 32 31 29 34 39 39 37 35 34 34 33
36 32 30 27 25 25 23 20 20 20 22 21 25 24 24 21 17 16 20 20 21 26 25 27 21 21 20 18 18 19 26 24 27 31 31 33 32 39 39 38 37 35 34 33 33
32 32 29 26 24 23 23 19 13 15 14 21 23 21 18 18 18 18 21 21 22 23 25 29 22 25 20 21 21 16 17 20 25 32 33 34 35 40 40 38 35 34 33 32 32
32 33 32 26 21 22 20 19 17 19 20 16 18 19 19 21 24 23 22 23 23 22 21 22 22 24 16 20 22 20 22 21 27 32 32 31 37 37 35 34 34 34 33 32 32

GFSSW_sfc_dewp_090.txt.gz
Dewpoint
52 51 49 49 50 50 50 50 50 50 50 50 50 50 50 51 52 47 37 39 46 51 51 32 32 31 33 23 25 33 31 30 31 31 30 31 28 28 21 20 23 23 18 37 52
52 50 49 49 50 50 50 50 51 50 50 50 49 49 50 52 48 44 45 52 54 55 35 33 28 21 33 24 23 25 27 30 32 32 29 29 29 27 21 21 24 23 28 41 49
52 50 49 49 49 50 50 51 50 50 50 49 49 49 50 51 43 36 54 53 57 53 30 27 22 16 28 25 23 23 23 25 23 23 25 27 28 28 22 20 23 25 26 29 38
52 50 49 49 49 50 51 51 50 49 48 48 48 49 50 48 5 37 54 56 54 39 27 25 30 19 15 25 25 21 22 21 20 21 20 19 20 20 19 22 23 23 22 23 25
52 51 49 49 50 49 50 49 48 47 47 48 48 49 48 42 40 40 55 55 45 33 28 29 30 28 21 16 19 21 23 23 22 21 20 19 18 19 18 18 19 17 17 18 21
52 51 50 49 48 48 47 48 47 47 47 48 48 48 45 30 20 34 48 45 44 38 36 32 33 32 25 18 15 16 14 16 18 18 20 19 19 18 19 19 17 17 17 18 19
52 51 50 48 47 47 47 47 48 47 47 48 48 46 43 32 29 37 36 29 32 39 35 34 34 25 25 24 27 26 23 23 21 18 17 17 13 13 16 17 16 16 16 16 17
51 51 50 47 46 47 47 47 47 47 48 48 49 46 39 38 38 37 35 28 23 21 22 21 21 21 23 24 22 22 24 20 21 19 18 15 15 15 14 14 14 14 14 15 16
51 50 47 47 47 47 46 47 47 47 47 49 50 46 40 46 40 39 33 26 24 25 25 22 23 20 20 19 19 22 20 20 19 19 18 17 17 16 18 17 16 18 18 20 21
50 48 47 47 46 47 48 46 46 46 47 48 47 44 41 32 33 30 30 27 24 28 25 21 19 16 18 17 15 19 20 18 16 16 17 16 15 16 15 15 16 15 15 15 16
48 46 48 46 45 46 45 40 40 42 43 39 38 37 34 27 25 22 24 25 29 28 20 24 19 17 16 18 18 19 18 17 17 16 17 14 14 14 16 16 16 19 19 18 16
47 47 46 45 44 45 43 37 31 30 27 39 43 40 37 36 26 27 21 17 21 25 25 24 19 21 19 19 19 18 17 16 17 16 15 14 13 15 16 16 18 19 21 21 20
48 46 43 43 44 42 39 35 36 36 27 22 27 37 38 34 27 27 23 19 24 25 25 23 23 23 21 20 19 19 18 18 18 19 18 16 17 19 21 23 24 24 28 42 42
44 42 42 43 39 39 36 32 37 39 22 20 24 25 31 31 29 29 18 17 18 17 21 22 22 22 22 21 19 17 22 21 20 19 15 23 18 19 22 22 23 24 44 43 43
42 41 41 41 39 37 35 35 36 41 17 22 17 27 30 29 29 27 26 24 20 20 21 21 20 19 18 19 20 19 23 23 21 21 21 19 20 18 28 39 41 43 44 44 43
41 40 41 39 40 39 38 39 40 33 18 20 26 26 28 29 20 26 26 27 24 21 20 19 20 19 18 18 19 24 25 25 25 24 20 19 19 22 36 38 37 42 43 44 43
39 39 38 37 37 39 41 38 32 27 19 20 24 24 24 18 18 25 24 23 22 20 20 20 20 21 20 17 20 20 23 21 19 18 18 20 21 25 37 39 39 41 43 43 42
39 39 39 37 39 41 40 34 27 12 12 10 8 8 8 7 7 7 14 13 27 25 18 12 12 15 25 20 17 21 23 22 18 17 14 21 20 32 39 39 39 44 42 41 41
39 39 37 42 40 40 36 28 19 14 8 7 5 3 5 7 8 13 11 11 16 15 23 19 22 23 27 26 22 24 23 23 23 22 22 21 31 37 38 38 41 44 41 38 37
38 39 39 41 39 39 33 27 10 11 9 7 5 10 7 8 9 8 9 11 14 14 14 19 14 27 24 25 26 26 29 21 25 19 19 20 23 31 35 37 39 40 39 36 36
37 34 37 39 40 37 26 21 13 13 13 13 11 10 10 12 12 11 11 18 17 17 18 22 25 20 19 23 19 20 23 29 28 27 21 20 23 38 37 38 40 37 37 35 34
35 30 36 38 34 35 24 19 21 14 18 16 18 18 18 18 15 14 14 20 25 25 22 28 26 22 16 19 20 21 29 34 29 26 27 25 24 39 39 39 37 35 34 34 34
33 29 32 39 26 24 21 18 20 17 19 18 18 21 21 18 15 18 17 23 24 22 24 22 21 17 7 14 26 25 24 26 31 33 27 26 26 39 41 36 35 34 33 33 33
34 25 26 31 30 26 23 20 18 23 21 21 24 25 22 19 19 18 19 23 26 25 33 28 22 18 14 16 21 19 17 19 27 27 28 27 32 35 39 38 36 34 33 33 32
33 29 30 25 26 24 24 23 21 21 23 23 23 24 22 20 18 17 21 22 23 26 26 25 20 22 22 22 21 21 20 18 18 22 27 30 32 37 38 37 36 34 33 32 32
31 30 31 24 25 23 24 19 18 16 21 21 21 22 18 18 19 19 22 22 22 24 24 26 20 20 13 17 18 18 22 20 19 18 23 26 33 36 38 36 34 33 32 31 31
33 33 31 25 21 22 19 19 19 20 21 19 20 18 18 23 22 22 23 23 22 21 21 21 19 20 12 19 20 17 23 20 18 26 32 30 36 37 33 31 31 32 30 30 30

GFSSW_sfc_dewp_093.txt.gz
Dewpoint
54 53 52 51 50 51 50 50 50 51 51 51 50 50 50 50 52 47 37 33 45 50 51 34 34 35 31 23 24 34 32 30 28 28 29 32 31 31 29 23 23 24 24 34 55
53 53 52 51 51 51 50 50 51 50 50 50 49 49 50 51 47 41 42 48 52 54 40 35 32 28 31 27 23 26 29 28 32 31 31 32 31 30 27 28 27 24 27 25 45
54 53 52 51 50 50 50 51 50 50 49 48 48 49 50 50 30 18 52 52 54 54 36 30 26 18 24 25 23 23 27 27 27 28 26 24 24 25 24 23 26 24 26 26 21
55 54 52 51 50 50 51 52 50 49 48 48 47 48 50 46 4 30 54 54 55 47 29 24 24 14 12 27 27 23 23 22 22 22 21 21 22 20 20 21 24 23 25 22 22
55 54 53 50 50 50 51 50 48 48 47 47 47 48 46 37 33 32 55 55 48 31 26 30 30 25 18 17 20 21 21 23 25 25 24 23 20 19 19 20 20 20 19 19 23
54 54 52 50 50 50 49 48 48 47 47 46 47 47 43 23 17 28 47 49 38 32 33 29 31 31 27 25 17 17 16 17 18 18 17 19 19 19 19 18 18 18 19 19 21
54 53 52 51 50 48 47 47 48 47 46 47 47 44 41 31 28 29 42 37 37 40 35 35 35 32 26 22 26 26 23 24 23 21 18 18 16 15 16 16 15 15 15 16 18
54 53 52 51 49 47 47 47 47 47 46 47 48 46 37 39 39 37 31 32 31 30 36 29 24 23 22 23 21 21 23 21 22 21 20 17 15 17 19 16 16 17 16 16 17
53 52 51 50 48 47 48 46 46 46 46 47 49 44 36 44 43 42 35 31 29 25 23 22 22 18 21 19 19 20 19 20 20 21 19 17 17 18 18 17 16 16 16 17 17
53 52 51 49 47 46 46 46 44 46 45 47 46 39 40 33 36 33 37 32 25 27 26 22 19 16 18 17 17 17 17 21 19 18 18 16 16 18 16 16 17 16 16 17 17
52 51 48 47 47 46 46 40 41 41 41 38 37 36 32 34 26 23 28 28 28 26 21 21 17 16 14 17 18 19 19 17 17 18 17 17 16 16 16 16 16 17 18 19 22
51 49 47 47 46 46 44 35 34 31 29 39 40 37 34 37 37 27 22 23 22 25 25 23 19 20 21 19 18 17 16 16 17 18 18 16 16 18 17 17 17 19 27 42 43
49 48 47 46 44 42 39 33 36 34 22 22 35 38 37 40 37 29 21 19 19 19 25 22 23 25 22 21 19 19 17 17 18 19 20 17 16 17 20 26 41 43 44 44 43
48 48 45 44 37 38 35 31 35 36 8 13 23 32 37 36 29 28 23 19 19 18 24 24 24 23 23 21 21 19 21 21 21 19 17 18 16 18 20 39 41 41 42 43 43
46 44 44 40 38 37 35 34 42 40 7 16 24 29 35 28 29 29 20 22 16 18 20 19 21 22 21 21 22 21 24 22 23 20 22 20 18 16 33 36 38 37 40 42 43
44 43 42 39 39 37 38 39 40 30 11 20 26 26 27 28 26 26 24 25 24 20 21 19 20 19 18 19 20 22 24 24 24 23 19 16 19 18 34 37 38 39 43 43 42
43 42 39 37 37 39 40 39 28 22 17 24 25 28 28 27 27 25 24 23 22 20 20 21 20 20 21 19 21 19 19 17 16 18 17 20 20 21 37 38 39 40 43 41 41
41 40 39 36 37 40 39 35 24 13 11 11 21 25 26 10 12 15 22 22 13 25 20 16 15 22 26 25 22 20 20 19 15 18 13 20 19 23 39 40 42 44 41 40 39
39 39 37 41 39 40 36 27 21 14 9 9 8 12 11 9 8 11 11 14 14 12 21 17 20 19 25 20 25 23 21 22 21 21 20 20 24 36 39 38 41 41 39 37 37
38 39 39 42 40 40 34 28 16 16 16 17 10 12 7 8 9 9 12 16 14 14 18 18 10 23 17 24 23 20 26 22 26 22 18 19 21 24 33 35 39 38 36 35 35
37 34 38 40 41 38 28 27 15 17 17 16 12 10 12 11 13 12 15 20 18 18 24 23 19 18 12 19 17 16 20 27 30 27 22 19 20 34 34 37 37 35 35 34 33
35 29 36 39 34 34 29 22 25 18 21 18 22 20 18 18 15 16 16 20 24 24 20 25 23 21 14 18 20 20 30 30 26 24 25 27 24 37 37 36 35 34 33 33 32
32 28 34 38 28 26 21 21 23 20 21 20 19 22 22 19 16 18 19 25 24 24 21 20 19 13 3 14 21 21 20 21 24 28 24 23 24 35 37 35 35 34 33 32 32
33 23 26 33 32 27 23 21 20 24 22 24 24 24 21 20 19 17 20 24 26 28 32 26 21 16 11 12 20 20 20 21 22 19 22 23 24 31 36 38 35 33 32 32 32
33 27 28 25 25 25 24 24 21 21 23 24 24 24 23 20 18 19 21 22 23 25 27 24 19 21 21 21 18 16 17 17 19 19 19 18 23 26 36 35 35 32 31 30 30
31 28 29 25 25 22 23 22 21 19 23 21 22 21 19 19 18 18 21 20 19 22 22 25 19 19 16 13 12 15 18 19 19 19 19 17 18 37 37 35 34 31 30 29 30
33 32 29 25 22 20 20 21 20 21 22 20 20 18 19 22 23 22 22 22 20 22 21 21 19 18 11 17 19 15 21 28 20 19 23 20 28 36 33 30 29 29 29 29 29

GFSSW_sfc_dewp_096.txt.gz
Dewpoint
56 55 54 54 52 51 51 51 51 51 51 50 50 50 50 50 51 46 37 32 45 48 51 36 35 36 32 24 26 36 30 27 25 26 25 31 31 32 31 27 28 26 25 27 50
57 55 54 54 53 52 51 51 51 50 50 50 49 49 49 51 47 41 40 46 52 51 36 33 32 29 29 33 22 32 31 26 30 28 28 32 33 31 29 29 29 28 29 29 38
57 56 55 54 54 52 51 51 51 50 49 48 48 48 50 50 21 7 52 51 51 53 35 35 25 24 22 26 21 23 25 28 29 31 30 26 25 26 26 25 26 25 25 27 25
57 56 55 55 53 52 52 52 51 50 48 47 47 48 49 44 17 26 56 54 52 51 31 26 23 15 14 23 26 21 23 24 26 28 24 22 23 21 22 23 23 24 24 24 22
56 56 55 54 53 52 52 51 49 48 47 46 47 48 45 26 16 24 54 54 46 36 29 24 25 18 12 15 23 24 25 25 24 24 24 25 24 23 20 20 21 21 21 21 22
56 56 55 55 53 51 51 50 49 48 47 46 46 47 42 5 13 31 34 47 37 28 26 29 28 27 26 25 19 19 18 17 19 18 19 17 19 18 19 19 18 18 19 19 21
56 55 55 54 52 51 49 48 48 48 47 46 47 45 41 21 28 30 39 44 40 32 33 30 30 31 28 21 25 24 24 23 23 23 22 19 17 16 18 18 16 16 17 17 18
56 55 54 53 52 51 48 48 47 47 46 46 48 44 36 38 38 38 36 28 30 37 38 35 34 26 21 21 20 20 23 20 22 22 21 18 16 16 18 18 18 17 16 17 18
56 55 54 52 51 49 47 47 46 44 45 46 48 45 35 42 42 42 36 26 26 30 28 26 21 19 20 18 17 20 18 19 19 21 20 17 19 19 19 19 17 17 16 17 18
56 55 53 51 50 48 46 45 44 46 46 45 47 36 36 26 38 40 39 31 26 27 24 22 20 16 18 17 14 18 18 20 18 18 18 16 16 19 19 16 17 17 17 18 28
55 54 52 50 48 47 45 42 40 40 43 36 35 29 29 36 37 25 36 32 29 26 21 21 18 15 16 18 19 19 18 18 17 18 17 17 17 17 19 17 17 19 32 43 43
54 53 51 49 48 47 44 36 37 40 34 37 37 36 33 36 36 35 29 27 27 25 23 21 18 19 18 17 17 16 15 15 17 18 18 17 17 19 19 18 33 41 42 43 43
53 52 50 48 48 45 40 34 33 37 30 27 29 35 33 35 32 36 24 23 22 24 23 21 21 23 22 21 19 19 17 17 17 19 20 18 17 17 18 35 42 42 42 43 43
52 50 49 47 39 38 37 36 34 35 22 14 23 33 34 37 34 32 24 20 21 22 24 23 24 23 23 22 21 19 21 21 20 20 17 19 15 14 28 35 39 39 38 42 42
50 48 46 41 40 37 39 34 31 37 13 12 24 32 35 31 25 31 23 20 17 19 23 22 21 23 22 22 23 21 24 23 22 20 21 20 17 18 32 33 37 37 41 43 41
46 46 44 42 41 39 37 40 41 24 11 16 24 28 33 30 28 25 21 23 21 18 20 20 21 19 20 21 23 22 23 24 24 23 17 17 17 16 23 35 36 39 42 42 40
45 44 41 42 36 40 40 39 21 15 18 22 24 28 25 24 27 25 21 23 21 18 17 20 19 20 23 19 22 21 18 15 14 17 15 20 19 19 28 37 39 41 42 41 39
44 42 40 40 39 41 41 32 14 9 7 12 20 26 26 25 19 22 22 16 11 23 20 16 14 22 25 25 23 22 19 17 13 17 15 19 18 21 36 39 42 42 39 38 37
42 38 35 37 37 41 35 24 15 16 14 15 27 23 12 9 12 11 14 14 12 13 20 21 21 22 19 18 24 23 19 24 19 22 19 18 21 27 38 39 41 38 37 36 35
38 37 38 41 41 39 32 23 20 20 20 22 27 22 9 11 10 11 13 18 14 19 20 17 8 22 17 22 20 18 25 24 25 20 16 18 21 23 32 35 37 35 35 34 33
37 34 39 41 40 36 27 25 19 21 21 21 18 17 14 13 14 14 17 20 19 21 23 21 16 15 14 17 13 12 20 28 28 27 23 19 20 35 35 36 35 34 34 33 32
34 28 38 39 32 32 28 27 27 23 24 24 26 24 21 19 17 18 19 21 25 23 20 24 24 16 13 19 23 21 30 28 23 22 24 25 22 36 35 34 34 33 33 32 32
30 32 35 37 27 29 27 23 25 23 24 24 23 24 24 20 16 19 21 25 28 24 20 19 19 8 4 13 16 20 20 23 24 24 19 18 20 33 37 36 35 34 34 32 31
30 22 28 34 33 28 22 23 22 26 24 25 24 24 22 20 21 19 21 23 26 29 31 25 20 11 2 8 21 19 20 21 21 10 14 14 15 18 30 34 34 34 33 32 30
33 23 26 23 27 25 24 25 21 20 24 24 24 25 23 18 19 19 21 20 22 26 26 23 17 21 19 21 18 18 13 11 15 16 15 8 13 17 30 33 34 34 33 31 30
29 29 28 25 26 24 24 22 21 20 23 21 22 21 19 18 18 18 19 19 18 22 21 24 20 18 16 17 14 12 14 16 18 18 18 18 17 27 35 34 31 30 30 29 28
33 32 29 24 21 20 20 22 20 21 21 21 21 20 20 21 22 20 21 21 18 20 20 20 18 16 10 17 14 6 15 26 27 28 28 19 20 32 30 28 28 28 29 29 28

GFSSW_sfc_dewp_099.txt.gz
Dewpoint
58 58 57 56 55 54 52 51 51 51 51 51 50 49 50 50 51 46 33 33 45 48 49 39 37 32 30 25 34 33 22 17 17 21 18 29 30 32 32 30 30 28 29 29 32
58 58 57 56 55 55 53 52 52 51 51 50 49 48 49 51 47 40 40 45 53 51 35 31 30 31 33 27 24 32 26 18 27 25 24 26 31 29 28 28 28 26 29 31 30
59 58 57 57 56 55 53 53 51 51 50 48 48 48 50 50 25 12 49 51 51 52 34 34 31 28 25 27 21 24 19 29 30 31 31 29 28 29 27 26 26 27 25 28 28
59 58 58 57 56 55 53 53 51 50 48 47 47 48 50 45 26 25 56 52 53 50 29 27 20 21 20 23 25 17 23 23 24 25 25 26 26 22 23 24 26 25 25 25 24
58 58 57 57 56 55 53 52 50 48 47 47 46 48 44 25 8 39 55 52 50 44 29 26 23 18 13 14 22 24 24 26 25 24 24 24 23 24 22 22 22 22 23 23 24
58 57 57 57 56 55 53 51 49 47 47 46 46 47 42 11 10 31 35 51 39 37 30 25 22 21 16 20 19 21 23 22 21 20 19 20 21 21 22 22 21 19 20 21 22
57 57 57 56 56 54 52 50 48 47 46 46 45 44 41 25 22 31 37 44 37 29 26 27 30 31 30 24 25 23 22 23 23 24 23 24 20 19 22 19 19 20 21 21 22
56 57 56 56 55 53 51 49 47 46 44 44 46 45 35 37 38 37 32 28 33 33 35 35 32 31 24 21 20 20 22 19 22 22 22 20 19 17 19 19 19 20 21 21 21
55 57 56 55 54 52 50 47 46 45 44 47 45 44 33 41 38 39 36 25 24 30 31 29 27 23 20 17 17 21 14 20 20 22 21 18 18 18 19 20 20 21 21 21 28
55 57 56 54 53 50 48 46 44 44 46 44 45 39 37 31 32 39 41 30 21 28 27 25 22 19 18 16 12 15 17 20 18 17 19 17 16 19 20 20 22 21 22 37 43
55 57 55 53 51 48 46 44 41 40 42 38 37 34 30 34 37 32 37 30 25 24 23 23 20 18 17 19 18 20 18 17 18 18 15 17 18 19 21 21 21 24 42 42 42
56 56 54 52 50 48 42 39 38 40 36 38 37 37 37 36 33 30 35 29 27 16 19 19 19 20 19 18 17 17 16 14 16 18 18 19 19 20 21 21 24 40 40 42 43
56 54 53 51 49 44 37 37 41 39 32 32 36 36 36 37 35 31 31 28 24 25 23 18 20 22 18 17 16 17 15 18 18 19 21 20 17 17 19 35 42 41 41 43 42
55 53 51 49 43 42 39 42 43 36 27 28 28 29 34 34 34 36 32 27 23 25 24 24 24 21 20 19 20 18 21 21 20 19 16 20 12 16 23 28 38 38 42 42 41
52 51 49 44 39 37 40 38 38 35 20 20 20 29 33 32 27 33 35 22 30 22 27 26 24 24 23 21 23 21 24 22 22 21 20 19 16 17 25 30 33 38 42 42 41
47 45 43 42 42 43 44 44 43 25 19 15 26 30 30 30 27 28 32 25 23 21 23 22 21 23 23 24 23 23 23 24 24 23 17 17 15 13 18 28 34 38 42 40 39
45 45 43 43 39 44 44 41 25 20 20 18 23 32 30 27 23 25 22 22 18 16 17 18 18 19 21 18 22 21 20 13 13 17 11 18 17 15 21 33 37 41 40 39 37
45 44 43 42 44 45 42 34 19 15 7 13 15 27 24 23 23 22 22 17 13 22 18 15 15 21 21 23 21 20 18 12 9 12 13 20 17 20 33 41 41 38 37 37 35
42 37 39 40 44 44 37 24 21 21 19 18 30 24 12 14 14 15 16 12 12 14 19 20 20 24 19 19 23 22 20 24 19 21 16 14 19 28 37 41 38 37 36 35 34
38 36 36 41 43 41 32 24 21 19 20 22 26 31 17 13 13 14 16 17 15 22 20 17 12 21 17 22 14 23 26 26 27 15 9 14 19 23 34 36 36 35 35 34 33
37 32 38 42 44 36 26 25 23 22 21 24 24 27 18 14 18 18 17 21 24 23 23 22 16 14 15 14 10 6 14 28 27 27 20 15 21 34 34 35 34 34 34 33 32
35 29 39 42 32 33 27 23 27 22 25 26 31 26 20 19 17 21 19 21 27 24 19 23 20 9 13 20 21 24 27 26 19 20 24 24 23 35 36 35 34 33 33 32 32
33 35 38 38 26 26 27 21 24 23 25 30 27 26 22 19 16 19 19 24 27 23 20 20 15 3 8 17 18 18 19 20 19 22 17 19 19 36 35 33 33 33 33 32 31
28 27 32 34 33 30 25 23 22 24 26 27 28 27 22 18 21 20 18 21 27 30 31 25 18 6 0 12 18 15 18 18 19 21 16 15 11 12 15 26 31 32 32 31 30
33 26 28 25 27 28 25 24 21 20 24 24 24 23 22 16 17 18 18 19 22 26 25 24 16 18 16 19 19 18 15 14 11 11 12 -1 7 12 16 23 32 31 30 28 28
30 30 29 26 27 27 26 24 19 20 21 21 22 19 19 17 18 17 18 17 16 21 21 24 21 18 15 17 17 14 13 11 11 13 15 18 21 25 26 33 31 30 30 29 27
33 33 29 24 24 23 22 23 21 21 20 22 22 20 19 20 21 22 22 23 21 19 20 19 20 14 5 14 11 6 12 12 21 25 25 23 25 29 31 30 28 28 29 28 28

GFSSW_sfc_dewp_102.txt.gz
Dewpoint
59 59 59 58 57 56 55 52 52 51 51 51 51 49 49 50 51 37 31 35 39 50 50 35 31 28 30 26 27 22 16 15 16 16 18 18 20 23 30 28 26 28 28 30 29
60 59 59 58 57 56 55 54 52 51 51 51 49 49 49 50 40 31 44 44 51 52 29 24 25 26 21 23 25 22 17 17 16 17 17 16 22 20 22 20 23 25 26 26 27
60 60 59 59 57 56 56 54 53 51 51 49 48 48 49 48 30 25 48 50 53 50 25 25 25 25 20 23 20 20 19 20 20 20 17 17 18 19 19 21 23 24 25 26 26
60 60 59 59 58 57 56 54 53 51 49 47 47 47 49 37 40 26 53 53 53 41 29 26 25 22 20 20 19 14 17 16 16 16 21 18 18 17 17 20 20 20 23 24 24
57 58 59 59 58 57 55 54 53 50 47 46 46 47 38 28 29 33 55 51 41 39 27 26 22 20 15 12 14 19 13 13 15 15 15 15 16 18 19 21 20 20 23 23 23
54 55 58 58 58 57 55 53 52 49 47 46 45 46 37 35 33 16 33 42 37 34 26 22 19 17 13 11 11 15 17 17 21 21 21 21 18 19 20 21 21 21 21 21 22
54 53 55 57 57 57 55 53 50 48 47 45 45 41 39 38 33 25 31 27 33 30 25 22 20 18 17 17 17 20 17 17 19 18 17 20 18 18 21 22 21 20 20 20 22
55 55 55 56 57 56 54 51 50 47 44 43 44 41 39 38 36 34 30 26 33 34 28 23 25 25 25 22 20 18 20 17 19 19 19 21 18 19 18 19 17 19 21 22 22
55 55 55 55 56 55 52 50 48 46 45 44 43 41 37 40 35 35 35 29 24 32 30 30 28 25 27 22 18 19 15 18 17 21 20 21 18 17 18 19 19 20 21 22 26
55 55 55 55 55 53 50 48 47 45 44 43 39 42 41 37 33 32 38 32 25 22 30 30 27 23 23 18 16 17 16 16 16 16 19 17 16 16 13 16 22 22 22 27 34
55 55 54 55 53 50 48 46 42 41 42 41 39 38 37 33 33 32 37 33 22 22 25 25 22 19 20 20 18 17 16 16 16 17 17 16 11 11 18 21 22 21 27 34 39
56 55 54 55 52 50 47 43 42 42 40 40 40 40 39 37 32 31 34 26 19 17 22 23 23 24 21 19 17 19 16 15 15 14 12 14 16 18 19 20 20 22 35 38 39
55 55 55 52 50 48 45 43 39 39 37 38 38 38 39 38 37 35 32 29 24 19 15 25 25 20 17 19 18 18 15 14 10 16 20 20 17 17 18 21 30 34 38 40 40
55 55 52 50 45 43 41 41 39 40 34 30 32 34 36 37 35 37 33 31 31 31 26 27 25 23 21 19 17 15 14 13 16 19 14 19 8 14 15 24 31 35 38 40 40
55 52 50 48 43 41 41 42 41 39 24 25 26 29 32 34 30 32 37 30 30 28 29 28 25 26 26 20 17 16 18 21 20 20 19 17 14 9 15 19 28 35 39 40 40
51 49 45 44 44 43 43 43 42 33 25 24 21 25 28 30 29 29 35 32 33 37 37 33 33 32 30 30 28 23 22 22 22 20 17 15 13 8 14 19 27 36 40 40 39
46 45 43 45 40 45 44 42 30 27 23 23 23 27 25 23 25 27 34 30 30 31 30 30 28 23 25 23 26 25 21 18 16 16 12 11 11 10 19 28 32 39 39 39 39
46 45 44 44 45 46 44 35 26 27 20 14 15 20 25 22 23 24 32 31 30 23 20 19 18 18 21 20 19 23 19 17 12 10 8 17 12 24 37 39 40 39 39 39 37
43 43 42 44 46 46 38 29 28 24 23 19 19 25 23 20 17 20 24 25 21 21 19 18 18 21 19 21 22 19 19 18 17 17 15 11 18 35 38 38 38 37 37 37 36
36 37 37 42 45 42 36 27 24 20 18 19 21 29 25 17 18 19 20 18 17 20 22 21 18 20 17 19 17 24 23 24 24 15 10 7 11 18 33 33 31 32 35 36 35
33 31 38 43 44 37 30 24 23 23 20 23 24 26 26 17 18 25 19 20 21 21 23 21 18 17 16 16 13 16 22 27 26 23 16 12 19 33 32 30 30 31 34 35 35
36 32 41 44 34 35 28 24 29 22 24 25 29 27 26 23 27 25 21 22 28 26 22 21 16 10 12 20 17 13 19 19 19 15 21 24 19 33 33 32 31 30 33 34 34
34 34 41 41 31 28 26 23 24 23 23 27 26 29 23 24 18 28 28 30 29 26 21 18 14 13 11 17 18 16 20 19 20 19 17 16 15 34 33 28 28 31 31 32 32
32 31 36 38 36 30 26 24 23 24 24 26 27 29 25 21 20 21 21 23 28 27 29 21 12 7 3 12 17 17 17 15 18 22 14 12 7 21 18 11 18 29 31 31 30
32 31 27 30 30 29 27 23 23 21 26 24 26 29 32 20 18 19 19 22 23 25 24 21 10 11 13 14 13 13 12 11 10 8 11 1 1 6 19 27 28 31 30 30 30
36 27 27 23 27 28 28 22 21 22 23 21 25 22 24 25 20 17 18 18 17 20 20 21 18 15 9 11 12 10 8 8 9 8 6 6 11 25 29 32 32 31 30 29 29
36 35 28 26 24 26 24 22 21 22 23 26 23 20 19 20 21 21 21 21 21 18 18 15 21 13 -1 9 8 4 9 8 7 10 19 20 25 27 29 33 30 30 29 28 28

GFSSW_sfc_dewp_105.txt.gz
Dewpoint
60 60 59 59 58 58 57 56 54 52 52 52 52 50 50 50 50 42 39 42 42 50 47 28 29 27 24 24 23 24 18 19 20 19 19 19 18 21 22 25 25 27 27 29 31
61 61 60 59 58 58 57 56 54 52 52 51 51 49 50 51 42 42 49 51 50 53 23 24 23 24 23 24 25 23 22 21 21 20 18 17 18 19 21 22 24 21 26 28 27
58 60 60 60 59 58 57 56 54 53 52 51 49 48 50 48 43 34 48 49 51 50 28 24 23 23 22 22 23 24 23 24 22 21 20 19 17 17 16 20 22 23 25 27 26
56 57 58 59 59 58 57 55 54 53 52 49 48 47 49 40 43 35 53 51 54 36 27 24 23 24 23 21 23 22 21 18 19 19 18 19 21 19 19 20 20 20 21 21 23
56 56 56 57 59 59 57 55 54 53 51 47 46 47 42 40 40 45 56 51 41 38 27 28 27 26 25 24 21 21 20 19 15 15 15 14 14 13 14 16 18 19 21 22 23
55 55 55 55 56 58 57 55 54 53 50 47 45 46 41 41 44 43 31 37 31 33 31 29 28 27 25 22 20 19 17 17 18 16 17 15 15 16 18 19 18 18 19 22 22
53 54 55 55 55 56 57 55 53 52 49 46 44 41 41 42 44 40 29 31 37 34 34 33 29 26 25 24 23 21 18 19 18 19 20 19 18 19 18 19 19 19 22 21 21
53 53 54 55 55 55 56 54 52 50 47 43 42 41 42 44 43 42 41 32 31 32 32 31 29 25 24 25 23 22 23 20 22 21 19 19 20 19 19 19 20 20 20 21 22
53 53 54 55 54 55 55 53 51 48 46 44 43 43 40 44 40 39 39 36 34 31 33 31 26 28 26 25 24 27 21 23 22 22 20 19 20 20 20 19 19 19 19 21 22
54 54 54 54 54 55 53 51 49 47 45 42 41 41 40 37 38 33 35 36 35 32 30 32 28 28 26 25 25 26 25 23 21 22 20 20 20 20 18 17 19 19 20 21 23
54 54 54 55 54 52 49 47 44 42 42 41 38 37 37 36 35 33 36 35 32 26 24 28 27 26 28 29 27 26 25 26 21 20 20 19 17 16 18 16 16 19 22 22 28
55 55 55 55 54 50 50 46 45 43 41 42 41 39 38 39 37 36 33 32 31 27 26 26 28 28 28 26 26 26 24 24 25 23 19 18 16 14 14 14 18 20 21 27 34
55 55 55 54 51 51 48 48 41 44 41 38 37 37 37 37 36 35 35 33 30 26 25 24 27 28 27 28 32 31 27 23 25 27 20 16 13 15 17 18 19 19 26 34 35
55 55 54 52 49 49 46 42 42 48 37 30 31 33 34 36 35 35 36 34 31 27 26 26 26 27 27 29 31 29 29 23 25 21 14 16 14 16 16 17 19 28 34 35 37
55 54 52 50 46 45 42 41 41 45 26 18 26 32 32 34 29 27 33 35 31 29 32 29 27 27 27 28 26 30 28 27 26 18 17 17 16 16 14 16 22 30 34 38 39
54 51 50 48 47 46 43 42 46 34 23 23 23 23 27 32 30 25 30 34 34 34 37 35 38 33 27 25 28 33 32 26 25 21 19 23 18 15 15 15 22 31 36 39 38
51 49 46 47 43 46 45 44 32 28 27 25 21 23 24 25 26 25 28 32 30 32 32 33 32 35 32 31 30 32 32 24 22 22 21 17 16 19 18 18 26 35 37 39 38
46 46 45 45 46 45 44 37 28 26 27 21 21 21 24 25 24 23 25 30 29 30 31 32 29 31 31 29 30 29 29 22 18 17 17 18 17 28 33 36 38 38 38 38 36
44 44 44 45 46 46 39 32 30 32 27 23 19 21 23 22 23 22 23 29 29 30 28 24 21 22 22 23 23 30 25 23 21 22 19 23 28 35 36 36 36 36 36 35 34
40 39 41 46 48 44 36 32 29 26 22 20 21 29 23 23 22 18 19 25 29 32 28 27 24 20 19 19 21 23 27 22 25 21 13 15 20 26 35 33 32 31 32 31 32
43 38 41 44 45 38 33 29 26 24 21 22 23 27 25 24 21 19 22 20 27 21 23 24 23 22 19 18 19 19 30 28 29 25 19 16 25 36 34 31 30 30 30 30 31
37 36 42 45 34 36 30 28 28 24 23 23 26 26 25 26 21 28 24 22 25 22 23 27 25 22 17 21 19 18 17 23 27 21 26 21 23 34 32 31 26 26 27 29 31
39 35 42 42 32 31 29 26 24 24 23 26 26 26 26 27 24 34 26 30 30 26 25 24 23 16 15 17 17 14 15 18 20 21 16 18 19 32 31 26 20 15 28 28 30
36 34 35 37 37 33 27 26 23 24 24 26 31 28 26 26 25 29 30 30 27 25 29 25 19 18 14 16 17 17 14 14 17 23 16 11 7 23 12 13 23 29 30 29 30
38 35 32 31 33 30 30 26 24 23 23 25 30 29 28 25 24 24 25 26 25 27 23 23 18 14 10 10 10 12 13 12 11 11 11 5 2 4 23 27 31 30 30 30 29
38 31 29 28 28 28 31 29 23 23 23 24 26 27 30 28 24 21 22 22 19 21 20 20 16 16 12 10 8 6 4 5 5 5 6 3 3 27 28 29 32 31 30 28 28
39 37 30 29 28 29 30 25 24 27 25 27 27 25 28 28 23 23 22 21 21 21 21 19 22 14 3 7 5 2 7 5 5 3 10 12 24 25 29 30 31 31 28 28 27

GFSSW_sfc_dewp_108.txt.gz
Dewpoint
61 61 61 60 59 59 58 57 57 54 53 52 52 52 50 52 49 45 45 47 45 50 44 23 28 30 30 26 25 24 21 20 21 20 21 21 19 20 21 20 24 24 26 29 32
57 59 61 61 60 59 58 57 56 55 53 52 52 51 50 52 42 44 50 54 54 51 20 22 27 26 24 25 25 23 22 23 24 23 22 21 19 18 19 21 24 25 28 29 31
55 56 56 58 59 59 58 57 56 55 53 52 51 49 51 47 43 33 51 52 51 48 26 27 28 27 27 26 25 24 23 25 25 25 25 22 20 21 19 19 21 24 26 29 31
55 55 56 57 57 58 58 57 56 55 53 52 49 48 50 42 39 37 53 52 53 35 28 30 29 28 27 27 27 24 24 24 23 23 21 19 20 19 21 23 22 23 23 23 24
54 55 55 55 56 56 57 57 56 55 53 50 48 47 43 43 43 46 57 51 40 32 33 32 29 30 28 28 28 27 26 24 23 22 22 20 17 18 17 18 18 18 19 22 25
54 54 54 55 56 55 55 57 56 55 53 49 47 46 42 41 44 45 44 40 36 34 34 35 32 32 31 30 29 27 25 24 23 19 19 19 19 18 18 18 17 18 19 22 23
54 53 54 54 54 55 55 56 55 54 52 48 46 42 42 42 42 42 41 37 34 38 36 36 35 33 32 31 30 28 25 24 24 24 22 21 20 20 23 22 21 20 20 20 23
53 53 54 54 54 55 55 55 54 53 50 47 44 42 41 42 42 42 41 39 40 34 33 34 36 34 32 31 28 27 27 26 27 26 25 23 21 21 22 21 21 20 22 23 24
53 54 54 53 54 54 55 55 54 51 48 46 43 43 38 45 41 40 40 38 39 36 33 33 35 33 31 28 27 28 26 27 28 29 26 24 24 23 21 23 20 21 22 22 23
53 54 54 54 54 54 54 53 51 48 46 44 43 41 40 34 34 37 34 38 37 37 35 33 32 31 28 26 27 25 24 25 27 28 28 25 24 22 22 21 22 21 21 22 23
53 54 54 55 54 53 50 48 45 43 42 41 38 36 35 34 35 34 33 35 34 35 31 30 28 27 24 25 26 26 25 25 26 27 28 29 27 21 22 23 22 21 21 22 25
53 53 54 55 54 51 49 47 44 44 40 43 42 39 37 36 34 32 34 30 32 29 28 26 23 22 23 24 26 27 28 28 30 29 27 28 31 33 21 21 21 19 19 23 26
52 53 54 55 53 50 49 48 44 45 39 36 37 40 38 37 35 33 32 32 29 28 27 25 24 23 23 26 25 24 25 28 28 28 28 28 30 31 26 20 18 19 19 23 34
52 54 54 54 49 50 48 45 47 49 37 27 28 31 33 35 32 33 34 32 31 28 28 27 26 24 22 24 25 25 27 28 28 29 29 29 28 28 23 21 17 18 24 34 37
52 55 53 51 49 48 44 43 48 47 23 7 20 30 30 30 27 28 32 32 30 30 30 28 27 27 25 23 23 26 33 32 34 32 29 28 25 25 22 23 23 27 34 38 38
54 54 52 49 49 46 43 46 48 35 22 17 23 27 28 30 30 26 27 31 34 32 32 32 37 35 32 31 29 34 34 32 32 30 27 26 23 26 26 23 20 30 38 38 38
54 53 51 49 45 43 45 46 33 28 19 15 17 22 23 24 28 29 27 28 30 31 31 30 32 33 33 30 28 30 33 26 25 26 21 21 23 28 28 36 27 40 39 38 38
47 47 46 46 45 45 47 39 30 20 22 20 21 18 20 21 23 25 25 23 30 29 26 25 25 29 33 30 27 27 31 24 20 22 20 23 29 31 41 40 42 43 41 36 36
45 45 44 46 48 48 41 32 29 26 22 23 21 20 19 21 22 24 25 23 24 31 30 25 24 29 30 30 29 32 31 30 25 27 28 28 28 33 41 39 40 42 38 33 32
42 41 42 47 48 45 36 32 32 32 34 30 27 28 22 22 23 28 24 24 22 32 30 32 24 29 28 28 27 30 30 31 31 22 21 19 25 32 35 36 34 34 31 29 29
44 38 42 46 46 37 32 34 33 34 32 25 25 24 27 25 25 31 32 24 25 30 29 33 25 27 27 23 18 22 23 33 35 25 23 18 30 39 37 37 32 29 28 29 30
42 34 43 46 33 34 32 33 36 32 25 22 24 25 25 26 25 23 29 30 31 34 32 30 26 23 22 20 19 21 22 32 31 28 31 28 27 39 38 35 27 25 27 29 30
38 36 43 42 30 31 32 30 32 25 25 23 23 25 27 27 25 28 29 32 29 25 24 28 26 20 23 23 19 18 21 20 23 23 18 18 19 39 33 25 27 28 28 30 30
38 32 34 36 36 34 30 30 30 25 24 25 25 29 26 26 25 28 31 30 28 27 30 28 23 21 21 23 20 19 15 14 19 23 19 16 20 29 23 23 30 30 30 30 29
37 35 31 28 30 33 33 27 28 26 24 26 28 28 27 24 23 26 30 29 28 27 26 25 22 20 18 11 10 14 10 10 10 11 17 12 6 24 28 32 31 30 29 28 28
36 37 34 29 30 32 32 31 25 24 24 22 27 27 27 27 25 24 31 27 25 24 25 27 23 22 18 12 9 7 4 5 8 8 5 2 7 29 31 31 31 30 29 28 27
38 38 38 32 35 30 30 30 29 27 27 23 26 27 27 29 30 26 27 27 24 25 27 24 25 18 12 12 6 5 9 4 7 5 12 10 24 25 28 28 29 29 28 27 26

GFSSW_sfc_dewp_111.txt.gz
Dewpoint
58 59 61 61 60 60 59 58 57 57 55 54 53 53 52 53 50 44 45 49 45 52 48 22 22 28 30 30 30 25 22 21 20 21 21 24 25 22 22 23 27 27 30 29 34
56 56 56 57 59 60 59 58 57 57 56 54 53 52 52 52 43 43 51 53 52 51 24 19 24 29 26 25 25 23 22 21 22 23 24 25 24 22 21 23 25 27 30 32 32
54 54 55 56 57 57 58 58 57 57 56 54 53 51 52 48 42 38 51 50 51 49 27 26 30 30 27 27 26 25 23 24 24 24 26 25 23 23 19 21 26 27 29 30 31
54 54 53 54 56 57 56 56 58 57 56 54 51 49 51 43 38 36 53 54 53 42 29 29 31 29 28 27 28 27 28 26 25 24 24 23 24 22 19 21 23 22 24 25 27
55 55 54 53 54 56 56 55 57 57 56 54 50 47 43 42 43 47 57 54 44 32 30 29 33 30 29 29 30 28 28 29 28 26 24 23 20 21 21 19 19 18 18 21 23
55 55 55 54 55 55 55 55 56 57 55 53 50 46 42 40 42 43 44 45 35 33 32 34 35 34 32 31 31 31 31 30 28 25 25 25 24 21 21 21 19 18 19 20 24
55 54 54 54 54 52 53 55 55 56 54 52 49 43 42 42 43 42 42 42 39 37 36 36 36 34 35 33 34 31 28 28 28 26 25 25 23 23 24 22 21 22 21 21 22
54 53 53 54 54 52 52 54 55 55 53 51 46 43 41 44 44 43 43 42 41 40 34 34 33 33 33 33 30 29 28 25 27 27 28 28 26 26 23 22 22 22 22 21 22
53 53 53 54 54 53 53 54 55 54 51 48 44 42 41 44 42 42 42 40 39 39 37 32 34 33 34 31 29 29 26 26 26 29 29 29 27 28 32 29 23 22 22 21 23
53 53 53 54 54 54 54 53 52 49 47 45 44 42 42 34 40 40 40 40 39 39 39 35 32 30 31 30 26 25 26 25 24 24 31 31 29 28 30 32 28 22 21 21 23
53 53 53 54 54 53 50 48 45 44 43 41 41 40 35 36 34 36 34 35 36 37 34 35 31 28 30 30 29 27 25 23 24 28 29 30 30 31 32 33 32 22 21 21 36
52 52 53 54 54 51 49 46 44 43 41 43 42 41 38 38 35 34 36 32 34 31 32 31 28 29 29 29 26 23 22 24 26 27 28 28 29 29 30 32 33 31 21 23 39
52 52 53 53 53 51 48 47 46 46 39 37 42 42 42 41 38 35 34 33 31 30 29 28 27 28 26 24 22 21 24 24 23 25 29 28 27 28 29 30 32 31 21 24 38
51 51 52 53 50 49 48 50 46 48 33 32 31 35 39 38 36 37 36 33 31 30 29 28 28 28 27 25 24 23 26 31 31 31 29 32 26 27 28 28 30 34 27 37 39
50 51 52 51 48 48 46 45 47 45 22 20 23 33 34 35 31 32 36 34 31 30 31 29 29 27 31 29 31 29 34 33 33 31 30 28 29 25 27 25 27 34 35 38 37
51 52 53 51 50 47 45 45 47 34 22 21 27 28 30 34 30 30 31 33 34 33 32 30 36 36 34 33 32 34 33 31 32 32 26 25 25 23 23 29 35 38 38 36 35
52 54 53 49 46 44 45 47 33 26 22 13 21 27 28 28 28 29 28 29 30 29 30 31 32 34 35 32 32 34 30 24 20 25 21 20 26 27 29 35 40 41 41 36 35
48 51 48 48 45 44 47 39 27 25 22 19 20 20 22 23 24 28 28 27 30 31 27 27 24 29 34 32 29 30 28 23 19 20 25 28 28 30 41 44 43 41 40 37 34
46 45 44 46 47 48 43 32 29 27 23 23 21 18 19 21 21 22 26 27 26 30 28 27 24 30 30 32 31 32 29 29 27 26 23 24 30 36 38 41 42 38 37 34 31
42 42 42 48 49 46 38 32 31 31 28 31 28 29 21 20 20 24 30 28 27 29 32 32 28 29 30 32 32 31 32 29 30 21 20 21 28 29 34 35 38 35 31 32 34
43 38 43 48 46 38 32 33 34 33 31 32 32 30 29 27 26 30 32 34 33 32 31 33 30 27 29 30 27 28 29 32 33 32 24 22 30 34 32 36 36 35 32 30 30
41 33 43 46 34 33 32 34 36 33 34 34 32 30 29 28 26 26 31 33 32 33 33 35 31 25 25 29 29 26 27 29 28 27 30 29 29 38 36 37 37 30 29 29 30
37 35 43 43 29 30 32 31 33 34 36 34 26 27 28 27 27 30 32 36 32 32 37 37 32 25 22 27 29 24 24 31 31 32 25 21 27 38 38 33 30 29 29 28 29
36 29 34 35 35 33 30 32 34 38 31 32 26 26 29 27 29 28 33 32 33 29 35 33 28 23 20 26 28 22 19 22 26 23 22 19 29 33 30 30 30 29 28 27 27
37 33 31 27 30 33 33 32 29 32 29 27 28 28 29 26 27 25 30 33 30 30 29 30 24 25 22 25 18 14 14 16 18 19 19 17 26 31 31 30 30 29 27 27 27
33 34 37 30 29 31 32 36 32 30 31 24 29 30 29 27 27 26 34 34 28 26 29 30 27 25 23 20 13 12 9 8 10 10 12 21 27 30 30 30 29 28 27 26 25
39 39 37 33 32 30 27 29 31 32 30 27 27 28 29 30 31 29 34 33 29 26 26 25 25 23 21 20 17 10 20 18 22 25 25 23 28 28 27 27 27 27 27 27 26

GFSSW_sfc_dewp_117.txt.gz
Dewpoint
57 57 57 57 56 56 57 58 58 58 58 58 56 55 55 54 52 45 44 48 49 57 49 25 22 25 29 29 31 25 21 21 22 21 22 24 24 26 25 23 26 25 28 30 37
54 54 54 55 56 56 56 56 56 58 58 58 56 55 54 53 45 43 49 55 57 53 23 22 24 30 27 26 26 24 21 21 23 23 23 24 25 25 25 26 27 24 28 33 32
53 52 52 53 54 55 56 56 56 55 58 58 56 54 53 50 40 38 55 56 53 49 28 26 28 31 29 27 26 24 22 23 24 25 29 27 29 26 24 25 25 26 26 27 29
54 53 53 53 53 54 55 55 55 55 56 58 55 53 52 44 9 40 54 52 54 42 31 28 31 30 28 27 29 26 27 29 29 31 31 30 29 27 26 27 26 26 26 24 22
54 54 53 53 52 53 55 54 55 55 55 57 54 50 45 43 41 46 55 54 45 34 31 30 33 32 30 30 32 31 31 32 32 30 30 30 29 28 28 28 27 26 24 23 24
53 54 54 54 53 53 54 53 52 55 55 57 52 47 44 39 41 42 43 42 44 38 32 30 34 35 34 33 32 33 33 31 31 31 30 29 29 27 27 28 27 28 28 28 26
53 54 54 54 53 54 52 50 51 52 53 56 51 44 42 41 44 44 44 43 42 38 34 35 36 34 35 31 34 32 30 30 30 30 28 28 25 25 25 30 30 31 32 32 33
52 54 53 53 54 54 53 50 52 53 52 55 50 43 41 45 45 44 44 43 44 43 42 41 39 35 32 33 32 30 30 27 27 27 27 29 25 28 30 28 29 31 32 32 32
53 53 52 53 53 53 54 53 53 54 55 51 44 44 40 46 41 43 44 42 42 42 41 40 37 32 32 30 29 30 26 26 26 28 27 27 25 30 27 29 30 31 31 31 32
52 52 53 53 53 53 53 53 53 51 49 46 45 41 40 31 37 41 44 42 41 40 39 38 32 31 31 29 24 25 27 24 26 25 26 27 26 26 26 30 31 30 29 30 36
51 52 53 52 52 53 50 46 44 42 45 40 39 38 37 38 39 39 42 41 40 38 35 33 29 28 29 31 30 29 27 27 27 28 27 26 25 25 27 28 28 28 28 32 43
51 52 52 52 52 53 48 42 41 42 39 42 42 41 40 40 36 35 40 37 37 34 35 33 31 32 32 30 30 30 29 28 29 29 26 25 25 27 27 27 28 28 29 41 42
51 52 52 52 52 52 46 45 48 46 39 39 42 41 41 41 36 34 37 35 33 32 33 33 32 34 32 31 30 29 29 28 27 29 29 28 26 23 24 25 26 28 29 40 42
51 51 50 51 50 49 47 49 48 46 29 29 38 40 41 41 38 36 36 34 32 31 31 31 32 30 29 29 30 27 28 29 30 27 24 30 22 22 24 30 36 40 41 40 40
51 49 49 51 45 46 45 48 48 42 1 23 36 41 41 38 32 37 35 34 31 31 31 29 29 30 29 28 28 27 33 31 31 28 27 28 24 25 31 34 39 40 39 40 40
50 49 49 49 50 47 48 48 46 22 -2 20 36 37 38 37 34 37 35 36 33 32 32 29 33 30 29 31 31 34 31 30 31 29 20 23 22 22 32 33 36 40 38 38 38
49 48 48 49 43 49 48 46 31 16 18 17 29 36 35 34 32 31 34 31 31 29 29 30 31 33 34 32 34 31 30 28 21 21 20 24 24 30 34 34 37 37 37 37 37
48 47 49 48 48 48 47 39 23 24 23 23 26 34 31 32 31 31 32 31 31 29 28 27 23 33 35 32 31 30 29 25 18 18 20 25 20 30 36 36 36 36 36 36 35
47 44 46 48 49 49 42 30 24 25 26 24 18 19 23 29 28 30 29 29 30 30 25 27 27 30 34 33 32 30 27 28 27 27 21 22 30 35 36 34 34 35 35 34 34
42 41 42 48 49 47 38 30 29 28 28 29 22 24 19 19 26 28 27 29 28 31 30 29 25 29 32 33 32 30 31 26 27 19 18 20 25 23 31 33 35 34 34 34 34
41 37 41 48 48 42 31 30 28 30 30 28 28 28 29 27 24 25 25 30 31 31 31 31 29 27 32 31 30 30 29 30 28 25 20 20 20 29 33 35 34 34 34 33 32
41 34 40 48 36 35 33 33 34 32 31 32 35 32 30 29 28 26 29 31 33 34 31 35 33 29 28 30 32 31 29 31 22 22 27 19 20 35 36 36 34 33 32 32 31
37 36 42 43 30 30 32 32 33 31 31 33 30 33 34 30 28 29 29 35 33 35 35 36 32 26 28 31 33 33 30 31 31 30 26 21 22 37 36 36 32 28 27 27 27
35 30 33 37 36 31 31 33 32 36 34 36 34 33 31 29 31 28 31 34 34 35 41 39 34 28 22 25 29 30 30 30 30 27 25 25 28 34 35 28 27 27 26 26 26
36 31 32 27 30 33 32 31 29 32 34 36 32 34 31 29 28 29 32 31 30 39 37 35 29 31 32 31 32 32 30 30 27 27 25 22 28 32 32 28 27 26 25 25 24
31 32 35 30 30 32 31 30 29 29 30 35 33 33 35 31 31 25 32 31 28 31 31 32 26 28 27 29 27 27 21 11 23 26 27 27 30 31 29 28 29 27 25 23 23
36 39 36 31 28 29 28 28 27 30 30 30 32 33 32 34 35 34 32 34 34 28 29 30 29 28 24 30 32 27 23 15 25 26 28 25 28 29 29 28 27 27 25 24 23

GFSSW_sfc_dewp_120.txt.gz
Dewpoint
57 56 56 57 56 55 55 55 55 56 57 58 58 57 56 55 53 46 41 43 50 57 48 25 23 30 28 29 29 25 22 22 22 22 23 25 25 26 26 25 27 26 26 26 32
54 53 53 53 55 55 55 56 55 55 56 58 58 56 55 54 46 43 47 55 55 50 25 26 27 29 29 25 26 25 23 22 24 23 23 25 27 28 26 27 28 27 30 30 30
53 53 52 53 53 54 55 55 55 55 55 57 57 55 54 50 38 28 56 54 52 45 30 28 28 31 29 29 29 26 22 23 24 25 31 30 30 29 27 27 29 28 28 30 26
54 54 53 53 53 53 54 54 54 54 55 55 57 53 53 44 3 41 54 53 53 39 31 29 31 29 28 30 29 27 26 28 30 32 30 30 30 29 27 30 30 28 28 27 25
53 53 53 53 52 53 54 54 53 53 55 55 55 51 45 42 38 45 51 51 44 34 33 31 33 32 29 32 32 31 31 33 32 31 31 31 30 29 29 29 29 28 28 29 30
53 53 54 54 53 53 53 52 51 52 54 55 52 50 44 36 38 43 44 42 42 39 35 31 34 34 34 33 32 33 33 32 32 31 31 30 29 28 28 29 31 32 32 31 31
53 53 54 53 52 53 53 50 50 52 52 54 51 44 43 39 44 44 44 43 42 40 35 35 35 34 34 32 34 32 30 30 29 29 28 28 21 25 28 27 26 27 31 32 32
52 53 53 53 53 53 53 51 50 50 50 55 50 44 40 44 45 45 44 43 44 43 41 41 40 35 32 33 32 30 29 26 25 28 27 26 22 25 29 26 25 27 30 31 31
53 52 52 52 52 53 53 53 51 53 54 51 44 43 38 44 38 41 44 40 43 43 42 40 37 35 32 30 28 29 23 26 26 26 27 26 25 28 28 26 26 27 30 31 31
52 51 52 52 52 52 53 52 53 51 48 46 45 38 37 27 35 42 44 42 40 41 39 38 33 31 31 29 20 23 26 23 25 24 25 26 27 28 27 26 28 28 29 29 43
50 51 52 52 52 52 49 46 41 40 45 38 38 36 36 38 39 40 43 40 39 37 34 33 32 30 31 30 28 27 25 25 26 28 29 28 27 26 26 28 28 28 28 33 42
50 51 51 51 52 52 47 41 39 44 38 41 41 41 41 41 36 33 41 37 37 34 35 33 31 32 31 31 30 30 29 28 29 29 27 25 26 27 28 28 35 39 38 41 41
50 51 51 51 51 52 48 43 47 45 37 38 41 40 40 40 35 35 39 37 35 33 34 32 31 34 32 31 29 29 29 29 28 28 29 28 25 25 30 38 41 39 39 39 38
50 51 50 50 47 45 43 47 47 45 25 25 39 41 41 40 37 38 37 34 32 33 33 33 34 31 32 31 31 29 30 30 28 28 23 28 22 28 32 34 38 38 38 39 38
51 50 49 50 42 44 43 48 46 37 -1 25 38 41 41 35 34 37 35 34 31 31 30 27 29 30 29 28 30 28 30 29 30 28 26 27 24 24 32 31 36 37 37 37 38
51 49 49 47 49 46 48 48 45 18 -5 25 37 37 37 39 35 37 34 35 33 31 32 29 32 30 29 31 30 33 31 29 30 27 23 25 24 21 29 32 35 35 36 36 37
51 49 47 48 41 48 48 47 29 13 11 19 33 37 36 35 32 34 32 31 29 27 27 29 29 32 33 31 33 31 29 24 20 21 21 24 23 26 33 35 35 34 35 35 36
50 49 47 46 46 48 47 39 23 15 17 22 31 35 32 32 30 31 31 29 30 29 28 26 21 31 34 30 30 29 28 26 19 17 18 25 21 28 34 34 34 34 34 35 34
48 43 45 48 48 48 41 29 22 24 26 21 15 23 28 29 27 30 31 30 30 30 25 26 26 33 35 33 32 30 29 30 28 27 23 22 28 33 35 34 35 35 35 35 34
42 41 43 47 49 46 36 28 28 28 28 28 15 18 15 22 28 28 28 30 30 31 29 28 24 29 32 32 32 30 30 27 29 21 18 19 22 23 31 32 33 34 34 35 35
41 37 40 48 48 40 30 28 26 30 30 27 27 28 28 26 27 26 27 28 30 30 31 29 27 27 32 31 29 30 29 29 29 27 19 19 20 26 31 32 32 33 35 33 32
40 32 41 48 36 36 32 31 33 29 31 30 33 31 28 29 28 27 28 28 33 33 30 32 30 26 27 31 33 32 30 30 27 22 25 19 20 34 34 34 34 34 32 31 30
36 36 41 43 30 31 33 32 31 31 30 32 30 33 34 30 27 28 28 33 34 35 33 37 32 27 24 28 32 31 31 30 30 30 26 20 20 34 34 35 34 32 29 27 27
35 29 34 38 37 30 30 32 32 34 32 34 33 32 30 29 31 29 29 34 34 35 40 38 32 27 21 21 28 30 32 33 32 28 27 24 28 31 35 34 29 27 26 26 26
37 32 32 28 31 33 32 30 29 29 34 34 35 34 31 29 29 28 30 32 31 35 37 35 28 31 30 31 32 30 30 31 33 32 28 28 26 31 33 30 27 26 25 25 24
32 32 35 30 30 33 31 30 29 29 30 33 32 32 32 31 28 26 29 31 30 35 34 33 26 30 27 30 31 30 30 30 32 34 33 30 29 33 30 28 26 26 25 24 24
38 39 31 28 28 30 30 28 26 30 30 30 31 34 34 32 34 34 36 34 34 33 29 31 29 28 24 28 27 26 28 26 23 25 28 28 28 29 28 27 27 26 25 24 23

GFSSW_sfc_dewp_123.txt.gz
Dewpoint
57 57 57 57 55 55 55 55 55 55 55 55 58 58 56 56 53 45 37 41 49 57 49 27 29 31 29 30 28 26 26 26 25 23 25 25 28 30 28 26 29 27 27 30 33
55 54 53 53 54 54 54 55 55 55 55 55 57 57 55 55 46 41 47 53 54 50 29 32 31 33 31 26 27 26 26 26 25 24 24 29 30 30 29 30 29 28 32 32 33
54 53 52 52 53 53 54 54 54 54 55 55 57 56 54 51 35 24 55 53 54 45 30 27 30 32 31 28 26 25 25 25 24 26 32 31 31 30 29 29 30 31 31 32 31
54 54 53 52 52 52 53 54 53 53 54 55 56 55 54 44 2 40 55 54 54 38 32 31 32 31 29 28 29 26 26 26 31 32 32 31 31 29 29 29 31 30 31 31 31
54 53 53 53 52 52 54 54 52 52 53 54 55 52 46 37 32 46 50 50 42 36 34 32 33 32 29 30 33 31 31 33 33 32 32 32 30 29 29 30 30 30 30 30 32
53 53 52 54 53 52 53 53 51 52 53 54 53 51 45 28 37 44 43 41 40 40 33 33 35 35 34 33 32 33 32 32 32 31 31 29 28 28 28 29 28 27 28 30 32
53 52 53 53 52 52 53 53 50 52 51 52 52 44 43 33 43 44 44 42 41 39 38 35 35 34 34 32 33 32 30 30 28 28 27 28 20 24 28 28 27 26 28 29 33
52 53 53 53 52 52 53 53 51 50 50 55 49 44 37 43 45 44 44 42 43 42 40 41 41 35 33 33 31 30 29 19 24 27 28 25 19 24 29 28 26 28 28 30 41
53 53 52 52 52 52 53 53 53 52 54 51 46 42 35 43 37 40 43 39 42 42 41 40 38 36 33 30 27 29 16 24 23 26 26 26 24 27 29 29 28 28 29 32 42
53 51 51 52 52 52 52 53 53 50 48 46 45 37 35 24 35 43 44 42 41 41 40 38 34 34 32 29 12 16 23 26 23 24 27 28 27 29 29 28 32 37 37 41 40
52 50 51 51 51 52 49 47 41 40 44 37 36 33 35 39 40 41 43 40 40 38 35 35 34 31 31 32 26 26 25 25 28 29 30 29 28 27 30 39 39 40 41 41 39
50 51 51 51 51 51 47 43 38 44 38 40 40 40 41 40 34 34 42 36 37 32 35 32 32 34 32 32 30 30 29 28 29 30 29 27 27 32 38 40 39 38 38 38 37
50 51 51 51 49 51 46 44 47 46 39 36 41 39 37 39 34 32 39 38 36 34 34 30 27 34 32 31 30 30 30 29 29 30 29 28 25 32 35 38 38 38 38 37 37
50 51 50 49 48 46 43 46 48 47 28 22 37 40 41 39 31 36 39 37 34 33 34 33 34 32 33 31 31 29 31 31 30 27 24 28 22 28 33 34 37 37 37 37 36
50 51 50 50 44 44 43 48 48 36 6 26 38 42 41 32 35 37 35 34 32 33 32 27 30 31 31 30 32 28 30 29 29 28 29 27 26 28 30 30 35 35 36 36 37
51 51 49 48 48 47 49 49 44 25 3 27 37 38 37 38 36 34 33 35 34 32 32 28 32 30 30 32 30 32 31 30 31 29 25 25 24 24 27 29 33 35 35 36 37
51 50 48 46 42 48 49 47 30 15 10 24 32 37 35 34 34 32 31 31 29 28 28 30 30 32 32 31 33 31 30 23 23 23 20 25 25 24 31 33 34 34 35 36 36
50 50 48 46 47 49 48 39 22 11 13 21 34 36 32 32 30 33 30 29 31 28 28 26 20 29 32 29 28 30 27 22 17 19 18 25 23 25 33 34 34 35 36 36 35
49 46 45 46 47 49 42 29 23 23 23 17 23 29 30 31 28 31 28 28 30 30 22 26 24 32 34 33 30 31 29 30 28 27 25 22 24 31 34 33 35 36 36 34 34
43 43 42 46 48 45 36 28 28 27 27 27 11 19 19 26 28 29 31 31 29 31 30 28 23 29 32 32 32 31 31 30 32 22 18 19 21 26 32 33 35 36 36 35 34
42 38 41 48 48 38 30 29 27 30 30 26 25 27 27 22 29 29 27 28 31 31 31 30 27 27 33 32 30 30 29 29 29 29 20 15 23 33 34 33 33 34 35 35 33
40 32 42 48 34 34 30 29 31 28 28 29 31 32 27 28 27 26 26 27 33 32 31 32 31 27 27 33 32 31 30 30 28 26 28 26 24 33 34 34 34 33 34 33 31
36 35 42 44 28 29 29 28 29 30 28 30 30 32 34 30 26 29 28 33 34 34 33 36 33 27 28 32 33 32 32 32 33 31 27 25 21 34 34 34 34 34 32 30 27
36 30 35 38 37 31 27 27 28 31 30 31 32 32 31 30 32 30 30 33 35 34 41 38 34 29 23 26 30 31 32 32 33 29 27 25 24 32 33 34 34 33 30 27 26
36 33 33 28 32 32 31 30 28 27 32 32 30 33 30 28 28 28 29 30 32 34 39 37 29 30 29 28 29 28 27 29 30 30 27 24 26 29 34 35 35 30 27 26 25
32 33 35 31 32 31 29 27 25 28 30 34 33 32 33 31 29 26 30 31 29 35 37 35 29 30 27 30 30 29 29 29 29 30 31 31 32 34 35 36 29 28 26 25 25
36 39 34 31 30 31 30 27 28 29 31 31 33 32 32 33 34 35 35 34 34 33 32 33 31 29 24 27 30 27 28 28 28 29 29 28 30 32 31 30 29 28 26 25 25

GFSSW_sfc_dewp_126.txt.gz
Dewpoint
59 58 56 55 55 54 54 54 55 55 55 55 55 57 57 56 54 38 25 39 47 58 55 30 33 36 30 31 28 27 28 21 24 26 26 26 26 28 31 29 31 29 30 34 34
57 56 55 54 52 52 53 53 53 53 54 55 55 57 56 55 42 30 48 54 55 52 35 36 35 37 32 29 30 28 26 24 27 27 25 28 29 29 27 26 28 28 32 33 34
56 55 53 53 53 52 52 52 53 53 54 55 55 57 55 52 31 26 54 55 56 47 35 34 37 37 34 32 29 27 24 26 26 27 29 28 27 29 27 24 25 30 29 32 31
56 55 54 53 53 52 52 53 52 52 52 55 55 56 54 43 4 38 54 54 54 39 36 35 36 34 30 26 28 25 24 24 26 31 30 28 29 26 24 24 26 29 30 28 29
55 54 54 54 53 53 53 53 52 51 52 53 55 53 44 27 16 44 49 50 41 39 37 36 33 30 22 23 26 25 26 30 30 31 30 29 26 24 22 27 28 28 27 28 30
54 53 52 53 54 53 52 53 52 51 52 53 54 51 40 21 35 42 41 39 39 39 36 35 33 32 28 29 29 32 30 29 28 25 26 26 20 24 26 28 29 27 26 28 37
53 52 52 53 53 52 53 53 51 51 52 51 52 44 39 23 36 41 42 38 38 37 33 35 34 30 33 31 33 30 26 23 22 23 23 25 17 22 26 28 25 25 27 31 41
52 53 53 53 52 52 52 53 53 52 51 53 50 44 30 39 41 39 39 39 39 37 40 39 38 35 34 33 29 25 26 13 23 23 26 20 6 21 26 25 25 27 30 36 41
53 53 53 52 52 52 52 53 53 52 53 52 45 42 26 41 34 36 37 30 36 36 40 40 38 33 32 26 23 26 6 15 15 21 21 19 16 18 23 26 28 32 35 39 39
53 53 52 51 52 52 52 52 53 51 48 45 43 37 31 21 33 41 41 38 37 34 37 36 34 29 28 24 7 6 14 18 12 19 22 20 19 22 25 29 36 36 39 39 38
53 52 51 52 51 51 52 46 40 41 42 27 31 26 30 37 39 39 40 40 35 31 25 35 27 21 18 25 21 19 17 14 16 22 26 22 22 23 28 35 37 38 39 39 38
52 51 52 51 51 52 49 41 35 44 30 34 34 35 36 39 34 37 41 33 31 21 29 32 25 21 30 29 27 24 21 19 19 26 28 21 23 28 35 37 38 37 37 38 38
52 51 51 51 51 50 44 40 47 46 32 25 34 33 32 35 23 29 38 33 28 23 28 16 21 30 30 27 25 24 23 19 21 25 25 26 20 32 35 37 37 38 38 38 37
50 51 51 50 47 45 43 43 48 48 25 15 30 34 36 31 26 26 37 30 31 21 25 24 23 27 27 23 25 18 23 25 25 23 18 26 13 25 30 34 35 36 37 37 37
50 51 50 50 43 41 41 43 47 45 11 20 32 39 38 22 31 31 33 35 24 29 30 22 30 28 26 23 28 19 28 27 26 26 25 21 22 19 29 29 33 34 36 37 38
50 51 50 49 49 45 49 48 46 27 8 25 35 36 34 31 34 34 28 34 27 30 31 22 30 27 24 30 30 29 29 29 29 26 22 17 19 12 25 26 31 34 36 36 36
50 50 48 46 40 48 51 48 31 19 4 22 30 35 32 28 34 31 27 27 25 26 26 25 27 28 30 27 31 29 27 23 18 21 13 23 21 19 27 30 32 34 35 37 37
50 50 47 45 48 49 49 39 22 3 3 22 30 33 28 27 31 30 27 24 27 25 21 23 22 26 29 24 23 28 26 18 11 10 13 22 21 25 31 33 35 35 36 37 37
50 50 46 49 49 50 42 31 14 6 6 13 31 28 27 28 26 30 28 25 26 28 16 20 15 27 30 28 27 29 28 25 23 23 25 16 18 32 34 35 35 36 36 36 36
46 44 44 49 49 45 36 27 20 20 22 19 17 22 18 26 26 27 28 28 25 27 27 23 16 26 32 31 30 30 29 29 30 20 17 13 16 25 34 36 35 37 37 36 36
44 38 43 48 46 38 30 27 22 25 28 25 15 16 14 22 25 25 22 27 30 29 28 24 23 26 32 30 24 30 30 30 28 26 19 15 22 37 41 36 36 37 37 37 36
41 34 44 47 34 34 31 27 25 22 28 27 30 28 23 26 24 26 22 22 32 32 30 30 28 22 25 25 28 26 25 28 29 28 31 29 25 31 31 34 34 34 35 36 35
36 38 46 44 30 30 27 26 26 23 25 24 26 28 29 26 23 25 27 33 34 30 32 34 33 26 23 28 31 28 27 27 29 29 28 26 22 32 32 32 33 34 35 35 32
37 32 36 39 34 27 25 23 24 27 28 30 29 29 27 25 26 23 25 32 35 34 40 37 29 27 20 23 31 34 32 31 31 32 27 24 21 23 32 32 34 35 35 33 30
36 34 35 30 32 27 27 23 20 23 26 27 29 30 27 25 24 25 26 25 29 33 33 31 25 23 22 23 24 28 27 25 27 29 28 25 22 21 24 32 35 36 35 31 29
33 34 35 34 30 27 28 27 20 20 24 25 26 24 25 25 23 20 25 27 26 30 32 34 25 23 21 20 20 19 21 21 21 22 24 24 25 26 28 33 35 35 33 30 28
37 40 36 33 32 31 29 26 24 27 28 26 28 29 29 29 30 30 33 33 32 31 30 32 29 26 21 21 25 25 24 22 22 22 24 23 24 23 27 34 37 37 32 30 29

GFSSW_sfc_dewp_129.txt.gz
Dewpoint
62 62 60 57 56 55 54 54 54 53 53 54 55 55 57 57 53 35 26 38 44 57 52 33 25 28 28 26 28 28 25 17 18 17 26 26 26 28 30 29 30 30 30 33 35
60 59 57 56 55 53 52 53 53 53 54 54 55 55 58 56 43 29 47 53 55 55 36 28 26 30 28 27 27 25 21 22 25 24 21 25 27 26 26 26 26 29 31 32 32
58 57 56 54 53 52 52 52 52 53 53 54 55 56 57 52 31 22 54 52 56 53 35 33 35 35 31 28 26 24 22 26 24 25 26 22 22 23 22 21 22 25 28 29 28
57 56 55 54 53 53 52 52 52 52 52 53 54 56 55 42 15 37 49 52 56 43 36 35 35 31 27 26 26 23 20 21 17 26 24 22 22 22 20 20 22 25 27 25 27
56 55 55 54 54 53 52 52 53 52 51 53 54 55 44 28 23 43 47 48 43 39 34 31 29 27 23 17 20 19 13 22 23 26 26 24 23 22 19 21 24 24 24 25 31
55 54 53 52 53 53 52 52 52 51 51 52 53 54 41 27 27 34 34 35 36 36 31 29 27 28 24 22 21 28 27 26 25 23 22 22 19 19 18 23 24 25 24 32 38
54 53 51 51 53 53 52 52 53 52 52 52 52 46 35 27 28 33 35 30 31 32 31 30 31 28 23 25 28 27 24 19 20 20 20 23 17 16 22 26 22 23 25 34 39
53 53 51 52 52 51 51 52 53 53 52 52 53 43 32 28 32 33 33 32 35 32 32 32 31 28 28 28 26 21 22 16 14 20 22 19 10 19 24 24 21 23 28 37 39
53 53 53 52 51 51 51 53 53 53 52 53 47 41 28 40 29 27 30 29 32 32 36 35 34 28 29 25 19 22 12 15 16 18 15 18 12 15 19 20 22 27 31 37 37
53 53 53 52 51 51 52 52 52 52 50 44 39 36 30 18 27 32 33 28 29 29 33 33 30 27 26 20 14 12 17 13 12 17 19 17 17 16 17 22 29 32 36 37 37
53 53 53 51 51 51 50 45 37 40 38 27 26 23 23 28 35 36 36 29 31 28 26 29 26 22 20 22 19 16 15 10 10 11 18 22 20 16 19 26 31 34 37 37 38
53 53 52 52 51 52 49 38 32 41 31 33 32 27 28 36 29 32 37 32 30 23 22 28 25 20 17 22 21 21 17 14 15 16 22 21 17 17 24 30 34 34 36 37 38
52 52 52 51 51 49 41 38 39 42 28 19 20 24 22 27 23 26 36 31 27 22 20 24 18 21 18 24 22 19 17 17 16 17 20 20 18 20 30 35 36 36 36 37 37
52 51 51 51 46 40 40 40 41 47 26 16 19 28 24 27 23 16 34 29 26 21 17 22 20 20 19 21 20 18 16 21 19 17 15 23 18 18 28 33 34 34 36 37 37
51 51 51 48 42 36 37 40 45 44 21 18 26 33 29 23 16 17 23 31 22 20 18 17 20 20 21 18 18 19 24 22 20 20 20 17 16 16 18 29 31 33 35 37 38
51 50 50 45 47 42 44 42 46 33 20 21 29 29 32 28 19 29 19 28 26 23 24 21 24 25 22 22 23 24 25 24 24 22 21 18 15 12 14 25 26 31 35 37 37
50 50 48 41 37 47 50 47 32 21 18 17 25 29 28 26 23 30 22 26 22 19 22 26 24 23 24 25 26 26 24 22 20 21 20 19 16 15 24 25 25 32 34 37 37
50 50 46 41 42 48 50 38 22 18 17 16 22 28 26 24 26 28 25 22 23 19 16 21 18 22 26 22 24 25 23 18 11 12 9 20 19 21 27 30 33 33 35 38 38
50 48 43 45 47 51 43 29 21 18 14 13 22 26 25 24 24 28 27 22 21 22 19 20 18 22 24 24 20 22 25 21 21 20 20 16 15 29 32 34 35 35 36 38 38
47 45 43 45 49 46 37 30 23 19 13 8 10 22 19 24 23 27 25 24 23 23 26 20 17 21 26 25 25 22 24 25 27 17 15 12 15 23 34 37 35 36 38 38 37
46 37 43 47 46 40 31 30 25 20 16 17 12 16 17 22 24 26 23 24 25 24 26 22 19 22 29 26 17 22 26 26 25 23 17 14 22 32 37 35 37 36 38 38 37
41 32 45 47 35 37 34 30 27 23 23 26 28 22 12 20 22 23 21 23 29 29 25 25 23 16 22 22 22 20 24 24 30 24 29 27 27 27 30 31 33 34 35 38 38
33 36 46 44 30 33 29 26 25 24 22 23 23 26 27 20 17 19 19 33 31 30 28 28 30 23 18 17 25 26 22 27 27 28 26 25 25 30 28 26 29 31 34 37 37
33 31 37 38 37 28 26 25 24 26 24 25 22 22 25 25 24 18 20 31 34 33 38 36 29 21 16 19 30 32 27 24 24 30 29 28 25 24 31 30 30 32 35 36 36
33 33 36 30 33 33 27 24 22 23 28 31 32 26 23 22 19 20 20 26 30 35 29 34 27 22 21 21 30 31 31 29 29 29 33 29 26 28 28 27 34 33 35 35 34
33 34 37 32 32 31 28 24 18 17 20 25 26 26 25 26 23 21 24 25 23 25 25 32 30 28 26 26 19 17 16 18 18 22 26 26 27 28 25 23 24 34 35 34 33
36 39 38 35 31 30 29 23 21 20 19 21 23 22 23 24 24 25 26 30 29 28 29 29 29 26 24 21 20 20 17 17 16 14 16 18 19 19 19 20 28 33 36 34 33